     2              OBSERVATION DATA    GPS                 RINEX VERSION / TYPE
ASRINEXO V2.2.0 UX USGS 15-AUG-94 13:59                     PGM / RUN BY / DATE
                                                            COMMENT
Original Marker Name: CAJO                                  COMMENT
Campaign Name: USGS-So. Cal Monit                           COMMENT
4-Character Station Name: CAJO                              COMMENT
6-Character Antenna Code: ASHP12                            COMMENT
Vertical Measurement Point: EGP                             COMMENT
Vertical Offset to Rinex Ref. Point: 0.0593                 COMMENT
Radial Measurement Point: EGP                               COMMENT
Radial Offset to Rinex Ref. Point: 0.1425                   COMMENT
Antenna Height from Field Measurement: 1.3170 m             COMMENT
Additional Antenna Identification Info.:                    COMMENT
Ashtech L1/L2 Revision B (700228DE)                         COMMENT
Original XYZ: -2430678.9900 -4679042.6500 3579058.3900      COMMENT
New XYZ position is based on association with SCEC monument COMMENT
E1F2A7V9+0011. Position of that monument is believed to be  COMMENT
valid to within 1 m horizontally; vertical accuracy         COMMENT
should be no worse than 3-times this value.                 COMMENT
                                                            COMMENT
Revised Rinex header created by UCSD GPS archive for        COMMENT
GSAC on 11-Jul-2000 (2000:193) 17:42:26 GMT                 COMMENT
For assistance contact dagnew@ucsd.edu                      COMMENT
or anderson@python.ucsd.edu                                 COMMENT
                                                            COMMENT
CAJON 1934                                                  MARKER NAME
                                                            MARKER NUMBER
CHS US GEOLOGICAL SURVEY                                    OBSERVER / AGENCY
831 ASHTECH L-XII 6A                                        REC # / TYPE / VERS
27 ASHTECH GEODETIC P                                       ANT # / TYPE
 -2430670.9024 -4679025.4712  3579049.6426                  APPROX POSITION XYZ
        1.2500        0.0000        0.0000                  ANTENNA: DELTA H/E/N
     1     2     0                                          WAVELENGTH FACT L1/2
     3    C1    L1    L2                                    # / TYPES OF OBSERV
    30                                                      INTERVAL
  1991     5     6    19     0   30.000000                  TIME OF FIRST OBS
  1991     5     7     1    23    0.000000                  TIME OF LAST OBS
                                                            END OF HEADER
 91  5  6 19  0 30.0000000  0  5  2 19 11 16 18
  23731940.918     -485317.738 6   -378169.296 3
  20757151.921        4954.049 8      3859.740 8
  23585113.364     -323739.857 6   -252264.771 3
  24579672.749     -344798.777 5   -268674.468 3
  20467023.571      239259.743 9    186436.135 9
 91  5  6 19  1  0.0000000  0  5  2 19 11 16 18
  23716232.991     -567840.434 6   -442472.443 2
  20757820.456        8461.113 8      6592.511 9
  23575217.214     -375732.630 6   -292778.427 3
  24568937.183     -401159.326 5   -312591.800 2
  20475497.807      283789.289 9    221134.411 9
 91  5  6 19  1 30.0000000  0  5  2 19 11 16 18
  23700673.164     -649644.578 6   -506216.126 2
  20758627.198       12675.038 8      9876.094 9
  23565498.246     -426809.769 6   -332578.611 2
  24558394.381     -456568.671 5   -355767.878 2
  20484159.711      329308.803 9    256604.087 9
 91  5  6 19  2  0.0000000  0  5  2 19 11 16 18
  23685233.552     -730742.123 6   -569408.764 3
  20759554.162       17583.322 8     13700.721 9
  23555957.051     -476980.836 6   -371672.762 2
  24548031.456     -511037.346 5   -398210.999 3
  20493009.886      375805.916 9    292835.524 9
 91  5  6 19  2 30.0000000  0  5  2 19 11 16 18
  23669931.849     -811145.716 6   -632061.138 3
  20760619.620       23171.527 8     18055.173 8
  23546572.944     -526257.365 6   -410069.910 2
  24537845.702     -564577.852 5   -439930.862 3
  20502038.733      423265.665 9    329817.064 9
 91  5  6 19  3  0.0000000  0  5  2 19 11 16 18
  23654760.551     -890867.743 6   -694182.432 4
  20761809.498       29425.273 8     22928.220 8
  23537366.619     -574650.273 6   -447778.512 3
  24527835.935     -617202.022 5   -480936.674 3
  20511252.858      471674.142 9    367537.887 9
 91  5  6 19  3 30.0000000  0  5  2 19 11 16 18
  23639719.964     -969937.979 6   -755795.364 3
  20763117.793       36313.516 8     28295.673 8
  23528323.384     -622187.684 6   -484820.479 2
  24517986.849     -668939.544 5   -521251.603 1
  20520638.458      521000.245 9    405973.735 9
 91  5  6 19  4  0.0000000  0  5  2 19 11 16 18
  23624801.389    -1048342.784 6   -816889.750 3
  20764553.798       43848.895 8     34167.414 8
  23519443.832     -668853.894 6   -521183.587 3
  24508313.146     -719776.131 5   -560864.444 3
  20530202.739      571256.377 9    445134.287 9
 91  5  6 19  4 30.0000000  0  5  2 19 11 16 18
  23610005.733    -1126078.464 6   -877462.756 3
  20766109.118       52033.444 8     40544.963 9
  23510732.160     -714643.978 6   -556864.053 2
  24498807.925     -769706.556 5   -599771.265 2
  20539944.794      622444.331 9    485020.907 9
 91  5  6 19  5  0.0000000  0  5  2 19 11 16 18
  23595343.781    -1203155.698 6   -937522.695 3
  20767788.256       60855.101 8     47418.989 9
  23502183.281     -759566.981 6   -591868.820 2
  24489474.790     -818741.216 5   -637980.000 2
  20549858.630      674552.521 9    525624.620 9
 91  5  6 19  5 30.0000000  0  5  2 19 11 16 18
  23580795.159    -1279602.597 6   -997091.448 4
  20769587.915       70284.087 8     54766.246 8
  23493791.488     -803649.750 6   -626218.877 4
  24480316.427     -866908.881 5   -675513.206 1
  20559942.447      727550.379 9    566921.576 9
 91  5  6 19  6  0.0000000  0  5  2 19 11 16 18
  23566356.849    -1355449.925 6  -1056193.025 3
  20771488.898       80288.767 8     62562.110 9
  23485557.987     -846921.618 6   -659937.058 2
  24471305.570     -914238.948 5   -712393.760 2
  20570192.356      781405.572 9    608886.586 9
 91  5  6 19  6 30.0000000  0  5  2 19 11 16 18
  23552036.363    -1430725.454 6  -1114849.032 4
  20773495.708       90839.970 8     70783.817 8
  23477469.584     -889407.847 6   -693043.052 4
  24462454.794     -960758.105 5   -748642.414 2
  20580597.546      836089.340 9    651497.228 9
 91  5  6 19  7  0.0000000  0  5  2 19 11 16 18
  23537816.006    -1505451.648 6  -1173077.001 2
  20775604.148      101913.925 8     79412.874 9
  23469525.983     -931129.766 6   -725553.469 2
  24453754.822    -1006488.258 5   -784276.227 2
  20591157.440      891577.739 9    694734.858 9
 91  5  6 19  7 30.0000000  0  5  2 19 11 16 18
  23523686.791    -1579657.248 6  -1230899.324 2
  20777807.622      113480.465 8     88425.764 9
  23461735.281     -972114.586 6   -757489.549 4
  24445197.846    -1051458.135 5   -819317.642 1
  20601864.824      947840.359 9    738575.786 9
 91  5  6 19  8  0.0000000  0  5  2 19 11 16 18
  23509662.802    -1653356.996 6  -1288327.938 3
  20780094.743      125522.999 8     97809.564 9
  23454073.484    -1012375.978 6   -788861.933 2
  24436776.668    -1095681.859 5   -853777.647 2
  20612714.017     1004860.186 9    783006.743 9
 91  5  6 19  8 30.0000000  0  5  2 19 11 16 18
  23495737.737    -1726563.674 6  -1345371.892 3
  20782472.693      138028.150 8    107553.832 8
  23446539.998    -1051924.667 6   -819678.945 3
  24428499.698    -1139171.894 5   -887665.903 2
  20623707.401     1062623.428 9    828016.980 9
 91  5  6 19  9  0.0000000  0  5  2 19 11 16 18
  23481892.420    -1799290.516 6  -1402042.388 3
  20784940.285      150981.100 8    117647.046 8
  23439154.909    -1090772.730 6   -849950.044 3
  24420367.835    -1181940.975 5   -920992.428 2
  20634837.796     1121114.763 9    873594.556 9
 91  5  6 19  9 30.0000000  0  5  2 19 11 16 18
  23468146.038    -1871551.225 6  -1458349.181 3
  20787487.921      164366.902 8    128077.532 9
  23431889.144    -1128932.159 6   -879684.473 3
  24412364.275    -1224001.913 6   -953767.171 4
  20646102.801     1180319.679 9    919728.174 9
 91  5  6 19 10  0.0000000  0  5  2 19 11 16 18
  23454482.404    -1943362.543 6  -1514305.810 4
  20790114.405      178167.456 8    138831.224 8
  23424755.879    -1166418.278 6   -908894.323 3
  24404483.024    -1265371.600 6   -986003.235 2
  20657503.308     1240219.334 9    966403.165 9
 91  5  6 19 10 30.0000000  0  5  2 19 11 16 18
  23440894.905    -2014732.364 6  -1569918.436 4
  20792817.331      192373.585 8    149900.929 9
  23417751.824    -1203237.435 6   -937584.465 2
  24396741.191    -1306057.168 5  -1017706.239 1
  20669032.126     1300804.337 9   1013612.168 9
 91  5  6 19 11  0.0000000  0  5  2 19 11 16 18
  23427401.550    -2085671.641 6  -1625195.562 4
  20795595.807      206973.328 8    161277.343 8
  23410873.690    -1239398.993 6   -965762.164 3
  24389133.656    -1346068.854 6  -1048884.161
  20680686.559     1362062.241 9   1061345.510 9
 91  5  6 19 11 30.0000000  0  5  2 19 11 16 18
  23413981.338    -2156185.520 6  -1680141.185 4
  20798447.137      221960.631 8    172955.769 8
  23404115.465    -1274906.638 6   -993430.353 3
  24381645.436    -1385411.507 5  -1079540.747 2
  20692472.602     1423985.672 9   1109597.454 9
 91  5  6 19 12  0.0000000  0  5  2 19 11 16 18
  23400640.272    -2226289.525 6  -1734767.449 3
  20801369.813      237318.349 8    184922.803 8
  23397478.065    -1309774.348 6  -1020599.863 2
  24374278.940    -1424100.066 5  -1109687.656 1
  20704380.657     1486557.657 9   1158354.757 9
 91  5  6 19 12 30.0000000  0  5  2 19 11 16 18
  23387375.654    -2295989.931 6  -1789079.204 3
  20804359.943      253039.026 8    197172.674 8
  23390963.271    -1344006.853 6  -1047274.452 3
  24367050.039    -1462139.856 6  -1139329.013 2
  20716405.628     1549770.415 9   1207611.363 9
 91  5  6 19 13  0.0000000  0  6  2 19 11  6 16 18
  23374185.689    -2365293.579 6  -1843081.791 2
  20807418.722      269114.819 8    209699.241 8
  23384564.799    -1377609.223 6  -1073458.018 2
  24900452.179     -565054.334 5   -440302.142 1
  24359930.873    -1499538.107 6  -1168470.473 3
  20728557.122     1613615.636 9   1257360.785 9
 91  5  6 19 13 30.0000000  0  6  2 19 11  6 16 18
  23361075.768    -2434201.780 6  -1896776.262 4
  20810546.455      285542.699 8    222500.185 8
  23378291.341    -1410582.211 6  -1099151.141 3
  24891133.423     -614010.708 5   -478449.832 2
  24352933.711    -1536295.708 6  -1197112.719 3
  20740826.728     1678090.086 9   1307600.524 9
 91  5  6 19 14  0.0000000  0  6  2 19 11  6 16 18
  23348035.692    -2502720.434 6  -1950167.181 2
  20813740.447      302315.724 8    235570.053 9
  23372138.709    -1442930.106 6  -1124357.205 3
  24881859.051     -662733.732 5   -516415.648 1
  24346055.577    -1572418.307 6  -1225260.222 3
  20753212.953     1743185.663 9   1358324.266 9
 91  5  6 19 14 30.0000000  0  6  2 19 11  6 16 18
  23335068.164    -2570853.367 6  -2003257.543 3
  20816993.796      319429.155 8    248905.176 8
  23366101.186    -1474654.998 6  -1149077.807 2
  24872634.133     -711228.892 5   -554203.928 2
  24339303.948    -1607908.785 5  -1252915.130 3
  20765719.088     1808896.831 9   1409527.671 9
 91  5  6 19 15  0.0000000  0  6  2 19 11  6 16 18
  23322168.702    -2638611.544 6  -2056055.893 3
  20820315.794      336871.040 8    262496.248 9
  23360181.785    -1505766.367 6  -1173320.327 2
  24863442.798     -759508.542 4   -591824.268
  24332672.543    -1642777.676 5  -1280085.668 3
  20778337.960     1875211.504 9   1461201.349 9
 91  5  6 19 15 30.0000000  0  6  2 19 11  6 16 18
  23309351.674    -2705997.196 6  -2108563.943 3
  20823695.360      354638.290 8    276340.832 8
  23354372.101    -1536265.247 6  -1197085.595 4
  24854296.728     -807576.587 5   -629279.764 2
  24326154.755    -1677026.681 6  -1306773.205 1
  20791070.145     1942125.590 9   1513342.088 9
 91  5  6 19 16  0.0000000  0  6  2 19 11  6 16 18
  23296599.404    -2773017.475 6  -2160787.740 4
  20827135.775      372722.254 8    290432.231 9
  23348691.636    -1566157.160 6  -1220377.900 4
  24845193.229     -855442.117 5   -666577.385 2
  24319752.986    -1710662.851 6  -1332983.202 2
  20803917.144     2009630.257 9   1565943.032 9
 91  5  6 19 16 30.0000000  0  6  2 19 11  6 16 18
  23283915.783    -2839675.360 6  -2212728.706 2
  20830639.151      391118.985 8    304767.331 9
  23343113.997    -1595443.859 6  -1243198.596 3
  24836124.508     -903109.384 5   -703720.545 2
  24313465.140    -1743688.803 6  -1358717.712 3
  20816874.480     2077720.943 9   1619000.605 9
 91  5  6 19 17  0.0000000  0  6  2 19 11  6 16 18
  23271299.319    -2905972.311 6  -2264388.907 4
  20834197.686      409825.808 8    319344.063 8
  23337653.283    -1624125.411 6  -1265547.766 4
  24827087.564     -950581.620 5   -740712.135 3
  24307295.110    -1776104.959 6  -1383977.042 2
  20829942.128     2146393.987 9   1672511.967 9
 91  5  6 19 17 30.0000000  0  6  2 19 11  6 16 18
  23258747.002    -2971909.895 6  -2315768.594 4
  20837817.682      428840.368 8    334160.583 9
  23332316.675    -1652201.706 6  -1287425.296 3
  24818090.493     -997861.623 4   -777553.550 2
  24301245.294    -1807913.324 5  -1408762.790 2
  20843120.105     2215645.974 9   1726474.459 9
 91  5  6 19 18  0.0000000  0  6  2 19 11  6 16 18
  23246274.441    -3037493.734 6  -2366872.659 5
  20841492.532      448155.394 8    349211.234 9
  23327088.293    -1679677.576 6  -1308834.968 4
  24809129.396    -1044957.209 4   -814251.134 2
  24295309.105    -1839119.245 6  -1433079.073 2
  20856408.105     2285469.765 9   1780882.514 9
 91  5  6 19 18 30.0000000  0  6  2 19 11  6 16 18
  23233847.740    -3102735.112 6  -2417709.842 5
  20845221.050      467759.254 8    364486.944 9
  23321967.535    -1706562.279 6  -1329784.015 3
  24800197.380    -1091880.704 4   -850814.724 1
  24289483.542    -1869733.188 5  -1456934.072 3
  20869800.737     2355852.329 9   1835725.961 9
 91  5  6 19 19  0.0000000  0  6  2 19 11  6 16 18
  23221499.887    -3167640.237 6  -2468285.023 4
  20849005.330      487644.547 8    379981.953 8
  23316964.305    -1732860.698 6  -1350276.207 2
  24791303.135    -1138639.985 5   -887250.301 1
  24283769.799    -1899760.925 5  -1480332.284 3
  20883299.493     2426786.107 9   1890998.928 9
 91  5  6 19 19 30.0000000  0  6  2 19 11  6 16 18
  23209213.494    -3232209.131 6  -2518598.207 3
  20852841.778      507809.572 8    395694.935 9
  23312074.684    -1758572.229 6  -1370311.080 3
  24782428.984    -1185237.091 5   -923559.526 2
  24278161.875    -1929203.139 5  -1503274.266 3
  20896903.779     2498268.748 9   1946699.584 9
 91  5  6 19 20  0.0000000  0  6  2 19 11  6 16 18
  23196995.157    -3296443.274 6  -2568650.547 4
  20856733.081      528252.206 8    411624.235 9
  23307288.796    -1783696.804 6  -1389888.588 2
  24773591.696    -1231674.710 4   -959744.934 2
  24272671.775    -1958060.085 5  -1525760.156 3
  20910609.982     2570296.828 9   2002825.262 9
 91  5  6 19 20 30.0000000  0  6  2 19 11  6 16 18
  23184826.876    -3360345.837 6  -2618444.526 4
  20860678.653      548968.444 8    427766.737 9
  23302622.826    -1808236.180 6  -1409010.077 4
  24764783.498    -1277957.634 4   -995809.316 2
  24267290.808    -1986334.797 5  -1547792.380 1
  20924417.232     2642865.467 9   2059372.154 9
 91  5  6 19 21  0.0000000  0  6  2 19 11  6 16 18
  23172733.247    -3423919.153 6  -2667981.925 4
  20864667.991      569955.189 8    444120.026 8
  23298059.690    -1832191.381 6  -1427676.383 2
  24756012.469          -0.38615         1.435 2
  24262019.857    -2014029.720 5  -1569372.817 3
  20938329.400     2715970.359 9   2116336.908 9
 91  5  6 19 21 30.0000000  0  5  2 19 11 16 18
  23160699.280    -3487164.071 6  -2717263.446 4
  20868711.591      591209.767 8    460682.014 9
  23293614.369    -1855562.022 6  -1445887.197 3
  24256863.125    -2041145.654 5  -1590502.099 3
  20952343.199     2789609.359 9   2173717.839 9
 91  5  6 19 22  0.0000000  0  5  2 19 11 16 18
  23148726.171    -3550081.027 6  -2766289.407 3
  20872810.054      612731.753 8    477452.377 9
  23289276.367    -1878347.206 6  -1463641.800 3
  24251813.120    -2067682.299 6  -1611180.003 2
  20966458.322     2863779.860 9   2231512.934 9
 91  5  6 19 22 30.0000000  0  6  2 19 11  6 16 18
  23136819.914    -3612671.029 6  -2815060.608 3
  20876953.486      634518.757 8    494429.240 8
  23285051.696    -1900546.758 6  -1480940.060 2
  24729837.893       -7606.098 4     -5924.702 2
  24246865.948    -2093640.655 5  -1631407.290 2
  20980672.380     2938478.482 9   2289719.540 9
 91  5  6 19 23  0.0000000  0  6  2 19 11  6 16 18
  23124967.316    -3674939.419 6  -2863581.206 3
  20881151.476      656564.770 8    511607.930 9
  23280936.446    -1922164.623 6  -1497785.082 3
  24721169.689      -53162.623 4    -41423.100 1
  24242037.787    -2119025.657 5  -1651187.785 3
  20994987.168     3013698.757 9   2348332.638 9
 91  5  6 19 23 30.0000000  0  6  2 19 11  6 16 18
  23113179.476    -3736888.164 6  -2911853.180 2
  20885394.444      678866.690 8    528986.027 8
  23276941.105    -1943201.563 7  -1514177.391 2
  24712521.579      -98585.363 4    -76817.214 1
  24237319.056    -2143838.953 5  -1670522.815 2
  21009399.993     3089436.820 9   2407349.203 9
 91  5  6 19 24  0.0000000  0  5  2 19 11 16 18
  23101447.101    -3798522.206 7  -2959879.477 4
  20889685.069      701418.406 8    546558.777 8
  23273036.008    -1963661.910 6  -1530120.436 4
  24232707.042    -2168085.533 5  -1689416.246 2
  21023908.453     3165685.092 9   2466763.332 9
 91  5  6 19 24 30.0000000  0  6  2 19 11  6 16 18
  23089781.875    -3859842.123 7  -3007660.993 4
  20894023.367      724219.299 8    564325.689 9
  23269261.927    -1983544.331 6  -1545613.150 4
  24695309.592       -7518.93814     -5856.112 1
  24228196.667    -2191765.946 5  -1707868.509 1
  21038514.939     3242441.512 9   2526573.413 9
 91  5  6 19 25  0.0000000  0  6  2 19 11  6 16 18
  23078174.217    -3920841.687 6  -3055192.894 3
  20898411.128      747274.633 8    582290.868 9
  23265589.171    -2002841.479 6  -1560649.792 4
  24686740.026      -52559.565 4    -40952.569 2
  24223804.709    -2214873.187 5  -1725874.125 1
  21053220.063     3319711.533 9   2586783.703 9
 91  5  6 19 25 30.0000000  0  6  2 19 11  6 16 18
  23066622.312    -3981524.510 6  -3102477.986 4
  20902846.564      770579.168 8    600450.234 9
  23262030.932    -2021555.768 7  -1575232.232 3
  24678189.349      -97475.498 4    -75952.238 3
  24219511.981    -2237410.770 5  -1743435.836 3
  21068021.111     3397488.943 9   2647389.361 9
 91  5  6 19 26  0.0000000  0  6  2 19 11  6 16 18
  23055137.259    -4041897.055 7  -3149521.281 4
  20907327.858      794125.921 8    618798.347 9
  23258572.823    -2039692.573 6  -1589364.688 3
  24669667.745     -142274.508 5   -110860.346 2
  24215328.073    -2259385.418 5  -1760558.949 2
  21082915.701     3475765.199 9   2708383.717 9
 91  5  6 19 26 30.0000000  0  6  2 19 11  6 16 18
  23043707.672    -4101957.577 7  -3196321.477 3
  20911861.617      817915.788 8    637335.897 8
  23255230.137    -2057249.026 6  -1603044.942 2
  24661169.227     -186956.530 5   -145677.251 2
  24211258.098    -2280794.655 6  -1777241.423 3
  21097905.324     3554539.679 9   2769766.302 9
 91  5  6 19 27  0.0000000  0  6  2 19 11  6 16 18
  23032338.646    -4161710.471 7  -3242881.959 4
  20916427.161      841943.733 8    656058.952 9
  23252001.978    -2074228.295 6  -1616275.476 4
  24652676.703     -231527.205 4   -180407.451 2
  24207285.242    -2301642.595 5  -1793486.565 2
  21112988.481     3633806.635 9   2831532.633 9
 91  5  6 19 27 30.0000000  0  6  2 19 11  6 16 18
  23021022.677    -4221159.291 7  -3289205.520 4
  20921041.862      866205.159 8    674963.950 8
  23248876.941    -2090632.960 6  -1629058.247 3
  24644222.858     -275991.454 5   -215054.710 2
  24203428.412    -2321933.604 6  -1809297.748 1
  21128168.173     3713560.562 9   2893678.419 9
 91  5  6 19 28  0.0000000  0  6  2 19 11  6 16 18
  23009768.168    -4280301.206 7  -3335289.927 4
  20925704.237      890702.303 8    694052.628 9
  23245870.923    -2106458.872 6  -1641390.017 1
  24635781.603     -320348.083 5   -249618.549 2
  24199681.606    -2341664.392 6  -1824672.366 1
  21143434.801     3793802.475 9   2956204.456 9
 91  5  6 19 28 30.0000000  0  6  2 19 11  6 16 18
  22998574.822    -4339134.315 7  -3381133.704 4
  20930410.675      915436.047 8    713325.656 9
  23242971.325    -2121703.117 6  -1653268.562 2
  24627362.527     -364596.671 4   -284097.725 2
  24196026.239    -2360833.185 5  -1839609.074 3
  21158798.871     3874531.434 9   3019110.013 9
 91  5  6 19 29  0.0000000  0  6  2 19 11  6 16 18
  22987436.034    -4397659.048 7  -3426737.206 5
  20935165.091      940405.938 8    732782.708 9
  23240183.260    -2136365.091 6  -1664693.381 3
  24618958.747     -408738.657 5   -318493.838 2
  24192493.190    -2379439.880 6  -1854107.778 2
  21174252.871     3955745.857 9   3082393.863 9
 91  5  6 19 29 30.0000000  0  6  2 19 11  6 16 18
  22976357.798    -4455873.489 7  -3472098.918 4
  20939959.364      965612.766 8    752424.374 9
  23237496.816    -2150441.512 7  -1675661.932 4
  24610585.845     -452773.439 5   -352806.410 2
  24189054.563    -2397481.732 5  -1868166.354 2
  21189799.803     4037446.007 9   3146056.184 9
 91  5  6 19 30  0.0000000  0  6  2 19 11  6 16 18
  22965338.325    -4513780.093 7  -3517220.748 5
  20944804.914      991053.384 8    772248.222 8
  23234929.697    -2163934.088 7  -1686175.571 3
  24602220.140     -496705.205 5   -387039.130 2
  24185725.070    -2414962.190 5  -1881787.438 2
  21205437.885     4119626.768 9   3210093.019 9
 91  5  6 19 30 30.0000000  0  6  2 19 11  6 16 18
  22954376.413    -4571377.902 7  -3562101.963 4
  20949688.236     1016728.056 8    792254.444 9
  23232477.086    -2176840.618 7  -1696232.512 4
  24593877.514     -540534.085 5   -421191.254 2
  24182508.001    -2431879.763 5  -1894969.924 2
  21221169.789     4202287.947 9   3274504.196 9
 91  5  6 19 31  0.0000000  0  6  2 19 11  6 16 18
  22943473.264    -4628661.789 7  -3606738.557 5
  20954618.917     1042640.765 8    812446.153 8
  23230127.319    -2189155.674 6  -1705828.580 2
  24585560.967     -584256.894 5   -455261.226 3
  24179403.048    -2448229.996 6  -1907710.361 3
  21236991.037     4285431.867 9   3339291.536 9
 91  5  6 19 31 30.0000000  0  6  2 19 11  6 16 18
  22932634.270    -4685625.415 7  -3651125.611 5
  20959595.474     1068797.241 8    832827.806 9
  23227905.557    -2200871.016 7  -1714957.343 4
  24577254.323     -627868.299 5   -489244.281 1
  24176392.231    -2464006.050 6  -1920003.377 3
  21252904.920     4369063.250 9   3404458.715 9
 91  5  6 19 32  0.0000000  0  6  2 19 11  6 16 18
  22921853.430    -4742276.178 7  -3695268.858 5
  20964616.399     1095189.579 8    853393.243 8
  23225785.722    -2211993.085 7  -1723623.804 4
  24568973.157     -671376.997 4   -523147.403 3
  24173506.131    -2479215.246 6  -1931854.688 4
  21268911.438     4453173.010 9   3469998.657 9
 91  5  6 19 32 30.0000000  0  6  2 19 11  6 16 18
  22911136.754    -4798614.886 7  -3739168.956 4
  20969687.991     1121816.498 8    874141.481 8
  23223784.007    -2222521.671 7  -1731827.821 5
  24560720.765     -714784.966 5   -556971.955 2
  24170710.563    -2493858.951 6  -1943265.346 2
  21285006.393     4537758.415 9   3535909.225 9
 91  5  6 19 33  0.0000000  0  6  2 19 11  6 16 18
  22900472.236    -4854646.848 7  -3782830.017 5
  20974794.352     1148671.627 8    895067.533 8
  23221890.223    -2232461.615 7  -1739573.167 4
  24552476.776     -758099.164 5   -590723.459 2
  24168036.718    -2507941.986 6  -1954239.122 1
  21301191.889     4622811.598 9   3602184.301 9
 91  5  6 19 33 30.0000000  0  6  2 19 11  6 16 18
  22889870.976    -4910374.134 7  -3826253.669 4
  20979948.981     1175752.808 8    916169.743 9
  23220114.550    -2241813.569 7  -1746860.324 3
  24544248.074     -801322.825 5   -624404.429 2
  24165458.798    -2521466.390 6  -1964777.581 2
  21317465.229     4708328.697 9   3668820.872 8
 91  5  6 19 34  0.0000000  0  6  2 19 11  6 16 18
  22879323.672    -4965795.311 7  -3869438.824 4
  20985147.985     1203060.279 8    937448.259 9
  23218445.602    -2250575.523 7  -1753687.722 3
  24536041.551     -844456.140 5   -658014.996 2
  24162987.009    -2534430.613 5  -1974879.562 3
  21333826.998     4794308.882 9   3735818.279 8
 91  5  6 19 34 30.0000000  0  6  2 19 11  6 16 18
  22868834.233    -5020907.770 7  -3912383.397 5
  20990382.658     1230596.318 8    958904.887 8
  23216888.781    -2258743.942 7  -1760052.664 4
  24527856.020     -887497.610 5   -691553.564 2
  24160640.836    -2546832.353 5  -1984543.220 3
  21350275.408     4880752.979 9   3803177.180 8
 91  5  6 19 35  0.0000000  0  6  2 19 11  6 16 18
  22858408.652    -5075707.901 7  -3955084.601 4
  20995668.905     1258364.161 8    980542.154 8
  23215451.275    -2266314.169 7  -1765951.457 3
  24519681.579     -930444.741 5   -725019.109 2
  24158385.797    -2558667.846 5  -1993765.660 2
  21366815.265     4967662.524 9   3870898.769 9
 91  5  6 19 35 30.0000000  0  6  2 19 11  6 16 18
  22848036.732    -5130194.423 7  -3997541.427 5
  21000999.213     1286364.431 8   1002360.519 8
  23214125.897    -2273283.848 7  -1771382.296 2
  24511520.923     -973297.621 5   -758411.174 2
  24156230.590    -2569936.368 6  -2002546.309 2
  21383441.449     5055036.870 9   3938982.537 8
 91  5  6 19 36  0.0000000  0  6  2 19 11  6 16 18
  22837731.069    -5184363.592 7  -4039750.996 5
  21006372.092     1314600.254 8   1024362.437 9
  23212912.635    -2279648.374 7  -1776341.596 3
  24503386.060    -1016053.583 5   -791727.267 2
  24154208.791    -2580633.843 6  -2010881.966 2
  21400155.477     5142877.919 9   4007429.970 8
 91  5  6 19 36 30.0000000  0  6  2 19 11  6 16 18
  22827481.466    -5238221.572 7  -4081718.065 4
  21011786.039     1343064.789 8   1046542.566 8
  23211817.791    -2285413.074 7  -1780833.493 2
  24495270.975    -1058720.207 5   -824973.780 1
  24152267.035    -2590766.456 6  -2018777.515 2
  21416962.741     5231177.503 9   4076234.691 8
 91  5  6 19 37  0.0000000  0  6  2 19 11  6 16 18
  22817285.818    -5291769.974 7  -4123443.931 5
  21017247.059     1371755.675 8   1068899.083 8
  23210832.377    -2290578.846 7  -1784858.678 3
  24487173.280    -1101300.718 5   -858153.576 3
  24150454.490    -2600337.002 6  -2026235.060 1
  21433849.456     5319931.468 9   4145393.483 8
 91  5  6 19 37 30.0000000  0  6  2 19 11  6 16 18
  22807159.431    -5345009.461 7  -4164929.068 5
  21022750.351     1400672.186 8   1091431.407 9
  23209959.081    -2295145.594 7  -1788417.115 4
  24479081.588    -1143796.556 5   -891266.980 2
  24148739.674    -2609345.194 6  -2033254.429 3
  21450825.203     5409137.147 9   4214904.266 8
 91  5  6 19 38  0.0000000  0  6  2 19 11  6 16 18
  22797087.907    -5397938.354 7  -4206172.191 4
  21028291.415     1429815.329 8   1114140.327 8
  23209206.898    -2299110.418 7  -1791506.536 4
  24471004.275    -1186207.146 5   -924314.416 2
  24147127.693    -2617789.588 5  -2039834.503 3
  21467886.987     5498794.725 9   4284767.167 8
 91  5  6 19 38 30.0000000  0  6  2 19 11  6 16 18
  22787070.635    -5450561.266 7  -4247176.892 4
  21033885.545     1459179.800 8   1137021.717 9
  23208571.937    -2302477.331 7  -1794130.037 3
  24462941.358    -1228538.595 4   -957299.739 3
  24145629.627    -2625674.791 6  -2045978.800 3
  21485034.522     5588897.292 9   4354976.810 9
 91  5  6 19 39  0.0000000  0  6  2 19 11  6 16 18
  22777114.832    -5502877.082 7  -4287942.320 5
  21039516.547     1488766.553 8   1160076.319 8
  23208039.208    -2305244.542 7  -1796286.246 3
  24454908.421    -1270790.969 4   -990223.444 3
  24144238.888    -2633000.037 5  -2051686.787 3
  21502262.695     5679443.780 9   4425532.362 9
 91  5  6 19 39 30.0000000  0  6  2 19 11  6 16 18
  22767221.685    -5554883.173 7  -4328466.396 6
  21045183.226     1518577.349 8   1183305.480 9
  23207627.898    -2307408.762 7  -1797972.608 3
  24446885.073    -1312963.033 5  -1023085.052 1
  24142945.286    -2639763.314 5  -2056956.888 2
  21519577.508     5770434.600 8   4496434.160 8
 91  5  6 19 40  0.0000000  0  6  2 19 11  6 16 18
  22757386.393    -5606578.888 7  -4368748.607 5
  21050899.970     1548612.878 8   1206709.764 9
  23207328.696    -2308968.109 7  -1799187.619 4
  24438878.520    -1355054.846 5  -1055884.119 3
  24141770.397    -2645963.215 6  -2061788.003 1
  21536977.757     5861868.771 8   4567681.413 8
 91  5  6 19 40 30.0000000  0  6  2 19 11  6 16 18
  22747601.759    -5657972.072 7  -4408795.106 5
  21056658.978     1578864.826 8   1230282.689 8
  23207149.125    -2309929.923 7  -1799937.026 3
  24430877.054    -1397075.510 5  -1088627.204 3
  24140697.139    -2651608.455 6  -2066186.898 2
  21554459.559     5953736.239 8   4639266.296 7
 91  5  6 19 41  0.0010000  0  6  2 19 11  6 16 18
  22737881.293    -5709061.072 7  -4448604.554 5
  21062458.465     1609337.250 8   1254027.414 8
  23207083.472    -2310290.188 7  -1800217.738 4
  24422900.476    -1439024.430 5  -1121314.481 1
  24139726.413    -2656695.977 6  -2070151.242 2
  21572023.800     6046041.115 8   4711192.021 8
 91  5  6 19 41 30.0010000  0  6  2 19 11  6 16 18
  22728221.681    -5759841.114 7  -4488173.279 5
  21068296.025     1640028.426 8   1277942.591 8
  23207125.143    -2310046.815 7  -1800028.055 4
  24414926.895    -1480898.419 5  -1153943.356
  24138861.510    -2661224.307 6  -2073679.855 3
  21589671.685     6138776.786 8   4783453.430 8
 91  5  6 19 42  0.0010000  0  6  2 19 11  6 16 18
  22718613.033    -5810314.641 7  -4527503.148 5
  21074177.350     1670938.686 8   1302028.484 8
  23207287.631    -2309199.439 7  -1799367.684 3
  24406973.706    -1522700.717 4  -1186516.801 3
  24138110.837    -2665194.435 6  -2076773.478 3
  21607401.708     6231943.795 8   4856050.944 8
 91  5  6 19 42 30.0010000  0  6  2 19 11  6 16 18
  22709067.642    -5860478.982 7  -4566592.086 5
  21080107.249     1702069.965 8   1326286.601 8
  23207561.337    -2307745.366 7  -1798234.606 4
  24399035.200    -1564430.123 5  -1219032.995 2
  24137461.183    -2668604.992 5  -2079431.097 2
  21625214.175     6325542.080 8   4928984.513 8
 91  5  6 19 43  0.0010000  0  6  2 19 11  6 16 18
  22699576.809    -5910332.747 7  -4605439.030 5
  21086071.018     1733423.528 8   1350717.924 9
  23207954.368    -2305682.205 7  -1796626.925 4
  24391101.790    -1606085.847 4  -1251491.816 2
  24136909.861    -2671453.635 6  -2081650.828 2
  21643104.889     6419571.213 8   5002253.792 8
 91  5  6 19 43 30.0010000  0  6  2 19 11  6 16 18
  22690154.930    -5959875.497 7  -4644043.611 6
  21092079.756     1764999.543 8   1375322.588 9
  23208467.309    -2303008.757 7  -1794543.692 4
  24383195.062    -1647668.694 4  -1283894.317 3
  24136482.365    -2673740.525 6  -2083432.873 2
  21661078.648     6514029.886 8   5075857.789 8
 91  5  6 19 44  0.0010000  0  6  2 19 11  6 16 18
  22680781.624    -6009109.196 7  -4682407.376 5
  21098129.868     1796795.343 8   1400098.515 9
  23209089.985    -2299726.588 7  -1791986.109 3
  24375282.644    -1689181.885 5  -1316242.038 2
  24136157.983    -2675468.055 6  -2084779.024 2
  21679136.945     6608913.312 8   5149792.772 8
 91  5  6 19 44 30.0010000  0  6  2 19 11  6 16 18
  22671473.364    -6058032.776 7  -4720529.477 7
  21104221.652     1828811.979 8   1425046.514 9
  23209830.764    -2295833.876 7  -1788952.797 3
  24367406.794    -1730625.552 5  -1348536.019 2
  24135928.644    -2676635.581 6  -2085688.818 3
  21697272.589     6704220.816 8   5224058.196 8
 91  5  6 19 45  0.0010000  0  6  2 19 11  6 16 18
  22662221.773    -6106642.437 7  -4758406.988 5
  21110358.100     1861053.508 8   1450169.755 9
  23210687.273    -2291326.140 7  -1785440.264 2
  24359531.546    -1771996.644 5  -1380772.998 3
  24135815.322    -2677239.293 6  -2086159.281 3
  21715489.779     6799954.077 8   5298655.373 8
 91  5  6 19 45 30.0010000  0  6  2 19 11  6 16 18
  22653030.735    -6154941.585 7  -4796042.531 5
  21116535.930     1893515.919 8   1475465.116 8
  23211662.802    -2286206.304 7  -1781450.756 4
  24351674.585    -1813299.478 5  -1412956.800 2
  24135812.320    -2677283.300 6  -2086193.678 2
  21733788.208     6896107.312 8   5373579.812 8
 91  5  6 19 46  0.0010000  0  6  2 19 11  6 16 18
  22643897.858    -6202930.190 7  -4833436.104 5
  21122755.118     1926198.507 8   1500932.040 9
  23212757.942    -2280474.202 7  -1776984.157 3
  24343827.816    -1854535.486 5  -1445088.626 2
  24135901.666    -2676767.853 6  -2085792.035 4
  21752165.190     6992678.831 8   5448830.179 8
 91  5  6 19 46 30.0010000  0  6  2 19 11  6 16 18
  22634825.839    -6250611.701 7  -4870590.353 6
  21129017.783     1959097.426 8   1526567.532 8
  23213958.308    -2274132.582 7  -1772042.609 4
  24335983.751    -1895708.894 5  -1477171.592 2
  24136113.913    -2675696.694 6  -2084957.432 2
  21770619.510     7089663.087 8   5524402.162 7
 91  5  6 19 47  0.0010000  0  6  2 19 11  6 16 18
  22625811.074    -6297980.995 7  -4907501.353 5
  21135318.821     1992217.338 8   1552375.238 7
  23215286.688    -2267175.819 7  -1766621.753 3
  24328167.859    -1936815.875 5  -1509203.264 2
  24136420.007    -2674065.188 5  -2083686.131 2
  21789155.978     7187062.821 8   5600297.885 7
 91  5  6 19 47 30.0010000  0  6  2 19 11  6 16 18
  22616858.379    -6345041.157 7  -4944171.457 5
  21141661.530     2025555.581 8   1578353.067 8
  23216729.594    -2259606.494 7  -1760723.558 3
  24320362.167    -1977860.357 5  -1541185.815 2
  24136837.617    -2671876.713 6  -2081980.818 3
  21807766.496     7284872.600 8   5676513.132 7
 91  5  6 19 48  0.0010000  0  6  2 19 11  6 16 18
  22607959.335    -6391791.488 7  -4980600.135 6
  21148048.310     2059112.352 8   1604501.169 9
  23218282.219    -2251423.238 7  -1754346.982 4
  24312557.069    -2018842.465 5  -1573119.716 1
  24137362.851    -2669131.022 6  -2079841.358 2
  21826457.956     7383091.140 8   5753046.890 7
 91  5  6 19 48 30.0010000  0  6  2 19 11  6 16 18
  22599124.150    -6438231.972 7  -5016787.381 5
  21154471.962     2092887.859 8   1630819.718 8
  23219954.456    -2242625.109 7  -1747491.303 3
  24304781.653    -2059762.893 5  -1605005.548 3
  24137985.518    -2665828.337 6  -2077267.853 2
  21845225.264     7481716.950 8   5829897.994 8
 91  5  6 19 49  0.0010000  0  6  2 19 11  6 16 18
  22590344.134    -6484362.470 7  -5052733.061 6
  21160941.787     2126881.771 8   1657308.439 9
  23221749.917    -2233212.059 7  -1740156.413 4
  24296994.241    -2100622.759 5  -1636844.205 3
  24138726.612    -2661968.634 6  -2074260.315 1
  21864073.515     7580748.023 8   5907064.900 7
 91  5  6 19 49 30.0010000  0  6  2 19 11  6 16 18
  22581620.168    -6530186.060 7  -5088439.610 6
  21167453.877     2161090.658 8   1683964.680 8
  23223656.301    -2223186.706 7  -1732344.439 4
  24289226.014    -2141426.222 5  -1668638.944 4
  24139559.432    -2657556.331 6  -2070822.211 3
  21882993.721     7680178.627 8   5984543.126 7
 91  5  6 19 50  0.0010000  0  6  2 19 11  6 16 18
  22572963.962    -6575700.771 7  -5123905.459 5
  21174002.839     2195516.354 8   1710789.873 9
  23225681.696    -2212546.734 7  -1724053.559 5
  24281480.884    -2182171.931 5  -1700388.670 3
  24140503.175    -2652589.697 6  -2066952.136 4
  21901989.766     7780008.911 8   6062332.787 8
 91  5  6 19 50 30.0010000  0  6  2 19 11  6 16 18
  22564360.219    -6620902.168 7  -5159127.192 6
  21180596.482     2230163.417 8   1737787.547 8
  23227821.311    -2201287.262 7  -1715279.946 4
  24273734.845    -2222856.551 5  -1732090.811 3
  24141551.549    -2647064.435 6  -2062646.760 3
  21921064.661     7880240.408 8   6140435.081 8
 91  5  6 19 51  0.0010000  0  6  2 19 11  6 16 18
  22555818.530    -6665792.653 7  -5194106.636 5
  21187234.179     2265028.969 8   1764955.474 9
  23230081.445    -2189409.982 7  -1706024.895 3
  24266003.195    -2263483.479 5  -1763747.981 2
  24142715.347    -2640983.590 5  -2057908.514 2
  21940215.105     7980869.122 8   6218846.898 8
 91  5  6 19 51 30.0010000  0  6  2 19 11  6 16 18
  22547334.103    -6710373.739 7  -5228844.989 6
  21193909.062     2300111.449 8   1792292.433 9
  23232461.803    -2176916.224 7  -1696289.473 4
  24258284.440    -2304054.996 6  -1795361.996 2
  24143979.869    -2634349.326 6  -2052738.990 3
  21959438.396     8081891.683 8   6297565.602 7
 91  5  6 19 52  0.0010000  0  6  2 19 11  6 16 18
  22538911.136    -6754643.750 7  -5263340.947 6
  21200626.209     2335412.474 8   1819799.684 7
  23234957.577    -2163804.174 7  -1686072.277 4
  24250574.681    -2344570.266 5  -1826932.132 1
  24145349.624    -2627160.451 6  -2047137.322 2
  21978735.737     8183307.188 8   6376590.494 7
 91  5  6 19 52 30.0010000  0  6  2 19 11  6 16 18
  22530547.822    -6798604.606 7  -5297596.024 6
  21207383.230     2370929.688 8   1847475.407 8
  23237566.969    -2150075.338 7  -1675374.454 4
  24242870.610    -2385032.089 5  -1858460.665 2
  24146822.500    -2619419.957 6  -2041105.748 3
  21998109.824     8285111.378 8   6455918.263 8
 91  5  6 19 53  0.0010000  0  6  2 19 11  6 16 18
  22522240.280    -6842252.567 8  -5331607.272 6
  21214182.227     2406666.867 8   1875322.512 8
  23240296.576    -2135725.543 7  -1664192.775 4
  24235193.221    -2425437.394 6  -1889945.091 3
  24148400.314    -2611123.924 6  -2034641.348 3
  22017557.664     8387306.655 8   6535550.764 7
 91  5  6 19 53 30.0010000  0  6  2 19 11  6 16 18
  22513991.187    -6885588.039 8  -5365375.013 5
  21221027.686     2442623.440 8   1903340.590 9
  23243148.203    -2120755.313 7  -1652527.640 5
  24227506.845    -2465787.801 5  -1921386.796 3
  24150083.344    -2602273.802 6  -2027745.213 2
  22037075.348     8489889.814 8   6615485.514 7
 91  5  6 19 54  0.0010000  0  6  2 19 11  6 16 18
  22505804.757    -6928610.439 8  -5398898.810 6
  21227910.924     2478800.101 8   1931530.150 9
  23246114.051    -2105163.047 7  -1640377.802 4
  24219838.452    -2506083.345 5  -1952785.751 2
  24151870.412    -2592869.090 6  -2020416.907 2
  22056674.883     8592859.387 8   6695721.375 7
 91  5  6 19 54 30.0010000  0  6  2 19 11  6 16 18
  22497678.583    -6971319.987 8  -5432178.826 5
  21234836.427     2515196.420 8   1959890.882 8
  23249199.215    -2088949.268 7  -1627743.630 3
  24212190.152    -2546325.274 6  -1984142.947 1
  24153768.996    -2582910.832 6  -2012657.270 1
  22076337.370     8696212.789 8   6776256.310 7
 91  5  6 19 55  0.0010000  0  6  2 19 11  6 16 18
  22489610.868    -7013716.639 8  -5465215.043 6
  21241807.205     2551812.477 8   1988422.840 8
  23252404.593    -2072113.477 7  -1614624.806 4
  24204531.051    -2586514.044 5  -2015458.681 3
  24155766.810    -2572399.224 6  -2004466.462 2
  22096079.604     8799948.102 8   6857088.831 7
 91  5  6 19 55 30.0010000  0  6  2 19 11  6 16 18
  22481599.211    -7055797.589 7  -5498005.261 6
  21248817.847     2588650.840 8   2017128.004 8
  23255728.091    -2054653.196 7  -1601019.387 4
  24196901.031    -2626647.925 5  -2046731.659 2
  24157874.648    -2561332.921 6  -1995843.437 2
  22115892.886     8904065.782 8   6938219.298 7
 91  5  6 19 56  0.0010000  0  6  2 19 11  6 16 18
  22473652.618    -7097561.271 7  -5530548.259 6
  21255868.372     2625713.030 8   2046007.592 8
  23259170.016    -2036566.301 7  -1586925.682 5
  24189273.715    -2666725.990 5  -2077961.158 3
  24160087.720    -2549710.839 6  -1986787.317 3
  22135781.720     9008565.309 8   7019647.326 6
 91  5  6 19 56 30.0010000  0  6  2 19 11  6 16 18
  22465769.569    -7139003.237 8  -5562840.579 6
  21262963.857     2663004.036 8   2075065.481 8
  23262728.246    -2017847.982 7  -1572339.928 3
  24181657.184    -2706744.475 5  -2109144.202 3
  24162404.812    -2537528.856 6  -1977294.913 3
  22155738.897     9113449.205 8   7101374.843 7
 91  5  6 19 57  0.0010000  0  6  2 19 11  6 16 18
  22457941.689    -7180124.917 8  -5594883.322 6
  21270105.211     2700522.084 8   2104300.274 9
  23266416.297    -1998499.410 7  -1557263.119 5
  24174045.154    -2746705.511 5  -2140282.470 2
  24164829.241    -2524788.897 6  -1967367.745 4
  22175769.531     9218713.660 8   7183398.908 6
 91  5  6 19 57 30.0010000  0  6  2 19 11  6 16 18
  22450180.365    -7220928.455 8  -5626678.170 6
  21277288.244     2738264.975 8   2133710.280 7
  23270212.863    -1978522.801 7  -1541696.913 4
  24166448.115    -2786612.033 5  -2171378.303 3
  24167361.285    -2511493.970 6  -1957008.134 3
  22195873.316     9324354.928 8   7265716.588 6
 91  5  6 19 58  0.0010000  0  6  2 19 11  6 16 18
  22442474.802    -7261413.089 8  -5658224.509 5
  21284511.142     2776233.765 8   2163296.303 8
  23274137.146    -1957917.218 7  -1525640.581 4
  24158877.155    -2826463.903 5  -2202431.528 2
  24169996.163    -2497644.450 6  -1946216.365 3
  22216044.555     9430370.734 8   7348326.113 7
 91  5  6 19 58 30.0010000  0  6  2 19 11  6 16 18
  22434831.886    -7301573.795 8  -5689518.445 6
  21291779.306     2814432.911 8   2193061.839 7
  23278176.558    -1936678.279 7  -1509090.739 5
  24151287.008    -2866257.332 5  -2233439.241 2
  24172735.367    -2483236.198 6  -1934989.199 2
  22236290.140     9536763.980 8   7431229.748 6
 91  5  6 19 59  0.0010000  0  6  2 19 11  6 16 18
  22427250.438    -7341414.193 8  -5720562.804 6
  21299095.144     2852859.693 8   2223004.743 8
  23282339.769    -1914808.793 7  -1492049.584 4
  24143738.838    -2905996.029 5  -2264404.265 4
  24175583.391    -2468272.629 6  -1923329.339 2
  22256609.174     9643529.211 8   7514423.224 6
 91  5  6 19 59 30.0010000  0  6  2 19 11  6 16 18
  22419729.246    -7380932.877 8  -5751356.464 5
  21306448.753     2891515.032 8   2253125.755 8
  23286620.212    -1892307.301 7  -1474515.925 3
  24136193.660    -2945679.368 6  -2295326.233 2
  24178539.344    -2452753.816 6  -1911236.809 2
  22276996.856     9750665.352 8   7597905.752 6
 91  5  6 20  0  0.0010000  0  6  2 19 11  6 16 18
  22412274.906    -7420129.987 8  -5781899.557 6
  21313849.425     2930398.608 8   2283424.600 8
  23291019.359    -1869174.223 7  -1456490.132 4
  24128644.286    -2985308.374 5  -2326205.803 2
  24181591.230    -2436680.531 6  -1898712.281 2
  22297453.494     9858169.850 8   7681675.287 6
 91  5  6 20  0 30.0010000  0  6  2 19 11  6 16 18
  22404872.733    -7459005.109 8  -5812191.741 6
  21321291.777     2969511.250 8   2313901.963 8
  23295542.630    -1845408.530 7  -1437971.395 5
  24121105.408    -3024882.933 5  -2357042.888 2
  24184756.744    -2420052.697 6  -1885755.635 2
  22317982.680     9966041.864 8   7765731.213 7
 91  5  6 20  1  0.0010000  0  6  2 19 11  6 16 18
  22397537.106    -7497562.119 8  -5842236.039 6
  21328776.699     3008848.936 8   2344554.672 8
  23300187.014    -1821014.536 7  -1418963.079 5
  24113591.109    -3064407.901 5  -2387841.430 2
  24188031.975    -2402875.734 6  -1872371.052 3
  22338577.829    10074274.835 8   7850068.389 7
 91  5  6 20  1 30.0010000  0  6  2 19 11  6 16 18
  22390258.446    -7535805.503 8  -5872035.964 6
  21336305.081     3048407.683 8   2375379.628 7
  23304945.026    -1795996.652 7  -1399468.577 4
  24106081.608    -3103888.137 6  -2418605.085 2
  24191404.343    -2385153.908 6  -1858561.918 4
  22359241.321    10182861.883 8   7934681.477 6
 91  5  6 20  2  0.0010000  0  6  2 19 11  6 16 18
  22383039.448    -7573736.077 8  -5901592.137 6
  21343874.244     3088186.762 8   2406376.279 7
  23309825.948    -1770355.737 7  -1379488.627 5
  24098580.501    -3143325.029 6  -2449334.984 3
  24194874.441    -2366890.242 5  -1844330.565 2
  22379971.970    10291800.371 8   8019568.399 6
 91  5  6 20  2 30.0010000  0  6  2 19 11  6 16 18
  22375883.401    -7611349.212 8  -5930900.939 6
  21351487.172     3128191.073 8   2437548.423 8
  23314824.981    -1744087.135 7  -1359019.566 5
  24091076.995    -3182714.656 5  -2480028.074 2
  24198455.156    -2348080.023 6  -1829673.311 1
  22400770.370    10401092.683 8   8104731.043 5
 91  5  6 20  3  0.0010000  0  6  2 19 11  6 16 18
  22368786.712    -7648648.892 8  -5959965.499 6
  21359140.279     3168416.429 8   2468892.815 8
  23319940.940    -1717195.030 7  -1338064.668 4
  24083583.679    -3222061.546 5  -2510687.885 4
  24202143.504    -2328727.986 6  -1814593.931 2
  22421632.323    10510732.510 8   8190164.461 7
 91  5  6 20  3 30.0010000  0  6  2 19 11  6 16 18
  22361750.583    -7685634.224 8  -5988785.102 6
  21366840.440     3208863.765 8   2500410.185 8
  23325182.514    -1689678.701 7  -1316623.331 4
  24076115.256    -3261365.480 6  -2541314.191 1
  24205920.289    -2308834.632 6  -1799092.697 2
  22442565.334    10620718.223 7   8275867.418 6
 91  5  6 20  4  0.0010000  0  6  2 19 11  6 16 18
  22354769.318    -7722303.271 8  -6017358.264 6
  21374581.383     3249534.849 8   2532101.890 8
  23330529.907    -1661536.493 7  -1294694.321 3
  24068643.824    -3300625.136 6  -2571905.981 2
  24209808.896    -2288398.977 6  -1783168.926 3
  22463558.600    10731050.228 7   8361840.202 6
 91  5  6 20  4 30.0010000  0  6  2 19 11  6 16 18
  22347850.403    -7758658.600 8  -6045686.955 6
  21382360.097     3290428.127 8   2563966.734 8
  23336009.519    -1632770.480 7  -1272279.211 5
  24061184.388    -3339843.086 6  -2602465.261 1
  24213804.236    -2267423.711 6  -1766824.636 2
  22484616.921    10841723.717 7   8448079.071 6
 91  5  6 20  5  0.0010000  0  6  2 19 11  6 16 18
  22340992.956    -7794698.191 8  -6073769.625 7
  21390183.186     3331545.724 8   2596006.374 7
  23341600.944    -1603379.155 7  -1249376.871 5
  24053724.350    -3379018.162 6  -2632991.153 2
  24217900.596    -2245907.814 6  -1750059.084 1
  22505745.697    10952738.213 7   8534583.652 5
 91  5  6 20  5 30.0010000  0  6  2 19 11  6 16 18
  22334193.357    -7830420.916 8  -6101605.388 6
  21398052.737     3372888.745 8   2628221.655 8
  23347312.593    -1573361.664 7  -1225986.588 4
  24046276.911    -3418149.742 6  -2663483.111 2
  24222097.688    -2223851.796 6  -1732872.676 2
  22526936.229    11064092.635 7   8621353.115 6
 91  5  6 20  6  0.0010000  0  6  2 19 11  6 16 18
  22327457.320    -7865827.109 8  -6129194.504 6
  21405959.466     3414456.816 8   2660612.302 8
  23353142.056    -1542718.145 7  -1202108.514 5
  24038839.654    -3457238.493 6  -2693941.741 2
  24226394.315    -2201256.822 6  -1715266.307 4
  22548191.214    11175784.705 7   8708385.678 6
 91  5  6 20  6 30.0010000  0  6  2 19 11  6 16 18
  22320778.842    -7900916.507 8  -6156536.782 7
  21413915.055     3456250.451 8   2693178.736 7
  23359089.640    -1511448.751 7  -1177742.713 5
  24031411.699    -3496284.759 6  -2724367.280 3
  24230797.965    -2178123.247 6  -1697240.232 2
  22569510.058    11287812.624 7   8795679.936 6
 91  5  6 20  7  0.0010000  0  6  2 19 11  6 16 18
  22314164.224    -7935682.683 8  -6183627.192 6
  21421909.925     3498276.642 8   2725926.370 8
  23365167.333    -1479547.323 7  -1152884.435 3
  24023981.047    -3535282.671 6  -2754755.092 3
  24235296.352    -2154445.460 6  -1678790.072 3
  22590893.048    11400180.276 7   8883238.907 5
 91  5  6 20  7 30.0010000  0  6  2 19 11  6 16 18
  22307606.868    -7970126.769 8  -6210466.612 7
  21429956.648     3540534.827 7   2758854.777 7
  23371358.644    -1447015.228 7  -1127534.761 3
  24016575.567    -3574233.537 6  -2785106.281 3
  24239911.062    -2130225.793 6  -1659917.732 2
  22612338.406    11512884.229 7   8971059.935 6
 91  5  6 20  8  0.0010000  0  6  2 19 11  6 16 18
  22301116.059    -8004253.081 8  -6237058.436 6
  21438038.158     3583020.301 8   2791960.306 8
  23377659.987    -1413857.178 7  -1101697.330 4
  24009166.196    -3613142.184 6  -2815424.563 3
  24244623.799    -2105469.484 6  -1640627.182 3
  22633849.115    11625918.380 7   9059138.260 6
 91  5  6 20  8 30.0010000  0  6  2 19 11  6 16 18
  22294681.911    -8038062.781 8  -6263403.527 6
  21446164.628     3625732.340 8   2825242.361 8
  23384094.127    -1380074.648 7  -1075373.275 4
  24001775.715    -3652010.220 5  -2845711.138 2
  24249433.663    -2080178.466 6  -1620920.007 2
  22655420.080    11739279.445 7   9147471.326 6
 91  5  6 20  9  0.0010000  0  6  2 19 11  6 16 18
  22288309.527    -8071557.909 8  -6289503.516 7
  21454335.771     3668669.280 8   2858699.676 7
  23390643.691    -1345669.669 7  -1048564.220 5
  23994380.740    -3690839.918 5  -2875967.895 3
  24254349.660    -2054356.799 6  -1600799.341 2
  22677054.301    11852962.805 7   9236055.533 6
 91  5  6 20  9 30.0010000  0  6  2 19 11  6 16 18
  22281990.201    -8104746.010 8  -6315364.258 7
  21462547.983     3711823.912 8   2892326.629 8
  23397301.786    -1310650.254 7  -1021276.375 4
  23987002.247    -3729639.488 6  -2906201.160 4
  24259361.590    -2028012.593 6  -1580271.478 3
  22698748.185    11966958.923 7   9324883.935 6
 91  5  6 20 10  0.0010000  0  6  2 19 11  6 16 18
  22275734.429    -8137622.590 8  -6340982.264 7
  21470803.969     3755200.895 7   2926126.826 7
  23404084.293    -1275012.063 7   -993506.392 4
  23979629.146    -3768404.366 6  -2936407.411 2
  24264478.151    -2001142.052 6  -1559333.503 3
  22720497.229    12081269.971 7   9413957.735 5
 91  5  6 20 10 30.0010000  0  6  2 19 11  6 16 18
  22269536.819    -8170186.449 8  -6366356.607 7
  21479101.329     3798801.760 7   2960101.490 7
  23410987.015    -1238754.830 7   -965254.040 3
  23972255.452    -3807134.228 6  -2966586.324 3
  24269698.139    -1973745.059 6  -1537985.333 2
  22742313.125    12195895.065 7   9503276.247 5
 91  5  6 20 11  0.0010000  0  6  2 19 11  6 16 18
  22263403.669    -8202436.341 8  -6391486.285 6
  21487438.555     3842628.015 8   2994251.784 7
  23418001.558    -1201877.685 7   -936518.617 4
  23964890.151    -3845828.025 6  -2996737.171 2
  24275010.762    -1945821.968 6  -1516227.156 2
  22764183.587    12310833.066 7   9592838.079 5
 91  5  6 20 11 30.0010000  0  6  2 19 11  6 16 18
  22257324.476    -8234373.571 8  -6416372.337 7
  21495824.946     3886678.622 7   3028576.900 7
  23425144.412    -1164381.916 7   -907301.154 5
  23957539.840    -3884487.189 6  -3026860.996 3
  24280414.222    -1917374.641 5  -1494060.525 3
  22786115.798    12426080.587 7   9682641.572 5
 91  5  6 20 12  0.0010000  0  6  2 19 11  6 16 18
  22251307.641    -8266000.864 8  -6441016.886 7
  21504246.718     3930951.440 7   3063075.168 7
  23432392.490    -1126270.800 7   -877604.219 6
  23950180.237    -3923114.671 6  -3056960.148 2
  24285923.805    -1888407.156 5  -1471488.532 2
  22808106.178    12541633.525 7   9772682.590 5
 91  5  6 20 12 30.0010000  0  6  2 19 11  6 16 18
  22245345.966    -8297318.627 8  -6465420.246 7
  21512716.460     3975446.182 7   3097746.363 7
  23439761.089    -1087545.323 7   -847428.588 5
  23942841.313    -3961711.437 6  -3087035.373 3
  24291536.223    -1858920.983 5  -1448512.388 2
  22830152.312    12657488.361 7   9862959.345 5
 91  5  6 20 13  0.0010000  0  6  2 19 11  6 16 18
  22239445.750    -8328324.503 8  -6489580.574 7
  21521228.162     4020165.139 7   3132592.276 8
  23447246.308    -1048203.490 7   -816772.651 4
  23935504.796    -4000275.470 6  -3117085.081 2
  24297258.358    -1828914.500 6  -1425130.885 2
  22852255.412    12773645.073 7   9953471.319 4
 91  5  6 20 13 30.0010000  0  6  2 19 11  6 16 18
  22233601.899    -8359016.974 8  -6513496.703 7
  21529777.050     4065110.650 7   3167614.716 8
  23454852.046    -1008244.232 7   -785635.613 3
  23928171.272    -4038805.522 6  -3147108.320 1
  24303062.039    -1798388.730 6  -1401344.686 2
  22874416.369    12890102.955 7  10044217.968 5
 91  5  6 20 14  0.0010000  0  6  2 19 11  6 16 18
  22227822.195    -8389400.873 8  -6537172.381 7
  21538372.695     4110278.912 7   3202810.726 8
  23462574.998     -967672.590 7   -754021.379 4
  23920836.248    -4077306.359 6  -3177108.770 4
  24308963.458    -1767348.548 6  -1377157.643 3
  22896628.890    13006855.574 7  10135194.281 6
 91  5  6 20 14 30.0010000  0  6  2 19 11  6 16 18
  22222098.864    -8419473.873 8  -6560605.794 6
  21547011.818     4155672.249 7   3238182.127 8
  23470410.974     -926486.902 7   -721928.654 5
  23913518.019    -4115775.843 6  -3207084.801 4
  24314970.696    -1735793.317 6  -1352569.224 4
  22918906.170    13123903.257 7  10226400.017 5
 91  5  6 20 15  0.0010000  0  6  2 19 11  6 16 18
  22216434.279    -8449238.175 8  -6583798.675 7
  21555692.307     4201288.687 7   3273727.360 7
  23478362.070     -884689.855 7   -689359.569 5
  23906199.180    -4154216.372 6  -3237038.268 3
  24321077.469    -1703725.797 5  -1327581.600 4
  22941234.709    13241241.613 7  10317832.741 6
 91  5  6 20 15 30.0010000  0  6  2 19 11  6 16 18
  22210832.960    -8478695.340 8  -6606752.228 7
  21564415.967     4247127.032 8   3309445.519 7
  23486436.678     -842283.517 7   -656315.705 5
  23898898.340    -4192629.699 6  -3266970.571 4
  24327275.377    -1671148.779 6  -1302197.019 3
  22963618.418    13358866.808 7  10409488.503 5
 91  5  6 20 16  0.0010000  0  6  2 19 11  6 16 18
  22205284.698    -8507838.745 9  -6629461.281 7
  21573183.698     4293194.824 7   3345342.454 8
  23494620.115     -799261.728 7   -622792.257 4
  23891588.801    -4231009.324 6  -3296876.597 4
  24333574.617    -1638056.750 6  -1276411.174 1
  22986059.686    13476783.349 7  10501371.776 5
 91  5  6 20 16 30.0020000  0  6  2 19 11  6 16 18
  22199796.704    -8536672.254 8  -6651928.869 7
  21581991.900     4339490.877 7   3381417.256 7
  23502921.667     -755626.480 7   -588790.798 5
  23884296.647    -4269359.627 6  -3326759.811 3
  24339966.496    -1604452.875 6  -1250226.486 2
  23008555.812    13594990.300 7  10593481.317 5
 91  5  6 20 17  0.0020000  0  6  2 19 11  6 16 18
  22194368.656    -8565193.840 9  -6674153.398 7
  21590838.174     4386012.244 8   3417667.625 6
  23511342.234     -711381.733 7   -554314.406 5
  23877002.997    -4307678.351 6  -3356618.359 2
  24346460.298    -1570341.127 6  -1223646.075 3
  23031101.999    13713476.543 7  10685808.499 5
 91  5  6 20 17 30.0020000  0  6  2 19 11  6 16 18
  22189000.577    -8593400.572 9  -6696132.576 7
  21599736.913     4432764.743 8   3454098.112 8
  23519882.127     -666523.049 7   -519359.618 5
  23869715.943    -4345963.438 6  -3386450.734 3
  24353047.039    -1535717.702 6  -1196666.895 3
  23053702.151    13832247.961 7  10778357.888 5
 91  5  6 20 18  0.0020000  0  6  2 19 11  6 16 18
  22183696.644    -8621288.317 9  -6717863.197 7
  21608680.926     4479753.089 7   3490712.366 7
  23528533.831     -621046.480 7   -483923.369 4
  23862440.275    -4384210.358 6  -3416253.378 2
  24359731.511    -1500579.609 6  -1169286.701 3
  23076361.966    13951307.022 7  10871131.428 5
 91  5  6 20 18 30.0020000  0  6  2 19 11  6 16 18
  22178449.076    -8648856.812 8  -6739345.046 7
  21617666.305     4526978.163 8   3527511.084 8
  23537303.962     -574952.717 7   -448006.161 4
  23855157.715    -4422418.916 6  -3446026.106 2
  24366521.207    -1464927.953 6  -1141506.256 4
  23099067.945    14070652.078 7  10964127.826 5
 91  5  6 20 19  0.0020000  0  6  2 19 11  6 16 18
  22173264.171    -8676104.336 9  -6760576.792 7
  21626701.748     4574442.529 8   3564496.257 7
  23546193.713     -528239.889 7   -411606.569 3
  23847900.344    -4460587.128 6  -3475767.444 3
  24373397.544    -1428761.567 6  -1113324.806 2
  23121832.391    14190282.735 7  11057346.731 4
 91  5  6 20 19 30.0020000  0  6  2 19 11  6 16 18
  22168139.819    -8703037.397 9  -6781563.505 7
  21635776.463     4622139.966 7   3601663.042 6
  23555197.075     -480915.705 7   -374730.595 5
  23840644.465    -4498721.671 6  -3505482.496 3
  24380384.210    -1392088.325 6  -1084748.405 2
  23144648.995    14310190.252 7  11150781.393 5
 91  5  6 20 20  0.0020000  0  6  2 19 11  6 16 18
  22163075.722    -8729652.072 9  -6802302.119 7
  21644899.149     4670074.887 7   3639014.894 7
  23564317.667     -432977.400 7   -337376.112 5
  23833396.386    -4536819.049 6  -3535168.626 4
  24387453.014    -1354906.081 6  -1055775.372 1
  23167520.158    14430376.109 7  11244432.919 4
 91  5  6 20 20 30.0020000  0  6  2 19 11  6 16 18
  22158071.287    -8755944.250 9  -6822789.431 8
  21654067.703     4718251.382 7   3676554.975 7
  23573557.862     -384421.107 7   -299540.062 4
  23826156.395    -4574875.164 6  -3564822.570 4
  24394627.348    -1317212.164 6  -1026403.599 2
  23190448.584    14550841.871 7  11338302.586 4
 91  5  6 20 21  0.0020000  0  6  2 19 11  6 16 18
  22153128.609    -8781919.639 9  -6843029.900 7
  21663279.725     4766664.533 7   3714279.470 7
  23582917.985     -335253.434 7   -261227.608 4
  23818923.899    -4612895.764 6  -3594448.859 3
  24401899.718    -1279013.929 6   -996638.949 3
  23213424.378    14671580.317 7  11432384.714 5
 91  5  6 20 21 30.0020000  0  6  2 19 11  6 16 18
  22148243.194    -8807583.865 9  -6863027.895 8
  21672533.716     4815309.642 7   3752184.711 7
  23592393.828     -285480.484 7   -222443.523 4
  23811693.812    -4650886.188 6  -3624051.611 2
  24409261.118    -1240317.740 6   -966486.210 3
  23236450.839    14792583.394 7  11526673.035 4
 91  5  6 20 22  0.0020000  0  6  2 19 11  6 16 18
  22143419.526    -8832937.443 8  -6882783.829 7
  21681838.974     4864186.883 7   3790270.828 8
  23601976.990     -235103.393 7   -183188.671 4
  23804468.505    -4688847.056 6  -3653631.339 3
  24416719.656    -1201125.620 6   -935947.018 3
  23259524.067    14913848.800 7  11621165.762 4
 91  5  6 20 22 30.0020000  0  6  2 19 11  6 16 18
  22138655.826    -8857976.554 9  -6902294.735 7
  21691185.302     4913300.184 7   3828540.886 7
  23611677.680     -184119.586 7   -143461.030 5
  23797245.913    -4726774.312 6  -3683184.878 3
  24424271.133    -1161435.159 6   -905019.525 3
  23282654.557    15035378.344 7  11715864.316 5
 91  5  6 20 23  0.0020000  0  6  2 19 11  6 16 18
  22133951.780    -8882698.136 9  -6921558.222 8
  21700572.106     4962652.678 7   3866997.336 7
  23621496.778     -132527.003 7   -103259.030 3
  23790035.605    -4764665.297 6  -3712710.170 4
  24431916.439    -1121244.888 6   -873702.547 3
  23305827.914    15157172.659 7  11810769.202 5
 91  5  6 20 23 30.0020000  0  6  2 19 11  6 16 18
  22129306.200    -8907104.685 9  -6940576.215 8
  21710011.976     5012243.109 7   3905639.188 7
  23631426.501      -80328.722 7    -62585.075 5
  23782830.087    -4802522.231 6  -3742208.935 3
  24439660.977    -1080558.443 6   -841998.972 3
  23329057.626    15279227.176 7  11905876.816 5
 91  5  6 20 24  0.0020000  0  6  2 19 11  6 16 18
  22124719.672    -8931197.665 9  -6959349.889 7
  21719495.305     5062070.359 7   3944465.579 6
  23641475.244      -27527.092 7    -21440.987 4
  23775638.067    -4840346.363 6  -3771682.106 4
  24447502.049    -1039379.150 6   -809911.334 2
  23352330.519    15401537.702 7  12001183.892 4
 91  5  6 20 24 30.0020000  0  6  2 19 11  6 16 18
  22120194.909    -8954974.949 9  -6977877.566 7
  21729020.315     5112137.036 7   3983478.531 7
  23651636.410       25879.018 7     20174.141 5
  23768448.150    -4878135.701 6  -3801128.202 4
  24455425.861     -997706.019 5   -777438.884 3
  23375657.665    15524104.289 7  12096690.543 5
 91  5  6 20 25  0.0020000  0  6  2 19 11  6 16 18
  22115731.301    -8978440.436 9  -6996162.277 8
  21738593.583     5162440.383 7   4022675.904 7
  23661915.696       79884.803 7     62256.549 4
  23761263.616    -4915894.044 6  -3830550.129 4
  24463454.305     -955544.245 6   -744585.735 2
  23399027.389    15646921.682 7  12192392.616 5
 91  5  6 20 25 30.0020000  0  6  2 19 11  6 16 18
  22111327.642    -9001592.302 9  -7014202.619 8
  21748211.523     5212981.730 7   4062058.745 7
  23672304.404      134491.095 7    104806.861 5
  23754077.590    -4953619.555 6  -3859946.458 3
  24471562.488     -912894.417 5   -711352.238 3
  23422446.882    15769988.709 7  12288289.192 5
 91  5  6 20 26  0.0020000  0  6  2 19 11  6 16 18
  22106980.060    -9024435.507 9  -7032002.440 7
  21757871.440     5263757.223 7   4101624.029 7
  23682813.929      189692.111 7    147820.621 3
  23746917.050    -4991316.762 6  -3889320.729 4
  24479778.007     -869761.494 6   -677742.328 2
  23445909.232    15893298.772 7  12384375.130 5
 91  5  6 20 26 30.0020000  0  6  2 19 11  6 16 18
  22102690.029    -9046967.166 9  -7049559.496 9
  21767581.413     5314770.445 7   4141374.567 7
  23693431.976      245489.729 7    191299.243 4
  23739744.514    -5028982.690 6  -3918670.663 2
  24488076.859     -826144.616 6   -643755.291 2
  23469425.258    16016852.347 7  12480650.836 4
 91  5  6 20 27  0.0020000  0  6  2 19 11  6 16 18
  22098460.253    -9069185.012 9  -7066872.042 8
  21777333.668     5366024.467 7   4181312.721 8
  23704160.649      301885.296 7    235243.785 4
  23732582.778    -5066614.942 6  -3947994.342 2
  24496468.948     -782043.595 5   -609391.056 2
  23492981.744    16140650.259 7  12577116.926 4
 91  5  6 20 27 30.0020000  0  6  2 19 11  6 16 18
  22094294.938    -9091092.322 9  -7083942.593 8
  21787132.384     5417516.431 7   4221436.294 7
  23715005.645      358874.245 7    279650.754 2
  23725419.534    -5104216.614 6  -3977294.210 3
  24504948.881     -737463.266 5   -574653.312 2
  23516585.903    16264686.582 7  12673768.766 3
 91  5  6 20 28  0.0020000  0  6  2 19 11  6 16 18
  22090185.386    -9112683.711 9  -7100766.977 8
  21796974.865     5469252.282 7   4261749.910 6
  23725966.057      416461.364 7    324523.809 3
  23718269.185    -5141782.076 6  -4006565.871 3
  24513525.340     -692399.478 6   -539538.857 3
  23540234.734    16388964.570 6  12770608.949 4
 91  5  6 20 28 30.0020000  0  6  2 19 11  6 16 18
  22086132.486    -9133960.179 9  -7117345.968 8
  21806870.116     5521231.965 7   4302253.523 7
  23737036.196      474644.879 7    369861.572 5
  23711141.015    -5179311.777 6  -4035809.640 3
  24522192.043     -646853.929 5   -504049.050 3
  23563930.629    16513481.104 6  12867634.990 4
 91  5  6 20 29  0.0020000  0  6  2 19 11  6 16 18
  22082146.149    -9154919.486 9  -7133677.816 8
  21816809.141     5573458.484 7   4342949.485 7
  23748223.548      533425.761 7    415664.806 5
  23703996.966    -5216803.448 6  -4065023.817 3
  24530951.974     -600826.399 6   -468183.600 2
  23587673.291    16638237.107 6  12964847.626 5
 91  5  6 20 29 30.0020000  0  6  2 19 11  6 16 18
  22078219.763    -9175559.234 9  -7149760.667 8
  21826793.422     5625934.619 8   4383839.935 7
  23759523.323      592805.460 7    461934.639 4
  23696867.304    -5254254.442 6  -4094206.271 3
  24539798.554     -554316.448 5   -431942.308 4
  23611453.427    16763232.177 6  13062246.554 3
 91  5  6 20 30  0.0020000  0  6  2 19 11  6 16 18
  22074351.844    -9195879.681 9  -7165594.708 8
  21836824.183     5678660.719 8   4424925.182 6
  23770937.624      652782.344 7    508669.860 2
  23689749.029    -5291665.020 6  -4123357.238 4
  24548748.553     -507325.339 6   -395325.998 2
  23635288.732    16888463.590 6  13159829.632 5
 91  5  6 20 30 30.0020000  0  6  2 19 11  6 16 18
  22070547.181    -9215882.509 9  -7181181.261 8
  21846907.398     5731635.693 7   4466204.346 7
  23782460.744      713353.732 7    555868.318 4
  23682638.850    -5329036.533 6  -4152477.773 3
  24557764.513     -459856.985 5   -358337.908 3
  23659161.807    17013928.149 6  13257594.378 4
 91  5  6 20 31  0.0020000  0  6  2 19 11  6 16 18
  22066803.071    -9235574.384 9  -7196525.500 8
  21857032.887     5784853.351 7   4507672.599 7
  23794101.087      774511.678 7    603523.822 5
  23675532.869    -5366375.261 6  -4181572.748 3
  24566900.688     -411919.814 5   -320984.405 1
  23683080.742    17139616.783 6  13355533.736 3
 91  5  6 20 31 30.0020000  0  6  2 19 11  6 16 18
  22063110.823    -9254955.577 9  -7211627.644 8
  21867206.347     5838314.370 7   4549330.507 7
  23805844.856      836254.674 7    651635.205 4
  23668435.586    -5403681.082 6  -4210642.093 3
  24576114.508     -363515.022 5   -283266.571 1
  23707035.956    17265527.253 6  13453645.938 3
 91  5  6 20 32  0.0020000  0  6  2 19 11  6 16 18
  22059483.037    -9274029.285 9  -7226490.197 8
  21877425.674     5892016.605 7   4591176.352 7
  23817709.739      898578.928 7    700199.525 5
  23661338.897    -5440956.847 6  -4239688.005 3
  24585409.575     -314647.711 5   -245187.920 1
  23731039.446    17391654.257 6  13551926.867 5
 91  5  6 20 32 30.0020000  0  6  2 19 11  6 16 18
  22055911.012    -9292797.441 9  -7241114.646 8
  21887693.269     5945958.255 7   4633208.773 7
  23829676.854      961480.759 7    749213.894 5
  23654255.696    -5478204.133 6  -4268711.727 2
  24594804.171     -265321.535 6   -206752.103 2
  23755084.895    17517993.698 6  13650373.349 4
 91  5  6 20 33  0.0020000  0  6  2 19 11  6 16 18
  22052396.547    -9311263.030 9  -7255503.332 8
  21898004.629     6000137.222 7   4675426.113 7
  23841757.893     1024956.539 7    798675.520 4
  23647171.606    -5515425.554 6  -4297715.277 5
  24604264.719     -215540.869 5   -167961.715 4
  23779163.029    17644540.590 6  13748981.446 3
 91  5  6 20 33 30.0020000  0  6  2 19 11  6 16 18
  22048940.837    -9329424.095 9  -7269654.744 8
  21908356.464     6054556.180 7   4717830.458 7
  23853946.853     1089006.984 7    848584.921 4
  23640093.501    -5552618.940 6  -4326697.012 4
  24613828.101     -165305.859 5   -128817.671 3
  23803284.028    17771295.058 6  13847751.302 3
 91  5  6 20 34  0.0020000  0  6  2 19 11  6 16 18
  22045542.389    -9347282.673 9  -7283570.440 9
  21918758.958     6109213.845 7   4760420.815 7
  23866247.040     1153628.726 7    898939.482 3
  23633018.703    -5589785.716 6  -4355658.001 4
  24623474.224     -114619.767 5    -89322.241 4
  23827442.808    17898252.733 6  13946679.517 4
 91  5  6 20 34 30.0020000  0  6  2 19 11  6 16 18
  22042201.205    -9364842.152 9  -7297253.062 8
  21929203.131     6164107.688 7   4803195.187 7
  23878650.952     1218817.139 7    949735.628 2
  23625951.094    -5626928.738 6  -4384600.502 3
  24633212.684      -63487.674 5    -49479.232 2
  23851641.452    18025408.067 6  14045761.738 4
 91  5  6 20 35  0.0020000  0  6  2 19 11  6 16 18
  22038915.180    -9382099.420 9  -7310700.211 8
  21939697.064     6219241.433 7   4846156.503 7
  23891165.192     1284573.970 7   1000974.708 4
  23618893.676    -5664044.837 6  -4413522.025 4
  24643025.788      -11908.225 5     -9287.637 2
  23875876.376    18152762.338 6  14144998.993 4
 91  5  6 20 35 30.0020000  0  6  2 19 11  6 16 18
  22035688.208    -9399053.165 9  -7323910.818 8
  21950235.669     6274616.953 7   4889306.232 7
  23903781.952     1350899.308 7   1052656.780 3
  23611832.367    -5701131.938 6  -4442420.957 3
  24652920.437       40118.009 5     31252.053 2
  23900156.565    18280314.588 6  14244390.502 4
 91  5  6 20 36  0.0020000  0  6  2 19 11  6 16 18
  22032522.398    -9415701.186 9  -7336883.241 8
  21960818.938     6330237.134 7   4932646.583 7
  23916510.543     1417794.296 7   1104782.713 4
  23604777.349    -5738187.604 6  -4471295.387 4
  24662909.823       92591.627 5     72140.393 2
  23924457.442    18408065.096 6  14343936.479 3
 91  5  6 20 36 30.0020000  0  6  2 19 11  6 16 18
  22029409.358    -9432045.576 9  -7349619.053 9
  21971449.881     6386100.740 7   4976176.633 7
  23929349.156     1485255.296 6   1157349.701 2
  23597733.725    -5775213.351 7  -4500146.502 4
  24672977.455      145508.771 5    113374.780 2
  23948814.377    18536009.506 6  14443633.565 5
 91  5  6 20 37  0.0020000  0  6  2 19 11  6 16 18
  22026360.168    -9448083.786 9  -7362116.278 9
  21982126.989     6442211.056 7   5019898.921 7
  23942293.292     1553283.660 6   1210358.801 5
  23590696.402    -5812206.334 6  -4528972.091 4
  24683130.228      198870.062 5    154954.847 2
  23973193.204    18664148.298 6  14543482.133 4
 91  5  6 20 37 30.0020000  0  6  2 19 11  6 16 18
  22023363.442    -9463812.816 9  -7374372.578 9
  21992848.769     6498571.700 7   5063816.267 7
  23955349.257     1621881.068 7   1263811.287 2
  23583663.868    -5849162.703 6  -4557769.158 4
  24693364.841      252677.699 5    196883.111 2
  23997611.895    18792482.817 6  14643483.190 4
 91  5  6 20 38  0.0020000  0  6  2 19 11  6 16 18
  22020432.372    -9479230.748 9  -7386386.475 9
  22003628.109     6555185.294 7   5107930.730 6
  23968509.844     1691048.262 7   1317707.765 5
  23576632.835    -5886080.145 6  -4586535.911 5
  24703699.585      306931.042 5    239158.278 1
  24022061.771    18921012.647 6  14743636.459 3
 91  5  6 20 38 30.0020000  0  6  2 19 11  6 16 18
  22017557.065    -9494339.077 9  -7398159.116 8
  22014446.119     6612051.019 7   5152241.647 6
  23981780.159     1760782.133 7   1372045.799 5
  23569617.097    -5922959.688 6  -4615273.100 5
  24714106.284      361626.864 5    281778.219 2
  24046562.007    19049734.177 6  14843939.075 3
 91  5  6 20 39  0.0020000  0  6  2 19 11  6 16 18
  22014741.115    -9509134.521 9  -7409687.948 9
  22025317.491     6669173.056 7   5196752.303 6
  23995158.700     1831084.424 7   1426826.780 4
  23562608.243    -5959797.579 6  -4643977.851 5
  24724598.419      416766.406 5    324744.299 3
  24071093.131    19178648.489 6  14944391.924 4
 91  5  6 20 39 30.0020000  0  6  2 19 11  6 16 18
  22011985.123    -9523618.951 9  -7420974.441 9
  22036232.332     6726550.327 7   5241461.825 7
  24008644.263     1901952.286 7   1482048.455 3
  23555609.292    -5996594.921 6  -4672651.015 4
  24735164.901      472346.283 4    368053.110 2
  24095662.618    19307752.330 6  15044992.447 2
 91  5  6 20 40  0.0020000  0  6  2 19 11  6 16 18
  22009287.887    -9537795.052 9  -7432020.683 8
  22047201.137     6784181.451 7   5286369.159 6
  24022237.154     1973381.566 7   1537707.585 5
  23548607.637    -6033353.697 6  -4701294.105 6
  24745830.614      528361.918 5    411701.902 2
  24120271.081    19437040.563 6  15145736.644 4
 91  5  6 20 40 30.0020000  0  6  2 19 11  6 16 18
  22006646.718    -9551668.386 9  -7442830.999 9
  22058211.317     6842061.391 7   5331470.376 6
  24035935.872     2045365.240 7   1593798.723 4
  23541619.479    -6070078.810 6  -4729910.949 4
  24756573.980      584806.243 5    455684.759 2
  24144909.829    19566505.726 6  15246618.746 3
 91  5  6 20 41  0.0020000  0  6  2 19 11  6 16 18
  22004064.600    -9565243.681 9  -7453409.094 9
  22069279.955     6900186.217 7   5376762.420 6
  24049740.111     2117897.410 6   1650317.275 2
  23534639.409    -6106774.336 6  -4758504.740 4
  24767395.593      641673.261 5    499996.985 1
  24169574.656    19696141.011 6  15347633.361 2
 91  5  6 20 41 30.0020000  0  6  2 19 11  6 16 18
  22001537.652    -9578517.936 9  -7463752.609 9
  22080386.967     6958559.672 7   5422248.189 7
  24063641.190     2190979.563 6   1707264.367 4
  23527665.334    -6143436.852 6  -4787072.826 3
  24778302.337      698963.681 5    544638.722 1
  24194276.949    19825947.553 6  15448781.454 3
 91  5  6 20 42  0.0020000  0  6  2 19 11  6 16 18
  21999070.662    -9591488.009 9  -7473859.104 9
  22091538.947     7017185.064 7   5467930.274 7
  24077653.191     2264613.083 6   1764641.112 3
  23520695.464    -6180062.646 7  -4815612.282 5
  24789282.241      756678.559 5    589611.493 2
  24219009.229    19955926.231 6  15550063.667 3
 91  5  6 20 42 30.0020000  0  6  2 19 11  6 16 18
  21996660.630    -9604155.697 9  -7483729.965 8
  22102742.493     7076061.724 7   5513808.154 6
  24091773.715     2338794.581 7   1822444.819 4
  23513731.885    -6216652.875 6  -4844124.007 5
  24800342.782      814814.223 5    634911.826 2
  24243782.876    20086072.749 6  15651476.631 4
 91  5  6 20 43  0.0020000  0  6  2 19 11  6 16 18
  21994307.555    -9616522.986 9  -7493366.761 9
  22113993.704     7135188.201 7   5559880.704 6
  24105993.767     2413520.420 7   1880672.700 4
  23506768.306    -6253208.794 6  -4872609.032 5
  24811484.868      873366.925 5    680537.515 2
  24268576.913    20216384.016 6  15753018.023 4
 91  5  6 20 43 30.0020000  0  6  2 19 11  6 16 18
  21992008.751    -9628589.131 9  -7502768.892 9
  22125294.674     7194566.741 7   5606149.659 7
  24120315.457     2488790.424 7   1939324.632 5
  23499830.509    -6289728.820 7  -4901066.074 5
  24822709.092      932335.974 5    726487.201 2
  24293406.627    20346858.371 6  15854686.448 3
 91  5  6 20 44  0.0020000  0  6  2 19 11  6 16 18
  21989767.201    -9640355.067 9  -7511937.093 9
  22136643.022     7254197.051 7   5652614.792 6
  24134740.270     2564601.918 7   1998398.481 5
  23492887.608    -6326213.268 6  -4929495.400 6
  24834009.469      991718.145 5    772759.233 2
  24318261.522    20477493.013 6  15956479.805 2
 91  5  6 20 44 30.0020000  0  6  2 19 11  6 16 18
  21987588.611    -9651818.725 9  -7520869.763 9
  22148034.838     7314081.740 7   5699278.136 6
  24149272.706     2640955.616 7   2057894.831 5
  23485945.920    -6362659.467 6  -4957894.921 5
  24845398.886     1051513.743 5    819352.994 5
  24343151.789    20608287.749 6  16058397.872 2
 91  5  6 20 45  0.0020000  0  6  2 19 11  6 16 18
  21985467.580    -9662981.321 9  -7529567.833 9
  22159487.809     7374220.491 7   5746139.445 6
  24163902.279     2717848.544 6   2117811.327 5
  23479023.707    -6399067.613 7  -4986264.782 5
  24856850.365     1111719.172 6    866266.559 3
  24368072.933    20739239.938 6  16160438.645 4
 91  5  6 20 45 30.0020000  0  6  2 19 11  6 16 18
  21983401.108    -9673830.854 9  -7538021.963 8
  22170976.753     7434626.289 7   5793208.856 7
  24178640.079     2795291.540 6   2178156.461 4
  23472098.806    -6435424.938 7  -5014595.039 4
  24868381.879     1172345.141 5    913507.794 2
  24393028.559    20870359.522 6  16262609.857 3
 91  5  6 20 46  0.0020000  0  6  2 19 11  6 16 18
  21981390.703    -9684387.061 9  -7546247.516 9
  22182518.763     7495280.198 7   5840471.596 7
  24193476.202     2873263.093 6   2238913.487 2
  23465187.386    -6471750.634 7  -5042900.659 4
  24879993.742     1233369.788 5    961059.274 2
  24418002.168    21001624.056 6  16364894.011 4
 91  5  6 20 46 30.0020000  0  6  2 19 11  6 16 18
  21979437.256    -9694646.918 9  -7554242.165 9
  22194106.039     7556185.571 7   5887930.284 7
  24208417.558     2951764.489 6   2300083.348 4
  23458282.570    -6508040.885 7  -5071178.649 4
  24891681.750     1294794.155 5   1008922.670 3
  24443009.054    21133035.083 6  16467292.305 2
 91  5  6 20 47  0.0020000  0  6  2 19 11  6 16 18
  21977543.166    -9704614.289 9  -7562008.897 9
  22205744.279     7617339.376 7   5935582.556 6
  24223458.450     3030790.149 7   2361661.755 4
  23451384.944    -6544298.669 7  -5099431.367 4
  24903448.004     1356612.227 5   1057092.800 2
  24468047.726    21264586.403 6  16569799.914 4
 91  5  6 20 47 30.0020000  0  6  2 19 11  6 16 18
  21975699.742    -9714287.007 9  -7569546.032 9
  22217434.093     7678744.536 7   5983430.674 6
  24238590.773     3110340.707 7   2423649.124 4
  23444486.123    -6580521.016 7  -5127656.439 4
  24915283.510     1418824.687 5   1105569.844 2
  24493104.075    21396278.510 6  16672417.255 3
 91  5  6 20 48  0.0020000  0  6  2 19 11  6 16 18
  21973916.278    -9723672.621 9  -7576859.438 9
  22229159.574     7740395.433 7   6031470.297 6
  24253830.424     3190407.207 7   2486038.554 3
  23437596.890    -6616714.382 6  -5155858.961 5
  24927198.161     1481422.001 5   1154347.118 2
  24518191.913    21528101.882 6  16775136.831 5
 91  5  6 20 48 30.0020000  0  6  2 19 11  6 16 18
  21972183.777    -9732767.397 9  -7583946.225 9
  22240938.122     7802296.054 7   6079704.495 6
  24269165.108     3270992.036 7   2548831.893 2
  23430725.343    -6652874.012 7  -5184035.199 5
  24939180.562     1544406.320 5   1203426.065 2
  24543308.220    21660058.567 6  16877960.321 2
 91  5  6 20 49  0.0020000  0  6  2 19 11  6 16 18
  21970510.030    -9741571.335 9  -7590806.383 9
  22252770.330     7864446.647 7   6128133.476 7
  24284596.920     3352093.018 7   2612027.423 2
  23423837.917    -6688999.653 7  -5212184.933 5
  24951238.217     1607775.195 5   1252804.657 2
  24568430.828    21792145.594 6  16980885.350 3
 91  5  6 20 49 30.0020000  0  6  2 19 11  6 16 18
  21968891.453    -9750077.743 9  -7597434.694 9
  22264645.404     7926855.031 7   6176763.344 6
  24300128.573     3433715.356 7   2675629.204 3
  23416975.968    -6725083.569 7  -5240302.177 5
  24963375.018     1671533.646 5   1302486.799 2
  24593593.012    21924368.720 6  17083916.486 3
 91  5  6 20 50  0.0020000  0  6  2 19 11  6 16 18
  21967328.035    -9758287.455 9  -7603831.821 9
  22276569.356     7989521.689 7   6225594.445 6
  24315763.951     3515856.840 7   2739635.494 4
  23410122.412    -6761125.155 7  -5268386.431 6
  24975585.259     1735678.736 5   1352470.230 3
  24618787.872    22056725.482 6  17187051.683 3
 91  5  6 20 50 30.0030000  0  6  2 19 11  6 16 18
  21965821.579    -9766204.115 9  -7610000.592 9
  22288546.656     8052445.927 7   6274626.261 6
  24331491.958     3598514.888 6   2804044.346 3
  23403265.553    -6797128.541 7  -5296440.908 5
  24987857.869     1800207.098 5   1402752.201 2
  24643996.818    22189214.605 6  17290290.036 2
 91  5  6 20 51  0.0030000  0  6  2 19 11  6 16 18
  21964370.881    -9773829.243 9  -7615942.188 9
  22300563.844     8115621.780 7   6323854.148 6
  24347315.902     3681680.221 6   2868848.480 3
  23396427.589    -6833092.457 7  -5324464.625 4
  25000212.309     1865110.417 5   1453325.988 1
  24669234.247    22321822.516 6  17393620.948 2
 91  5  6 20 51 30.0030000  0  6  2 19 11  6 16 18
  21962974.148    -9781162.206 9  -7621656.126 9
  22312636.184     8179052.918 7   6373280.957 6
  24363239.680     3765354.476 6   2934049.138 2
  23389589.023    -6869016.397 7  -5352457.205 5
  25012634.212     1930389.586 5   1504193.016 2
  24694490.558    22454552.634 6  17497047.116 4
 91  5  6 20 52  0.0030000  0  6  2 19 11  6 16 18
  21961632.881    -9788205.198 9  -7627144.132 9
  22324757.088     8242739.103 7   6422906.511 6
  24379254.591     3849533.990 6   2999643.496 4
  23382758.851    -6904901.295 7  -5380419.358 5
  25025127.765     1996041.076 5   1555349.822 2
  24719771.456    22587401.197 6  17600565.538 2
 91  5  6 20 52 30.0030000  0  6  2 19 11  6 16 18
  21960350.962    -9794954.811 9  -7632403.515 9
  22336923.868     8306684.067 7   6472733.709 6
  24395369.937     3934220.147 6   3065632.687 5
  23375935.580    -6940742.957 7  -5408347.809 4
  25037695.368     2062065.310 5   1606797.417 3
  24745075.441    22720369.613 6  17704177.366 2
 91  5  6 20 53  0.0030000  0  6  2 19 11  6 16 18
  21959121.219    -9801413.127 9  -7637435.923 9
  22349140.111     8370886.786 7   6522761.738 6
  24411582.114     4019409.440 7   3132013.907 3
  23369123.696    -6976542.201 7  -5436243.209 4
  25050325.618     2128458.772 5   1658532.827 2
  24770400.410    22853454.336 6  17807879.794 4
 91  5  6 20 53 30.0030000  0  6  2 19 11  6 16 18
  21957947.831    -9807577.772 9  -7642239.486 9
  22361411.515     8435350.317 7   6572993.016 6
  24427894.420     4105102.688 7   3198787.857 3
  23362327.997    -7012295.767 7  -5464103.023 5
  25063028.425     2195221.956 5   1710556.316 4
  24795746.965    22986655.715 5  17911673.175 3
 91  5  6 20 54  0.0030000  0  6  2 19 11  6 16 18
  21956830.799    -9813452.034 9  -7646816.781 9
  22373730.286     8500072.340 7   6623425.705 6
  24444294.571     4191295.135 7   3265950.764 4
  23355528.406    -7048005.748 7  -5491928.856 4
  25075805.579     2262349.049 5   1762863.273 2
  24821115.097    23119968.762 5  18015553.513 1
 91  5  6 20 54 30.0030000  0  6  2 19 11  6 16 18
  21955767.138    -9819037.653 9  -7651169.156 9
  22386091.628     8565051.802 7   6674058.995 6
  24460789.145     4277982.831 7   3333499.552 4
  23348738.404    -7083672.887 7  -5519721.305 5
  25088648.093     2329836.428 5   1815450.614 2
  24846509.622    23253389.567 6  18119517.866 3
 91  5  6 20 55  0.0030000  0  6  2 19 11  6 16 18
  21954759.537    -9824331.447 9  -7655294.130 9
  22398507.537     8630292.716 7   6724896.029 6
  24477381.161     4365167.147 6   3401435.349 3
  23341962.197    -7119293.051 7  -5547477.142 5
  25101557.755     2397685.459 5   1868320.178 2
  24871908.632    23386919.034 5  18223566.847 3
 91  5  6 20 55 30.0030000  0  6  2 19 11  6 16 18
  21953805.900    -9829335.692 9  -7659193.492 9
  22410967.210     8695793.344 7   6775935.427 6
  24494066.109     4452844.131 6   3469755.035 4
  23335189.584    -7154867.625 7  -5575197.479 5
  25114538.170     2465892.239 5   1921468.521 3
  24897345.727    23520553.376 6  18327697.597 4
 91  5  6 20 56  0.0030000  0  6  2 19 11  6 16 18
  21952910.416    -9834054.980 9  -7662870.805 9
  22423486.241     8761550.438 7   6827174.670 6
  24510842.198     4541007.352 6   3538453.582 5
  23328421.770    -7190399.904 7  -5602884.846 5
  25127590.235     2534449.590 5   1974890.049 3
  24922794.505    23654285.956 6  18431904.846 3
 91  5  6 20 56 30.0030000  0  6  2 19 11  6 16 18
  21952069.202    -9838485.094 9  -7666322.790 9
  22436048.146     8827568.809 7   6878617.507 5
  24527708.820     4629658.989 6   3607532.712 5
  23321675.542    -7225884.574 7  -5630535.118 5
  25140690.558     2603359.632 5   2028586.351 2
  24948255.882    23788119.094 5  18536190.468 2
 91  5  6 20 57  0.0030000  0  6  2 19 11  6 16 18
  21951276.848    -9842627.109 9  -7669550.285 9
  22448656.217     8893848.294 7   6930263.806 6
  24544673.180     4718795.703 6   3676989.823 5
  23314939.199    -7261321.791 7  -5658148.409 5
  25153878.132     2672619.189 5   2082555.060 2
  24973749.036    23922049.742 5  18640552.077 2
 91  5  6 20 57 30.0030000  0  6  2 19 11  6 16 18
  21950544.157    -9846481.696 9  -7672553.812 9
  22461322.152     8960389.310 7   6982113.888 6
  24561732.268     4808415.816 6   3746823.581 5
  23308196.575    -7296710.661 7  -5685724.049 6
  25167120.562     2742226.030 5   2136794.310 2
  24999255.077    24056075.794 6  18744987.987 3
 91  5  6 20 58  0.0030000  0  6  2 19 11  6 16 18
  21949865.126    -9850044.895 9  -7675330.281 9
  22474035.447     9027196.475 7   7034171.374 6
  24578879.794     4898521.549 6   3817035.771 4
  23301474.027    -7332046.133 7  -5713258.071 5
  25180440.348     2812181.547 5   2191304.875 2
  25024781.806    24190199.405 6  18849499.965 2
 91  5  6 20 58 30.0030000  0  6  2 19 11  6 16 18
  21949246.952    -9853313.337 9  -7677877.063 9
  22486799.409     9094273.593 7   7086439.190 6
  24596118.760     4989113.637 6   3887626.961 4
  23294759.270    -7367324.274 7  -5740747.420 5
  25193814.683     2882486.225 5   2246087.924 1
  25050321.726    24324421.082 5  18954088.322 2
 91  5  6 20 59  0.0030000  0  6  2 19 11  6 16 18
  21948678.843    -9856289.741 9  -7680196.298 9
  22499614.944     9161619.482 7   7138916.436 6
  24613444.671     5080188.127 6   3958594.056 4
  23288061.013    -7402546.065 7  -5768192.859 6
  25207261.873     2953136.034 5   2301139.977 3
  25075872.736    24458737.064 5  19058750.220 3
 91  5  6 20 59 30.0030000  0  6  2 19 11  6 16 18
  21948167.996    -9858977.489 9  -7682290.597 9
  22512482.334     9229231.093 7   7191600.752 6
  24630863.504     5171739.526 7   4029932.734 4
  23281370.538    -7437713.948 7  -5795596.288 5
  25220772.626     3024125.906 5   2356456.912 1
  25101453.429    24593141.960 5  19163481.342 2
 91  5  6 21  0  0.0030000  0  6  2 19 11  6 16 18
  21947708.715    -9861379.549 9  -7684162.287 9
  22525400.992     9297106.641 7   7244490.720 5
  24648377.983     5263762.881 7   4101639.172 5
  23274688.466    -7472829.593 7  -5822959.028 6
  25234343.625     3095450.320 5   2412034.625 1
  25127043.711    24727630.665 5  19268277.812 2
 91  5  6 21  0 30.0030000  0  6  2 19 11  6 16 18
  21947306.392    -9863503.361 9  -7685817.156 9
  22538361.321     9365239.440 7   7297581.144 6
  24665976.396     5356248.956 7   4173706.180 4
  23268008.191    -7507899.020 7  -5850285.744 6
  25247978.187     3167099.934 5   2467865.625 4
  25152666.974    24862194.172 6  19373132.532 3
 91  5  6 21  1  0.0030000  0  6  2 19 11  6 16 18
  21946952.937    -9865349.653 9  -7687255.779 9
  22551373.512     9433629.545 7   7350872.069 6
  24683664.757     5449195.008 7   4246131.634 3
  23261345.602    -7542922.045 7  -5877576.308 5
  25261666.112     3239071.785 5   2523947.335 1
  25178265.047    24996829.607 5  19478043.316 3
 91  5  6 21  1 30.0030000  0  6  2 19 11  6 16 18
  21946654.050    -9866914.903 9  -7688475.409 9
  22564436.666     9502281.149 7   7404366.751 7
  24701442.446     5542602.647 6   4318916.750 2
  23254690.813    -7577893.938 7  -5904827.026 5
  25275432.283     3311366.961 5   2580281.382 2
  25203910.193    25131539.180 5  19583011.899 3
 91  5  6 21  2  0.0030000  0  6  2 19 11  6 16 18
  21946412.417    -9868196.488 9  -7689473.994 9
  22577550.784     9571198.542 7   7458068.536 6
  24719301.086     5636472.748 6   4392062.242 4
  23248043.816    -7612810.317 7  -5932034.502 6
  25289248.816     3383986.390 4   2636867.706 2
  25229567.038    25266323.663 6  19688038.776 2
 91  5  6 21  2 30.0030000  0  6  2 19 11  6 16 18
  21946224.147    -9869192.999 9  -7690250.450 9
  22590719.774     9640383.825 7   7511979.077 6
  24737257.753     5730804.842 6   4465567.704 4
  23241411.503    -7647668.647 7  -5959196.730 5
  25303125.613     3456929.789 5   2693706.873 2
  25255215.177    25401182.200 5  19793123.443 1
 91  5  6 21  3  0.0030000  0  6  2 19 11  6 16 18
  21946086.840    -9869904.201 9  -7690804.584 9
  22603940.914     9709837.411 7   7566098.696 5
  24755293.870     5825596.758 6   4539431.445 4
  23234791.789    -7682467.546 7  -5986312.649 6
  25317073.153     3530194.086 5   2750796.049
  25280889.708    25536112.932 5  19898264.316 3
 91  5  6 21  3 30.0030000  0  6  2 19 11  6 16 18
  21946003.201    -9870334.802 9  -7691140.065 9
  22617206.133     9779555.506 7   7620424.406 6
  24773423.215     5920841.733 6   4613648.264 4
  23228182.266    -7717210.537 7  -6013385.017 6
  25331065.366     3603772.964 4   2808130.009 2
  25306586.113    25671110.375 5  20003457.197 2
 91  5  6 21  4  0.0030000  0  6  2 19 11  6 16 18
  21945977.418    -9870491.929 9  -7691262.448 9
  22630520.519     9849531.831 7   7674951.351 6
  24791626.017     6016530.909 6   4688211.237 2
  23221579.339    -7751903.356 7  -6040418.270 6
  25345131.629     3677657.002 5   2865702.067 3
  25332294.516    25806164.848 5  20108694.493 2
 91  5  6 21  4 30.0030000  0  6  2 19 11  6 16 18
  21945993.908    -9870382.023 9  -7691176.761 9
  22643884.663     9919760.943 7   7729675.260 6
  24809918.147     6112656.071 6   4763113.896 4
  23214988.401    -7786551.147 7  -6067416.439 6
  25359252.755     3751837.496 5   2923504.823 2
  25357994.525    25941268.041 5  20213969.831 2
 91  5  6 21  5  0.0030000  0  6  2 19 11  6 16 18
  21946070.349    -9870009.041 9  -7690886.072 9
  22657295.278     9990239.689 7   7784593.695 5
  24828291.830     6209211.019 6   4838351.445 4
  23208400.760    -7821156.637 7  -6094381.633 5
  25373422.445     3826308.535 5   2981534.313 3
  25383703.529    26076414.424 5  20319278.713 3
 91  5  6 21  5 30.0030000  0  6  2 19 11  6 16 18
  21946187.274    -9869376.385 9  -7690393.037 9
  22670752.066    10060965.329 7   7839704.500 5
  24846747.058     6306190.668 6   4913919.927 4
  23201820.911    -7855721.721 7  -6121315.367 6
  25387650.297     3901064.332 4   3039785.760 3
  25409441.309    26211598.293 5  20424616.927 2
 91  5  6 21  6  0.0030000  0  6  2 19 11  6 16 18
  21946360.555    -9868477.859 9  -7689692.842 9
  22684262.216    10131944.755 7   7895013.080 5
  24865285.323     6403599.186 6   4989822.626 4
  23195249.159    -7890238.674 7  -6148211.590 6
  25401925.212     3976109.301 5   3098262.105 3
  25435192.587    26346824.608 5  20529988.121 2
 91  5  6 21  6 30.0030000  0  6  2 19 11  6 16 18
  21946578.796    -9867309.048 9  -7688782.035 9
  22697820.625    10203183.595 7   7950523.784 5
  24883897.935     6501439.083 6   5066061.467 4
  23188694.500    -7924701.456 7  -6175065.597 6
  25416254.991     4051445.645 3   3156965.875 2
  25460919.268    26482096.040 5  20635394.550 3
 91  5  6 21  7  0.0030000  0  6  2 19 11  6 16 18
  21946851.613    -9865877.447 9  -7687666.461 9
  22711422.511    10274674.945 7   8006231.252 5
  24902596.890     6599700.379 6   5142628.643 4
  23182149.735    -7959116.593 7  -6201882.474 6
  25430660.320       12617.61715      9827.138 2
  25486661.550    26617403.269 5  20740828.842 1
 91  5  6 21  7 30.0030000  0  6  2 19 11  6 16 18
  21947174.189    -9864183.397 9  -7686346.385 9
  22725074.759    10346419.310 7   8062135.875 4
  24921377.391     6698380.743 6   5219522.397 2
  23175604.062    -7993482.992 7  -6228661.375 6
  25445109.118       88514.221 4     68967.521 2
  25512422.713    26752743.556 5  20846288.923 1
 91  5  6 21  8  0.0030000  0  6  2 19 11  6 16 18
  21947548.025    -9862222.926 9  -7684818.708 9
  22738779.174    10418421.324 7   8118241.265 5
  24940240.029     6797481.809 6   5296743.955 4
  23169073.082    -8027795.451 7  -6255398.241 6
  25459598.383      164691.274 5    128326.191 1
  25538182.384    26888119.387 5  20951776.655 3
 91  5  6 21  8 30.0030000  0  6  2 19 11  6 16 18
  21947972.833    -9860000.464 9  -7683086.879 9
  22752531.551    10490677.675 7   8174544.850 5
  24959174.021     6896997.718 6   5374288.793 4
  23162554.998    -8062056.499 7  -6282095.047 6
  25474148.514      241143.027 4    187898.933 2
  25563950.746    27023524.733 5  21057287.463 3
 91  5  6 21  9  0.0030000  0  6  2 19 11  6 16 18
  21948443.509    -9857522.152 9  -7681155.679 9
  22766323.505    10563183.873 7   8231043.109 5
  24978180.868     6996920.623 6   5452150.743 4
  23156044.706    -8096270.505 7  -6308755.210 6
  25488742.707      317861.022 5    247679.250 2
  25589720.608    27158952.193 5  21162815.486 2
 91  5  6 21  9 30.0030000  0  6  2 19 11  6 16 18
  21948963.944    -9854781.862 9  -7679020.360 9
  22780168.220    10635946.200 7   8287740.945 4
  24997275.847     7097254.411 6   5530332.849 3
  23149546.105    -8130430.275 7  -6335373.091 6
  25503387.270      394848.126 5    307668.968 1
  25615495.862    27294405.453 5  21268363.575 1
 91  5  6 21 10  0.0030000  0  6  2 19 11  6 16 18
  21949538.946    -9851775.362 9  -7676677.581 9
  22794064.195    10708969.465 7   8344642.125 5
  25016456.272     7198000.837 6   5608836.495 4
  23143056.492    -8164530.376 7  -6361944.491 6
  25518090.291      472106.956 4    367870.882 2
  25641276.814    27429886.771 5  21373933.511 2
 91  5  6 21 10 30.0030000  0  6  2 19 11  6 16 18
  21950161.919    -9848499.850 9  -7674125.196 9
  22808012.939    10782257.054 7   8401749.258 5
  25035695.451     7299160.563 6   5687662.189 4
  23136581.876    -8198566.280 7  -6388465.861 6
  25532846.675      549638.352 5    428284.968 2
  25667057.469    27565397.623 5  21479526.470 3
 91  5  6 21 11  0.0030000  0  6  2 19 11  6 16 18
  21950834.651    -9844951.521 9  -7671360.224 9
  22822005.457    10855813.914 7   8459066.220 5
  25055021.270     7400735.663 6   5766811.611 3
  23130118.953    -8232532.539 7  -6414932.973 6
  25547650.733      627443.619 4    488912.311 1
  25692854.911    27700939.924 5  21585143.991 2
 91  5  6 21 11 30.0030000  0  6  2 19 11  6 16 18
  21951562.552    -9841132.335 9  -7668384.187 9
  22836057.027    10929638.807 7   8516592.030 5
  25074435.833     7502721.628 6   5846281.124 2
  23123666.516    -8266429.801 7  -6441346.310 7
  25562512.045      705519.258 5    549750.488 1
  25718664.036    27836509.999 5  21690783.125 2
 91  5  6 21 12  0.0030000  0  6  2 19 11  6 16 18
  21952340.509    -9837038.484 9  -7665194.125 9
  22850159.264    11003736.333 7   8574330.276 5
  25093926.234     7605120.382 6   5926072.312 3
  23117236.574    -8300252.704 7  -6467701.703 6
  25577426.118      783865.519 6    610799.710 2
  25744459.681    27972109.426 5  21796445.166 2
 91  5  6 21 12 30.0030000  0  5  2 19 11  6 18
  21953172.134    -9832665.358 9  -7661786.446 9
  22864316.363    11078111.938 7   8632285.220 5
  25113493.992     7707934.731 6   6006187.314 3
  23110810.217    -8333994.671 7  -6493994.040 6
  25770267.916    28107741.975 5  21902133.025 3
 91  5  6 21 13  0.0030000  0  6  2 19 11  6 16 18
  21954054.426    -9828016.668 9  -7658164.038 9
  22878519.628    11152762.660 7   8690454.531 5
  25133131.891     7811158.778 6   6086621.571 2
  23104400.953    -8367658.257 7  -6520225.301 6
  25607396.972       44731.63715     34851.379 1
  25796084.239    28243402.248 5  22007842.466 1
 91  5  6 21 13 30.0030000  0  6  2 19 11  6 16 18
  21954995.472    -9823091.646 9  -7654326.308 9
  22892774.763    11227690.227 7   8748839.574 5
  25152851.344     7914791.235 6   6167374.118 3
  23098013.876    -8401241.142 7  -6546393.661 6
  25622463.935      123885.159 5     96529.662 2
  25821902.369    28379088.472 5  22113572.150 3
 91  5  6 21 14  0.0030000  0  6  2 19 11  6 16 18
  21955985.388    -9817886.772 9  -7650270.524 9
  22907089.552    11302898.380 7   8807443.254 6
  25172652.036     8018832.798 6   6248445.421 4
  23091639.992    -8434738.195 7  -6572495.164 6
  25637572.281      203306.030 6    158416.094 2
  25847724.695    28514802.617 5  22219323.580 2
 91  5  6 21 14 30.0030000  0  7  2 19 15 11  6 16 18
  21957029.862    -9812400.328 9  -7645995.321 9
  22921449.607    11378390.390 7   8866268.101 5
  25786194.389      -38117.549 5    -29702.099 2
  25192526.473     8123283.752 6   6329835.712 3
  23085279.894    -8468145.644 7  -6598526.836 7
  25652734.880      282994.017 4    220510.869 1
  25873567.699    28650544.832 5  22325096.935 3
 91  5  6 21 15  0.0030000  0  7  2 19 15 11  6 16 18
  21958125.605    -9806635.729 9  -7641503.379 9
  22935872.622    11454163.452 7   8925311.970 5
  25778724.763      -77330.561 5    -60257.897 3
  25212482.158     8228138.654 6   6411540.771 3
  23078936.888    -8501465.341 7  -6624490.127 6
  25667947.849      362943.631 5    282809.439 2
  25899409.509    28786310.310 5  22430888.378 2
 91  5  6 21 15 30.0030000  0  7  2 19 15 11  6 16 18
  21959276.805    -9800598.895 9  -7636799.303 9
  22950344.803    11530211.855 7   8984570.387 5
  25771302.199     -116324.206 5    -90642.697 1
  25232506.798     8333389.060 6   6493554.025 4
  23072617.859    -8534702.059 7  -6650388.756 6
  25683211.484      443146.163 5    345305.010 2
  25925236.930    28922090.636 5  22536691.419 2
 91  5  6 21 16  0.0030000  0  6  2 19 15 11  6 16
  21960473.881    -9794286.883 9  -7631880.790 9
  22964870.948    11606539.294 7   9044046.228 5
  25763932.702     -155091.667 5   -120850.939 2
  25252615.382     8439035.504 6   6575875.888 3
  23066306.630    -8567851.364 7  -6676219.279 6
  25698523.082      523602.078 4    407998.138 2
 91  5  6 21 16 30.0030000  0  6  2 19 15 11  6 16
  21961730.611    -9787698.824 9  -7626747.192 9
  22979452.254    11683148.113 7   9103741.324 5
  25756597.982     -193627.907 5   -150879.306 3
  25272796.210     8545076.980 6   6658505.572 3
  23060012.485    -8600910.206 7  -6701979.309 7
  25713880.853      604310.673 5    470888.116 1
 91  5  6 21 17  0.0030000  0  6  2 19 15 11  6 16
  21963034.709    -9780840.625 9  -7621403.086 9
  22994076.436    11760032.969 7   9163651.530 5
  25749306.426     -231935.609 5   -180729.691 3
  25293046.891     8651505.272 6   6741436.664 3
  23053742.325    -8633882.845 7  -6727672.160 6
  25729284.483      685263.799 5    533968.619 2
 91  5  6 21 17 30.0030000  0  6  2 19 15 11  6 16
  21964389.771    -9773718.935 9  -7615853.662 9
  23008758.770    11837187.952 7   9223772.220 5
  25742050.853     -270017.636 5   -210404.226 2
  25313370.121     8758312.014 6   6824662.643 1
  23047480.864    -8666774.295 7  -6753301.757 7
  25744737.288      766452.315 5    597232.572 1
 91  5  6 21 18  0.0030000  0  6  2 19 15 11  6 16
  21965794.601    -9766335.881 9  -7610100.583 9
  23023493.864    11914611.800 7   9284102.417 5
  25734861.825     -307872.676 5   -239901.418 2
  25333763.205     8865492.891 6   6908180.211 3
  23041232.586    -8699584.961 7  -6778868.400 7
  25760229.364      847871.905 5    660676.613 2
 91  5  6 21 18 30.0030000  0  6  2 19 15 11  6 16
  21967252.191    -9758695.164 9  -7604146.739 9
  23038276.336    11992300.820 7   9344639.234 4
  25727697.385     -345501.111 4   -269222.502 1
  25354230.330     8973041.524 6   6991984.274 4
  23035003.199    -8732317.193 7  -6804373.944 7
  25775765.206      929515.928 4    724295.360 2
 91  5  6 21 19  0.0030000  0  6  2 19 15 11  6 16
  21968749.350    -9750799.266 9  -7597994.038 9
  23053116.359    12070253.794 6   9405381.754 5
  25720572.819     -382901.983 4   -298365.794 2
  25374761.322     9080953.641 5   7076071.582 3
  23028792.396    -8764971.364 7  -6829818.638 7
  25791341.828     1011380.235 5    788085.965 1
 91  5  6 21 19 30.0030000  0  5  2 19 15 11  6
  21970303.179    -9742647.024 9  -7591641.592 9
  23067996.256    12148472.635 7   9466331.433 6
  25713501.913     -420069.485 5   -327327.267 2
  25395372.054     9189228.169 5   7160441.273 2
  23022595.091    -8797544.656 7  -6855200.324 6
 91  5  6 21 20  0.0030000  0  5  2 19 15 11  6
  21971902.570    -9734238.136 9  -7585089.174 9
  23082924.725    12226958.353 7   9527489.074 6
  25706477.772     -456999.830 5   -356104.388 3
  25416046.941     9297863.108 5   7245091.861 3
  23016416.065    -8830034.943 7  -6880517.338 7
 91  5  6 21 20 30.0030000  0  5  2 19 15 11  6
  21973550.830    -9725574.435 9  -7578338.185 9
  23097908.948    12305709.656 6   9588853.656 5
  25699504.604     -493692.252 5   -384695.643 2
  25436783.881     9406854.421 5   7330020.103 3
  23010246.340    -8862442.632 7  -6905769.979 7
 91  5  6 21 21  0.0030000  0  5  2 19 15 11  6
  21975251.249    -9716651.778 9  -7571385.423 9
  23112954.936    12384731.684 7   9650429.201 6
  25692550.919     -530138.575 4   -413095.172 1
  25457594.277     9516204.153 5   7415227.624 4
  23004093.698    -8894761.542 7  -6930953.451 7
 91  5  6 21 21 30.0030000  0  5  2 19 15 11  6
  21976997.239    -9707469.633 9  -7564230.460 9
  23128043.188    12464025.591 7   9712216.576 6
  25685675.778     -566334.540 4   -441299.567 3
  25478475.121     9625910.631 6   7500713.128 3
  22997963.245    -8926989.536 8  -6956066.074 6
 91  5  6 21 22  0.0030000  0  5  2 19 15 11  6
  21978792.997    -9698026.281 9  -7556871.964 9
  23143184.803    12543593.364 6   9774217.358 6
  25678824.918     -602275.053 4   -469304.963 3
  25499411.124     9735973.200 6   7586476.164 3
  22991850.774    -8959123.186 8  -6981105.183 6
 91  5  6 21 22 30.0030000  0  5  2 19 15 11  6
  21980639.719    -9688324.539 9  -7549312.125 9
  23158382.486    12623433.443 6   9836430.329 6
  25672043.013     -637959.114 4   -497110.502 2
  25520426.875     9846386.943 6   7672512.789 4
  22985748.197    -8991163.158 7  -7006071.296 7
 91  5  6 21 23  0.0030000  0  5  2 19 15 11  6
  21982535.310    -9678362.921 9  -7541549.780 9
  23173623.933    12703547.728 6   9898856.966 6
  25665299.481     -673381.299 4   -524711.980 1
  25541497.193     9957151.352 6   7758822.691 3
  22979674.404    -9023105.990 8  -7030961.722 6
 91  5  6 21 23 30.0030000  0  5  2 19 15 11  6
  21984479.762    -9668140.195 9  -7533583.978 9
  23188920.245    12783938.002 6   9961498.655 5
  25658605.116     -708537.418 4   -552106.151 2
  25562641.255    10068264.927 6   7845404.640 3
  22973619.196    -9054949.247 8  -7055774.553 7
 91  5  6 21 24  0.0040000  0  5  2 19 15 11  6
  21986474.578    -9657654.987 9  -7525413.649 9
  23204270.820    12864608.871 6  10024358.999 5
  25651965.311     -743423.863 4   -579290.162 2
  25583858.167    10179730.555 6   7932260.940 3
  22967571.181    -9086690.514 8  -7080507.911 7
 91  5  6 21 24 30.0040000  0  5  2 19 15 11  6
  21988517.963    -9646908.755 9  -7517039.911 9
  23219675.349    12945554.428 6  10087433.377 6
  25645386.073     -778035.493 4   -606260.095 2
  25605134.432    10291537.638 6   8019383.318 3
  22961551.650    -9118327.319 8  -7105159.872 7
 91  5  6 21 25  0.0040000  0  5  2 19 15 11  6
  21990616.212    -9635901.221 9  -7508462.564 9
  23235134.750    13026778.182 6  10150724.527 6
  25638860.485     -812370.053 5   -633014.051 2
  25626478.456    10403687.593 6   8106772.873 3
  22955552.204    -9149858.497 8  -7129729.540 7
 91  5  6 21 25 30.0040000  0  5  2 19 15 11  6
  21992758.829    -9624636.432 9  -7499684.756 9
  23250640.612    13108277.072 6  10214230.085 5
  25632364.886     -846427.485 5   -659552.152 2
  25647884.839    10516174.479 6   8194424.910 4
  22949572.241    -9181285.962 8  -7154218.381 7
 91  5  6 21 26  0.0040000  0  5  2 19 15 11  6
  21994951.815    -9613116.893 9  -7490708.437 9
  23266199.244    13190049.126 6  10277948.488 6
  25625940.632     -880207.445 4   -685874.395 2
  25669354.174    10628993.276 6   8282335.658 3
  22943611.465    -9212610.899 8  -7178627.324 6
 91  5  6 21 26 30.0040000  0  5  2 19 15 11  6
  21997189.762    -9601344.623 9  -7481535.195 9
  23281814.833    13272092.976 6  10341878.668 6
  25619572.140     -913708.505 4   -711978.918 2
  25690881.076    10742139.742 6   8370501.715 2
  22937671.385    -9243833.212 8  -7202956.309 7
 91  5  6 21 27  0.0040000  0  5  2 19 15 11  6
  21999476.883    -9589322.453 9  -7472167.220 9
  23297475.697    13354406.556 6  10406019.033 6
  25613247.422     -946929.685 4   -737865.290 1
  25712478.426    10855608.981 6   8458919.257 3
  22931750.482    -9274953.475 8  -7227205.773 7
 91  5  6 21 27 30.0040000  0  5  2 19 15 11  6
  22001812.263    -9577052.674 9  -7462606.309 9
  23313192.017    13436988.047 6  10470368.188 6
  25606972.158     -979869.428 4   -763532.418 2
  25734126.738    10969396.271 6   8547584.637 2
  22925849.063    -9305972.311 8  -7251376.205 6
 91  5  6 21 28  0.0040000  0  5  2 19 15 11  6
  22004192.613    -9564537.583 9  -7452854.250 9
  23328960.496    13519835.812 6  10534924.809 5
  25600754.462    -1012526.998 4   -788980.122 1
  25755839.800    11083497.056 5   8636494.347 2
  22919959.946    -9336890.039 8  -7275467.854 7
 91  5  6 21 28 30.0040000  0  5  2 19 15 11  6
  22006623.934    -9551774.076 9  -7442908.622 9
  23344779.049    13602953.119 6  10599691.458 5
  25594604.822    -1044895.799 4   -814202.298 2
  25777606.233    11197911.846 5   8725648.685 3
  22914096.603    -9367701.896 8  -7299477.005 7
 91  5  6 21 29  0.0040000  0  5  2 19 15 11  6
  22009099.919    -9538761.599 9  -7432768.987 9
  23360644.961    13686341.897 6  10664669.649 5
  25588486.663    -1076971.288 4   -839195.969 3
  25799448.810    11312639.522 5   8815046.812 4
  22908257.542    -9398404.878 8  -7323401.325 7
 91  5  6 21 29 30.0040000  0  5  2 19 15 11  6
  22011622.069    -9525500.265 9  -7422435.455 9
  23376562.439    13770002.257 6  10729859.464 6
  25582451.540    -1108750.359 5   -863959.095 2
  25821330.964    11427677.370 5   8904686.627 2
  22902431.377    -9428997.553 8  -7347239.691 6
 91  5  6 21 30  0.0040000  0  5  2 19 15 11  6
  22014192.495    -9511990.662 9  -7411908.459 9
  23392533.882    13853934.445 6  10795261.077 5
  25576463.183    -1140230.271 5   -888488.646 2
  25843283.870    11543022.669 5   8994566.039 2
  22896634.885    -9459478.255 8  -7370990.802 7
 91  5  6 21 30 30.0040000  0  5  2 19 15 11  6
  22016814.181    -9498227.117 9  -7401183.583 9
  23408557.789    13938144.333 6  10860879.075 6
  25570530.293    -1171401.553 5   -912777.708 2
  25865305.120    11658678.839 5   9084687.730 2
  22890856.089    -9489839.483 8  -7394648.830 7
 91  5  6 21 31  0.0040000  0  5  2 19 15 11  6
  22019481.726    -9484207.196 9  -7390258.944 9
  23424639.264    14022634.956 6  10926715.842 5
  25564670.544    -1202258.425 5   -936822.166 2
  25887369.848    11774645.928 5   9175051.637 3
  22885101.277    -9520077.084 8  -7418210.483 7
 91  5  6 21 31 30.0040000  0  5  2 19 15 11  6
  22022193.952    -9469935.760 9  -7379138.322 9
  23440771.388    14107402.115 6  10992768.103 5
  25558848.279    -1232801.456 4   -960621.726 2
  25909482.240    11890916.979 5   9265652.375 3
  22879370.739    -9550193.562 8  -7441677.768 7
 91  5  6 21 32  0.0040000  0  5  2 19 15 11  6
  22024958.939    -9455410.261 9  -7367819.724 9
  23456951.491    14192448.728 6  11059038.082 5
  25553095.256    -1263025.790 5   -984173.346 3
  25931658.788    12007492.220 5   9356490.181 1
  22873661.796    -9580184.340 8  -7465047.119 7
 91  5  6 21 32 30.0040000  0  5  2 19 15 11  6
  22027773.694    -9440634.296 9  -7356305.948 9
  23473190.952    14277772.008 6  11125523.647 5
  25547396.809    -1292931.586 5  -1007476.416 4
  25953911.184    12124365.598 5   9447560.384 2
  22867981.026    -9610051.126 8  -7488319.843 8
 91  5  6 21 33  0.0040000  0  5  2 19 15 11  6
  22030631.315    -9425611.091 9  -7344599.522 9
  23489478.671    14363369.119 6  11192222.598 5
  25541775.998    -1322518.044 5  -1030530.984 1
  25976209.142    12241531.309 5   9538858.280 2
  22862319.442    -9639795.151 8  -7511496.912 7
 91  5  6 21 33 30.0040000  0  5  2 19 15 11  6
  22033539.002    -9410338.603 9  -7332698.855 9
  23505819.762    14449242.558 6  11259136.880 5
  25536201.954    -1351780.406 5  -1053332.599 2
  25998560.175    12358989.229 5   9630383.849 1
  22856682.446    -9669412.638 8  -7534575.387 8
 91  5  6 21 34  0.0040000  0  5  2 19 15 11  6
  22036491.352    -9394816.665 9  -7320603.795 9
  23522212.112    14535393.050 6  11326267.035 4
  25530692.667    -1380714.778 5  -1075878.686 2
  26020964.858    12476737.481 5   9722135.746 1
  22851070.631    -9698901.124 8  -7557553.326 8
 91  5  6 21 34 30.0040000  0  5  2 19 15 11  6
  22039491.978    -9379048.149 9  -7308316.603 9
  23538656.630    14621818.488 6  11393611.414 5
  25525251.733    -1409320.316 5  -1098168.940 2
  26043420.514    12594771.034 5   9814109.955 3
  22845484.301    -9728261.207 8  -7580431.221 7
 91  5  6 21 35  0.0040000  0  5  2 19 15 11  6
  22042538.768    -9363038.344 9  -7295841.392 9
  23555158.403    14708513.901 6  11461166.181 5
  25519874.954    -1437598.972 5  -1120204.090 2
  26065941.520    12713082.264 6   9906300.495 2
  22839921.652    -9757496.359 8  -7603211.773 8
 91  5  6 21 35 30.0040000  0  5  2 19 15 11  6
  22045629.027    -9346788.279 9  -7283178.962 9
  23571710.842    14795478.988 6  11528931.084 5
  25514547.350    -1465548.504 5  -1141982.759 1
  26088499.705    12831667.645 5   9998704.679 2
  22834382.089    -9786605.330 8  -7625893.992 7
 91  5  6 21 36  0.0040000  0  5  2 19 15 11  6
  22048769.953    -9330301.130 9  -7270331.806 9
  23588305.257    14882711.110 6  11596904.082 4
  25509291.685    -1493168.344 5  -1163504.503 2
  26111115.152    12950521.501 5  10091318.066 2
  22828868.605    -9815589.374 8  -7648478.881 8
 91  5  6 21 36 30.0040000  0  5  2 19 15 11  6
  22051951.049    -9313575.127 9  -7257298.521 9
  23604958.131    14970212.190 6  11665086.648 4
  25504101.379    -1520453.684 5  -1184765.620 2
  26133790.550    13069643.441 5  10184140.356 3
  22823375.503    -9844444.576 8  -7670963.369 8
 91  5  6 21 37  0.0040000  0  5  2 19 15 11  6
  22055180.116    -9296608.369 9  -7244077.632 9
  23621660.467    15057984.850 6  11733480.832 6
  25498982.725    -1547398.944 5  -1205761.791 2
  26156505.830    13189033.377 5  10277171.419 2
  22817908.786    -9873166.806 8  -7693344.248 8
 91  5  6 21 37 30.0040000  0  5  2 19 15 11  6
  22058456.246    -9279396.252 9  -7230665.566 9
  23638414.665    15146033.914 6  11802090.382 5
  25493912.634    -1573995.994 5  -1226486.571 1
  26179274.769    13308693.896 5  10370413.427 2
  22812470.854    -9901749.178 8  -7715616.139 8
 91  5  6 21 38  0.0040000  0  5  2 19 15 11  6
  22061775.251    -9261936.551 9  -7217060.565 9
  23655221.328    15234361.874 6  11870917.264 5
  25488923.189    -1600239.815 5  -1246936.110 2
  26202101.861    13428624.147 5  10463865.573
  22807058.703    -9930187.954 8  -7737776.149 7
 91  5  6 21 38 30.0040000  0  5  2 19 15 11  6
  22065147.017    -9244231.016 9  -7203264.011 9
  23672085.253    15322967.775 6  11939960.700 4
  25483999.095    -1626129.011 5  -1267109.348 3
  26224972.727    13548820.203 5  10557524.790 3
  22801674.727    -9958482.500 8  -7759823.765 7
 91  5  6 21 39  0.0040000  0  5  2 19 15 11  6
  22068561.650    -9226280.036 9  -7189276.205 9
  23689000.447    15411851.365 6  12009220.514 5
  25479130.764    -1651660.611 5  -1287003.953 1
  26247900.856    13669279.211 5  10651388.958 2
  22796319.839    -9986631.084 8  -7781757.641 7
 91  5  6 21 39 30.0040000  0  6  2 19 15 13 11  6
  22072025.753    -9208087.824 9  -7175100.424 9
  23705962.102    15501009.346 6  12078694.168 4
  25474336.787    -1676835.254 5  -1306620.428 2
  25329764.272     -208489.805 4   -162459.655 2
  26270869.156    13789995.282 5  10745453.433 4
  22790995.822   -10014635.665 8  -7803579.314 8
 91  5  6 21 40  0.0040000  0  6  2 19 15 13 11  6
  22075530.926    -9189654.466 9  -7160736.739 9
  23722981.021    15590441.877 6  12148381.743 4
  25469624.644    -1701649.646 5  -1325956.150 3
  25311484.428     -304540.226 4   -237304.008 1
  26293890.521    13910965.765 5  10839716.106 5
  22785689.193   -10042494.084 8  -7825287.085 8
 91  5  6 21 40 30.0040000  0  6  2 19 15 13 11  6
  22079085.867    -9170979.564 9  -7146184.833 9
  23740056.600    15680149.531 6  12218283.694 4
  25464967.669    -1726100.206 5  -1345008.394 3
  25293228.263     -400473.793 5   -312057.435 2
  26316957.746    14032188.502 5  10934175.339 2
  22780415.851   -10070204.077 8  -7846879.209 8
 91  5  6 21 41  0.0040000  0  6  2 19 15 13 11  6
  22082683.675    -9152070.784 9  -7131450.703 9
  23757175.350    15770125.200 6  12288394.498 3
  25460380.243    -1750190.984 5  -1363780.315 2
  25275005.978     -496294.013 5   -386722.482 2
  26340074.442    14153653.971 5  11028823.742 2
  22775168.876   -10097770.802 8  -7868359.688 8
 91  5  6 21 41 30.0040000  0  6  2 19 15 13 11  6
  22086326.757    -9132929.620 9  -7116535.478 9
  23774349.864    15860367.877 6  12358713.359 4
  25455877.965    -1773920.496 5  -1382270.678 2
  25256784.888     -591998.742 5   -461297.546 2
  26363229.520    14275358.228 4  11123658.243 2
  22769950.990   -10125193.720 8  -7889728.117 8
 91  5  6 21 42  0.0040000  0  6  2 19 15 13 11  6
  22090012.103    -9113557.000 9  -7101439.892 9
  23791565.742    15950877.475 6  12429240.211 4
  25451419.451    -1797286.084 5  -1400477.536 2
  25238588.089     -687585.725 5   -535780.855 2
  26386430.754    14397298.429 4  11218676.518 1
  22764760.981   -10152471.173 8  -7910983.193 8
 91  5  6 21 42 30.0040000  0  5  2 19 15 13  6
  22093744.818    -9093945.918 9  -7086158.503 9
  23808844.581    16041660.811 6  12499980.369 3
  25447049.376    -1820277.507 5  -1418392.733 2
  25220423.660     -783044.133 4   -610163.942
  22759603.656   -10179594.196 8  -7932117.925 8
 91  5  6 21 43  0.0040000  0  5  2 19 15 13  6
  22097522.502    -9074096.743 9  -7070691.578 9
  23826171.985    16132717.902 6  12570933.837 5
  25442747.950    -1842892.224 5  -1436014.471 2
  25202289.516     -878370.651 5   -684444.329 2
  22754470.012   -10206561.040 8  -7953130.962 9
 91  5  6 21 43 30.0040000  0  5  2 19 15 13  6
  22101340.060    -9054028.016 9  -7055053.579 9
  23843551.852    16224030.440 6  12642086.341 4
  25438515.783    -1865145.484 5  -1453354.566 3
  25184174.261     -973580.478 5   -758633.681 1
  22749364.541   -10233388.155 8  -7974035.117 8
 91  5  6 21 44  0.0040000  0  5  2 19 15 13  6
  22105200.790    -9033741.303 9  -7039245.721 9
  23860981.784    16315596.751 6  12713436.601 4
  25434344.169    -1887036.285 5  -1470412.227 2
  25166077.888    -1068671.402 5   -832730.447 1
  22744285.157   -10260075.307 8  -7994830.206 8
 91  5  6 21 44 30.0040000  0  5  2 19 15 13  6
  22109102.885    -9013233.192 9  -7023265.350 9
  23878443.798    16407421.480 6  12784988.217 5
  25430248.106    -1908557.242 5  -1487181.665 1
  25148007.595    -1163636.203 5   -906728.973 2
  22739236.356   -10286616.225 8  -8015511.342 8
 91  5  6 21 45  0.0040000  0  5  2 19 15 13  6
  22113049.654    -8992499.870 9  -7007109.495 9
  23895973.859    16499508.790 6  12856744.444 5
  25426229.085    -1929701.801 5  -1503657.794 2
  25129947.204    -1258467.688 5   -980623.570 2
  22734208.834   -10313005.026 8  -8036073.948 9
 91  5  6 21 45 30.0040000  0  5  2 19 15 13  6
  22117038.389    -8971545.636 9  -6990781.492 9
  23913540.801    16591853.677 6  12928701.383 5
  25422273.626    -1950470.946 5  -1519841.440 3
  25111935.368    -1353166.227 5  -1054414.588 2
  22729214.896   -10339244.203 8  -8056519.980 8
 91  5  6 21 46  0.0040000  0  5  2 19 15 13  6
  22121063.108    -8950376.297 9  -6974285.884 9
  23931165.303    16684451.855 6  13000855.672 5
  25418387.114    -1970867.070 5  -1535734.410 3
  25093938.828    -1447733.493 5  -1128103.289 1
  22724252.726   -10365336.566 8  -8076851.608 7
 91  5  6 21 46 30.0040000  0  5  2 19 15 13  6
  22125133.685    -8928997.280 9  -6957626.879 9
  23948826.974    16777297.557 6  13073202.831 5
  25414575.559    -1990892.970 5  -1551338.846 2
  25075973.768    -1542172.145 5  -1201691.726 2
  22719312.151   -10391285.589 8  -8097071.544 8
 91  5  6 21 47  0.0040000  0  5  2 19 15 13  6
  22129242.348    -8907411.514 9  -6940806.776 9
  23966546.509    16870388.109 6  13145740.797 4
  25410834.145    -2010547.655 5  -1566654.078 2
  25058021.289    -1636480.823 5  -1275178.997 2
  22714399.452   -10417092.016 8  -8117180.367 8
 91  5  6 21 47 30.0040000  0  5  2 19 15 13  6
  22133387.272    -8885618.197 9  -6923824.956 9
  23984315.804    16963724.736 6  13218470.502 5
  25407175.175    -2029827.750 5  -1581677.330 2
  25040091.007    -1730655.488 5  -1348561.779 2
  22709521.828   -10442752.756 8  -8137175.673 8
 91  5  6 21 48  0.0040000  0  5  2 19 15 13  6
  22137576.275    -8863610.230 9  -6906675.866 9
  24002118.377    17057314.278 6  13291397.289 4
  25403572.568    -2048722.942 5  -1596400.745 4
  25022200.887    -1824685.235 5  -1421831.630 2
  22704668.783   -10468258.372 8  -8157050.116 8
 91  5  6 21 48 30.0040000  0  5  2 19 15 13  6
  22141805.143    -8841385.811 9  -6889358.119 9
  24019978.518    17151159.261 6  13364523.110 5
  25400056.603    -2067228.559 5  -1610820.503 1
  25004335.956    -1918565.092 5  -1494984.653 2
  22699845.726   -10493604.800 8  -8176800.508 9
 91  5  6 21 49  0.0040000  0  5  2 19 15 13  6
  22146074.793    -8818945.558 9  -6871872.183 9
  24037883.322    17245259.050 6  13437847.478 5
  25396609.897    -2085342.947 5  -1624935.485 2
  24986499.809    -2012291.592 5  -1568018.266 1
  22695050.843   -10518790.535 8  -8196425.698 9
 91  5  6 21 49 30.0040000  0  5  2 19 15 13  6
  22150385.511    -8796291.645 9  -6854219.767 9
  24055839.692    17339611.891 6  13511369.032 5
  25393235.731    -2103064.471 5  -1638744.277 2
  24968694.828    -2105863.425 5  -1640931.225 1
  22690289.237   -10543815.471 8  -8215925.591 9
 91  5  6 21 50  0.0040000  0  5  2 19 15 13  6
  22154736.391    -8773425.988 9  -6836402.350 9
  24073849.425    17434216.343 6  13585086.665 4
  25389935.913    -2120391.523 5  -1652245.741 2
  24950922.235    -2199278.772 5  -1713722.302 2
  22685557.915   -10568679.058 8  -8235299.758 9
 91  5  6 21 50 30.0040000  0  5  2 19 15 13  6
  22159127.460    -8750348.107 9  -6818419.567 9
  24091898.726    17529072.371 6  13659000.297 4
  25386713.442    -2137321.297 5  -1665437.611 2
  24933180.817    -2292533.709 5  -1786388.422 2
  22680859.566   -10593378.551 8  -8254546.066 9
 91  5  6 21 51  0.0040000  0  5  2 19 15 13  6
  22163562.886    -8727050.769 9  -6800265.776 9
  24109997.193    17624188.132 6  13733116.340 3
  25383564.725    -2153843.340 5  -1678311.801 2
  24915470.582    -2385617.015 5  -1858920.714 1
  22676192.698   -10617904.447 8  -8273657.102 9
 91  5  6 21 51 30.0040000  0  5  2 19 15 13  6
  22168036.389    -8703541.156 9  -6781946.574 9
  24128143.335    17719556.452 6  13807429.180 3
  25380499.350    -2169961.991 5  -1690871.658 4
  24897760.636    -2478532.542 5  -1931322.336 2
  22671557.309   -10642261.630 8  -8292636.677 9
 91  5  6 21 52  0.0040000  0  5  2 19 15 13  6
  22172548.562    -8679817.627 9  -6763460.692 9
  24146338.040    17815178.897 6  13881940.014 4
  25377509.220    -2185672.884 5  -1703113.775 2
  24880127.147    -2571275.669 5  -2003589.628 2
  22666951.900   -10666446.320 8  -8311481.836 9
 91  5  6 21 52 30.0040000  0  5  2 19 15 13  6
  22177106.009    -8655878.416 9  -6744806.742 9
  24164582.504    17911057.957 6  13956650.817 4
  25374597.328    -2200970.636 5  -1715034.007 3
  24862510.445    -2663839.898 5  -2075717.528 1
  22662385.457   -10690453.962 8  -8330189.037 9
 91  5  6 21 53  0.0040000  0  5  2 19 15 13  6
  22181704.525    -8631723.660 9  -6725984.841 9
  24182862.951    18007193.212 6  14031561.276 3
  25371768.788    -2215852.898 5  -1726630.444 1
  24844931.515    -2756222.035 5  -2147703.519 2
  22657849.299   -10714282.525 8  -8348756.688 8
 91  5  6 21 53 30.0040000  0  5  2 19 15 13  6
  22186344.110    -8607345.852 9  -6706989.126 9
  24201231.539    18103591.924 6  14106677.000 5
  25369020.291    -2230309.493 5  -1737895.201 3
  24827402.649    -2848411.382 5  -2219539.284 3
  22653347.012   -10737922.339 8  -8367177.265 9
 91  5  6 21 54  0.0040000  0  5  2 19 15 13  6
  22191022.374    -8582745.641 9  -6687820.116 9
  24219614.209    18200253.944 6  14181997.905 4
  25366353.636    -2244337.374 5  -1748825.910 2
  24809881.880    -2940404.470 5  -2291222.191 1
  22648886.702   -10761371.527 8  -8385449.299 9
 91  5  6 21 54 30.0040000  0  5  2 19 15 13  6
  22195747.108    -8557921.004 9  -6668476.222 9
  24238061.942    18297181.548 6  14257525.743 3
  25363766.432    -2257931.868 5  -1759418.925 3
  24792420.468    -3032196.081 5  -2362748.004 1
  22644464.467   -10784625.690 8  -8403569.370 9
 91  5  6 21 55  0.0040000  0  5  2 19 15 13  6
  22200515.301    -8532866.482 9  -6648953.191 9
  24256557.332    18394379.908 6  14333264.572 3
  25361264.062    -2271085.669 6  -1769668.535 2
  24774993.529    -3123777.596 5  -2434110.184 2
  22640075.502   -10807677.337 8  -8421531.630 9
 91  5  6 21 55 30.0040000  0  5  2 19 15 13  6
  22205323.971    -8507587.859 9  -6629255.543 9
  24275100.998    18491843.404 6  14409209.994 4
  25358838.438    -2283801.229 5  -1779576.647 3
  24757601.071    -3215150.646 5  -2505310.002 2
  22635728.810   -10830529.779 8  -8439338.672 9
 91  5  6 21 56  0.0040000  0  5  2 19 15 13  6
  22210174.616    -8482089.267 9  -6609386.487 9
  24293702.816    18589568.698 6  14485359.422 4
  25356505.754    -2296079.227 5  -1789143.833 2
  24740260.170    -3306315.386 5  -2576347.411 2
  22631417.193   -10853184.517 8  -8456991.650 9
 91  5  6 21 56 30.0050000  0  5  2 19 15 13  6
  22514862.087    -8456372.986 9  -6589347.816 9
  24612139.968    18687553.409 5  14561710.984 3
  25654037.178    -2307919.540 5  -1798369.914 2
  25022738.418    -3397271.152 5  -2647222.043 2
  22926938.509   -10875641.513 8  -8474490.551 9
 91  5  6 21 57  0.0050000  0  5  2 19 15 13  6
  22220004.214    -8430440.993 9  -6569141.051 9
  24331040.475    18785797.536 6  14638264.703 3
  25352080.216    -2319322.884 5  -1807255.511 4
  24705675.221    -3488019.948 5  -2717935.406 1
  22622906.986   -10897902.173 8  -8491836.453 9
 91  5  6 21 57 30.0050000  0  5  2 19 15 13  6
  22224978.669    -8404292.121 9  -6548765.289 9
  24349781.398    18884297.098 6  14715017.459 5
  25349992.167    -2330282.845 5  -1815795.648 3
  24688444.343    -3578550.141 5  -2788478.401 2
  22618711.090   -10919960.169 8  -8509024.436 9
 91  5  6 21 58  0.0050000  0  5  2 19 15 13  6
  22229996.592    -8377930.743 9  -6528223.940 9
  24368576.582    18983050.837 6  14791968.270 4
  25347994.047    -2340801.829 5  -1823992.091 4
  24671256.647    -3668865.816 5  -2858854.303 1
  22614553.873   -10941818.394 8  -8526056.754 9
 91  5  6 21 58 30.0050000  0  5  2 19 15 13  6
  22235054.992    -8351356.537 9  -6507516.748 9
  24387420.043    19082059.055 6  14869117.383 4
  25346075.980    -2350876.853 6  -1831842.666 3
  24654114.513    -3758962.852 5  -2929059.808 2
  22610426.626   -10963474.054 8  -8542931.227 9
 91  5  6 21 59  0.0050000  0  5  2 19 15 13  6
  22240151.467    -8324572.695 9  -6486646.201 9
  24406304.564    19181318.115 5  14946461.945 3
  25344244.248    -2360509.215 5  -1839348.295 2
  24637008.352    -3848841.182 5  -2999094.889 1
  22606345.552   -10984928.428 9  -8559648.861 9
 91  5  6 21 59 30.0050000  0  5  2 19 15 13  6
  22245286.613    -8297575.739 9  -6465609.597 9
  24425241.854    19280831.384 6  15024004.586 3
  25342493.756    -2369692.447 5  -1846503.906 2
  24619954.062    -3938493.707 5  -3068954.071 2
  22602305.251   -11006175.653 8  -8576205.072 9
 91  5  6 22  0  0.0050000  0  5  2 19 15 13  6
  22250466.719    -8270366.875 9  -6444407.868 9
  24444238.807    19380598.058 5  15101744.685 5
  25340833.804    -2378424.940 5  -1853308.358 2
  24602938.739    -4027917.759 5  -3138635.216 3
  22598298.227   -11027214.289 8  -8592598.756 9
 91  5  6 22  0 30.0050000  0  5  2 19 15 13  6
  22255685.512    -8242941.938 9  -6423037.777 9
  24463265.434    19480622.065 5  15179685.335 4
  25339265.893    -2386700.215 5  -1859756.539 2
  24585961.789    -4117106.323 5  -3208132.899 2
  22594337.368   -11048038.202 8  -8608825.122 9
 91  5  6 22  1  0.0050000  0  5  2 19 15 13  6
  22260942.966    -8215306.100 9  -6401503.350 9
  24482344.821    19580898.408 5  15257822.588 2
  25337773.524    -2394520.389 5  -1865850.068 3
  24569030.418    -4206061.080 5  -3277448.340 2
  22590416.077   -11068649.865 8  -8624886.097 9
 91  5  6 22  1 30.0050000  0  5  2 19 15 13  6
  22266241.497    -8187466.221 9  -6379809.928 9
  24501471.281    19681420.460 5  15336151.279 3
  25336373.790    -2401889.326 5  -1871592.040 2
  24552147.001    -4294785.155 6  -3346584.098 2
  22586533.770   -11089053.521 8  -8640784.993 9
 91  5  6 22  2  0.0050000  0  5  2 19 15 13  6
  22271580.505    -8159424.377 9  -6357959.127 9
  24520654.104    19782185.787 5  15414669.552 4
  25335047.216    -2408806.844 5  -1876982.236 2
  24535309.460    -4383276.501 6  -3415538.417 2
  22582688.030   -11109248.922 8  -8656521.606 9
 91  5  6 22  2 30.0050000  0  5  2 19 15 13  6
  22276951.586    -8131180.981 9  -6335951.273 9
  24539870.799    19883193.644 5  15493376.821 3
  25333826.154    -2415271.487 5  -1882019.565 3
  24518523.782    -4471532.838 6  -3484309.663 2
  22578889.362   -11129234.418 8  -8672094.674 9
 91  5  6 22  3  0.0050000  0  5  2 19 15 13  6
  22282364.042    -8102739.470 9  -6313789.039 9
  24559133.065    19984440.420 5  15572270.212 3
  25332677.956    -2421284.101 6  -1886704.681 2
  24501761.783    -4559554.095 6  -3552897.703 2
  22575121.869   -11149011.124 9  -8687505.039 9
 91  5  6 22  3 30.0050000  0  5  2 19 15 13  6
  22287814.268    -8074097.577 9  -6291470.670 9
  24578447.498    20085928.594 5  15651351.770 3
  25331616.983    -2426839.289 5  -1891033.303 2
  24485062.143    -4647334.354 6  -3621297.923 2
  22571402.041   -11168573.856 8  -8702748.679 9
 91  5  6 22  4  0.0050000  0  5  2 19 15 13  6
  22293302.868    -8045259.332 9  -6268999.288 9
  24597816.184    20187653.379 5  15730617.656 4
  25330654.053    -2431939.105 5  -1895007.147 2
  24468402.978    -4734874.161 6  -3689510.810 2
  22567719.696   -11187924.664 8  -8717827.185 9
 91  5  6 22  4 30.0050000  0  5  2 19 15 13  6
  22298827.746    -8016221.002 9  -6246372.010 9
  24617214.858    20289619.062 5  15810071.272 4
  25329765.166    -2436577.021 5  -1898621.065 3
  24451789.978    -4822166.445 6  -3757530.774 2
  22564081.116   -11207057.279 9  -8732735.674 9
 91  5  6 22  5  0.0050000  0  5  2 19 15 13  6
  22304393.990    -7986981.159 9  -6223587.701 9
  24636662.393    20391826.669 5  15889713.386 3
  25328973.414    -2440749.246 5  -1901872.065 2
  24435225.246    -4909206.439 6  -3825354.212 2
  22560477.009   -11225967.833 8  -8747471.125 9
 91  5  6 22  5 30.0050000  0  5  2 19 15 13  6
  22309995.615    -7957537.878 9  -6200644.872 9
  24656158.500    20494278.341 5  15969545.672 4
  25328265.607    -2444451.655 5  -1904756.964 2
  24418710.578    -4995988.752 6  -3892976.791 2
  22556922.068   -11244651.964 8  -8762030.147 9
 91  5  6 22  6  0.0050000  0  5  2 19 15 13  6
  22315636.808    -7927891.027 9  -6177543.415 9
  24675701.366    20596973.984 5  16049568.074 3
  25327651.935    -2447681.391 6  -1907273.571 2
  24402240.583    -5082509.469 6  -3960395.564 2
  22553413.300   -11263107.001 8  -8776410.641 9
 91  5  6 22  6 30.0050000  0  5  2 19 15 13  6
  22321317.273    -7898038.552 9  -6154281.731 9
  24695289.811    20699915.779 5  16129782.299 4
  25327130.593    -2450434.267 6  -1909418.568 2
  24385835.642    -5168763.047 6  -4027606.115 2
  22549944.694   -11281328.220 8  -8790608.950 9
 91  5  6 22  7  0.0050000  0  5  2 19 15 13  6
  22327038.510    -7867976.330 9  -6130856.614 9
  24714927.413    20803107.045 5  16210190.900 3
  25326696.492    -2452704.336 5  -1911187.400 3
  24369470.566    -5254742.268 6  -4094602.903 3
  22546521.965   -11299309.518 8  -8804620.302 9
 91  5  6 22  7 30.0050000  0  5  2 19 15 13  6
  22332800.223    -7837706.275 9  -6107269.541 9
  24734609.985    20906545.491 5  16290792.112 3
  25326356.527    -2454490.753 6  -1912579.323 3
  24353164.855    -5340445.851 6  -4161384.951 1
  22543144.807   -11317050.311 8  -8818444.250 9
 91  5  6 22  8  0.0050000  0  5  2 19 15 13  6
  22338597.909    -7807232.432 9  -6083523.671 9
  24754340.824    21010227.275 5  16371582.954 4
  25326105.899    -2455794.742 6  -1913595.295 3
  24336902.317    -5425874.466 6  -4227952.678 1
  22539812.313   -11334552.170 8  -8832082.011 9
 91  5  6 22  8 30.0050000  0  5  2 19 15 13  6
  22344435.766    -7776556.777 9  -6059620.539 9
  24774118.735    21114150.387 5  16452561.788 4
  25325954.204    -2456616.324 5  -1914235.404 2
  24320699.432    -5511026.280 6  -4294304.760 2
  22536530.485   -11351814.516 8  -8845533.134 9
 91  5  6 22  9  0.0050000  0  5  2 19 15 13  6
  22350312.903    -7745675.630 9  -6035557.300 9
  24793937.715    21218317.242 5  16533730.576 4
  25325893.652    -2456950.176 6  -1914495.478 2
  24304553.505    -5595894.637 6  -4360435.976 2
  22533293.025   -11368831.726 8  -8858793.246 9
 91  5  6 22  9 30.0050000  0  5  2 19 15 13  6
  22356226.006    -7714589.290 9  -6011334.157 9
  24813806.158    21322728.105 5  16615089.498 4
  25325920.028    -2456793.942 5  -1914373.618 2
  24288455.251    -5680476.368 6  -4426343.846 2
  22530101.136   -11385601.601 8  -8871860.619 9
 91  5  6 22 10  0.0050000  0  5  2 19 15 13  6
  22362178.685    -7683302.504 9  -5986954.833 9
  24833730.066    21427378.214 5  16696634.830 2
  25326038.750    -2456149.452 6  -1913871.350 2
  24272411.861    -5764772.724 6  -4492029.367 3
  22526958.709   -11402125.690 8  -8884736.474 9
 91  5  6 22 10 30.0050000  0  5  2 19 15 13  6
  22368171.840    -7651813.686 9  -5962418.072 9
  24853678.858    21532268.054 5  16778366.972 2
  25326250.700    -2455014.076 5  -1912986.579 3
  24256428.125    -5848778.987 6  -4557488.828 2
  22523858.861   -11418400.911 8  -8897418.403 9
 91  5  6 22 11  0.0050000  0  5  2 19 15 13  6
  22374199.765    -7620126.687 9  -5937726.881 9
  24873681.607    21637394.568 5  16860283.554 3
  25326566.986    -2453388.942 5  -1911720.130 2
  24240504.051    -5932495.644 6  -4622722.680 2
  22520808.773   -11434428.052 8  -8909907.034 9
 91  5  6 22 11 30.0050000  0  5  2 19 15 13  6
  22380266.665    -7588245.950 9  -5912884.729 9
  24893737.727    21742752.456 5  16942380.407 3
  25326971.107    -2451276.551 5  -1910074.012 2
  24224623.140    -6015923.863 6  -4687731.715 2
  22517808.147   -11450209.406 8  -8922204.133 9
 91  5  6 22 12  0.0050000  0  5  2 19 15 13  6
  22386371.641    -7556167.210 9  -5887888.289 9
  24913832.813    21848346.065 5  17024660.961 3
  25327465.759    -2448670.113 5  -1908042.968 2
  24208804.893    -6099055.881 6  -4752510.038 2
  22514853.092   -11465737.916 8  -8934304.219 9
 91  5  6 22 12 30.0050000  0  5  2 19 15 13  6
  22392517.381    -7523886.762 9  -5862734.688 9
  24933974.369    21954178.087 5  17107127.269 2
  25328064.145    -2445564.498 5  -1905622.921
  24193039.406    -6181884.893 6  -4817052.241 2
  22511942.710   -11481007.918 8  -8946202.869 9
 91  5  6 22 13  0.0050000  0  5  2 19 15 13  6
  22398700.900    -7491396.122 9  -5837417.290 9
  24954158.791    22060256.665 5  17189785.692 3
  25328744.677    -2441949.165 5  -1902805.694 2
  24177336.880    -6264399.225 6  -4881349.225 2
  22509089.878   -11496008.448 8  -8957891.536 9
 91  5  6 22 13 30.0050000  0  5  2 19 15 13  6
  22404920.995    -7458695.098 9  -5811935.956 9
  24974386.988    22166581.740 5  17272636.715 4
  25329534.631    -2437821.984 6  -1899589.581 3
  24161693.406    -6346595.363 6  -4945398.306 3
  22506284.721   -11510736.893 8  -8969368.194 9
 91  5  6 22 14  0.0050000  0  5  2 19 15 13  6
  22411180.964    -7425793.400 9  -5786298.266 9
  24994664.656    22273142.905 5  17355671.211 2
  25330408.826    -2433190.379 5  -1895980.463 2
  24146114.689    -6428479.495 6  -5009204.291 3
  22503535.326   -11525200.428 8  -8980638.433 9
 91  5  6 22 14 30.0050000  0  5  2 19 15 13  6
  22417479.603    -7392696.090 9  -5760508.155 9
  25014986.385    22379935.095 5  17438885.713 3
  25331386.142    -2428057.260 5  -1891980.570 2
  24130588.742    -6510053.464 6  -5072768.565 2
  22500832.994   -11539401.722 8  -8991704.325 9
 91  5  6 22 15  0.0050000  0  5  2 19 15 13  6
  22423815.716    -7359409.140 9  -5734570.266 9
  25035360.884    22486952.446 5  17522275.667 4
  25332462.402    -2422426.807 5  -1887593.187 2
  24115121.549    -6591320.172 6  -5136093.421 2
  22498179.531   -11553344.078 9  -9002568.446 9
 91  5  6 22 15 30.0050000  0  5  2 19 15 13  6
  22430185.708    -7325928.746 9  -5708481.641 9
  25055753.060    22594198.037 5  17605843.461 3
  25333630.991    -2416293.256 5  -1882813.739 3
  24099720.013    -6672272.888 6  -5199173.649 3
  22495577.040   -11567021.602 8  -9013226.213 9
 91  5  6 22 16  0.0050000  0  5  2 19 15 13  6
  22436594.667    -7292254.217 9  -5682241.750 9
  25076210.596    22701671.639 5  17689588.925 2
  25334889.823    -2409653.925 6  -1877640.167 2
  24084376.333    -6752907.761 6  -5262006.169 2
  22493023.105   -11580431.221 8  -9023675.222 9
 91  5  6 22 16 30.0050000  0  5  2 19 15 13  6
  22443039.007    -7258388.581 9  -5655852.936 9
  25096719.706    22809370.086 5  17773509.622 2
  25336246.683    -2402509.909 6  -1872073.355 3
  24069095.614    -6833223.793 6  -5324590.238 1
  22490523.431   -11593573.263 8  -9033915.737 9
 91  5  6 22 17  0.0050000  0  5  2 19 15 13  6
  22449521.422    -7224334.907 9  -5629317.603 9
  25117241.093    22917290.062 5  17857602.871 1
  25337705.774    -2394862.854 6  -1866114.580 4
  24053871.250    -6913221.728 6  -5386926.485 3
  22488073.831   -11606448.636 8  -9043948.436 9
 91  5  6 22 17 30.0050000  0  5  2 19 15 13  6
  22456032.613    -7190097.646 9  -5602639.211 9
  25137823.049    23025426.699 5  17941864.960 3
  25339250.598    -2386715.219 5  -1859765.777 3
  24038706.252    -6992902.456 6  -5449015.551 3
  22485673.989   -11619059.018 8  -9053774.674 9
 91  5  6 22 18  0.0050000  0  5  2 19 15 13  6
  22462586.671    -7155667.795 9  -5575810.756 9
  25158447.566    23133788.488 5  18026302.474 3
  25340902.156    -2378056.209 6  -1853018.359 3
  24023602.102    -7072253.609 6  -5510847.782 4
  22483325.120   -11631393.337 8  -9063385.786 9
 91  5  6 22 18 30.0050000  0  5  2 19 15 13  6
  22469174.913    -7121045.467 9  -5548832.311 9
  25179106.564    23242374.124 5  18110914.916 3
  25342651.750    -2368884.609 6  -1845871.652 2
  24008568.713    -7151272.722 6  -5572421.295 3
  22481033.802   -11643449.372 8  -9072780.067 9
 91  5  6 22 19  0.0050000  0  5  2 19 15 13  6
  22475798.824    -7086229.936 9  -5521703.324 9
  25199813.534    23351184.474 5  18195701.987 4
  25344486.178    -2359197.400 6  -1838323.117 2
  23993594.080    -7229955.355 6  -5633732.592 3
  22478793.456   -11655223.569 8  -9081954.722 9
 91  5  6 22 19 30.0050000  0  5  2 19 15 13  6
  22482460.218    -7051223.248 9  -5494425.375 9
  25220572.365    23460217.171 5  18280662.303 2
  25346424.932    -2348994.734 6  -1830372.895 2
  23978688.400    -7308300.678 6  -5694781.083 2
  22476607.668   -11666715.715 8  -9090909.599 9
 91  5  6 22 20  0.0050000  0  5  2 19 15 13  6
  22489159.679    -7016025.212 9  -5466998.330 9
  25241347.076    23569471.472 5  18365795.285 3
  25348475.516    -2338275.150 6  -1822019.953 3
  23963840.280    -7386305.590 6  -5755564.323 2
  22474470.749   -11677923.381 8  -9099642.798 9
 91  5  6 22 20 30.0050000  0  5  2 19 15 13  6
  22495894.817    -6980637.089 9  -5439423.144 9
  25262186.850    23678945.594 5  18451100.050 4
  25350611.833    -2327038.277 5  -1813263.885 3
  23949059.012    -7463968.102 6  -5816080.751 2
  22472392.288   -11688845.354 8  -9108153.384 9
 91  5  6 22 21  0.0050000  0  5  2 19 15 13  6
  22502664.429    -6945055.831 9  -5411697.475 9
  25283048.507    23788642.573 5  18536578.459 3
  25352853.985    -2315278.968 6  -1804100.681 2
  23934348.496    -7541281.862 6  -5876325.399 3
  22470369.887   -11699475.964 8  -9116436.924 9
 91  5  6 22 21 30.0050000  0  5  2 19 15 13  6
  22509473.617    -6909280.054 9  -5383820.225 9
  25303978.220    23898562.640 5  18622230.180 4
  25355177.080    -2302994.344 5  -1794528.217 2
  23919701.839    -7618242.487 6  -5936294.907 4
  22468403.247   -11709811.565 8  -9124490.598 9
 91  5  6 22 22  0.0050000  0  5  2 19 15 13  6
  22516316.982    -6873311.620 9  -5355792.856 9
  25324928.314    24008703.695 5  18708054.627 3
  25357627.876    -2290184.698 6  -1784546.609 2
  23905125.629    -7694849.070 6  -5995988.505 4
  22466491.471   -11719851.447 8  -9132313.831 9
 91  5  6 22 22 30.0050000  0  5  2 19 15 13  6
  22523197.515    -6837148.739 9  -5327613.976 9
  25345924.582    24119066.697 5  18794051.529 2
  25360159.929    -2276847.039 5  -1774153.549 3
  23890613.871    -7771096.600 6  -6055402.346 2
  22464642.952   -11729591.843 9  -9139903.704 9
 91  5  6 22 23  0.0050000  0  5  2 19 15 13  6
  22530116.727    -6800789.638 9  -5299282.191 9
  25366983.801    24229652.684 5  18880222.186 4
  25362802.293    -2262978.129 5  -1763346.596 3
  23876174.967    -7846980.303 6  -6114532.673 4
  22462845.100   -11739028.467 8  -9147256.871 9
 91  5  6 22 23 30.0050000  0  5  2 19 15 13  6
  22537074.609    -6764242.086 9  -5270803.574 9
  25388068.507    24340453.610 5  18966560.811 2
  25365533.706    -2248584.441 5  -1752130.739 2
  23861802.916    -7922505.147 6  -6173383.407 2
  22461103.603   -11748166.736 8  -9154377.562 9
 91  5  6 22 24  0.0050000  0  5  2 19 15 13  6
  22544061.572    -6727503.849 9  -5242176.360 9
  25409193.077    24451470.752 5  19053067.871 3
  25368380.840    -2233661.982 5  -1740502.777 2
  23847498.920    -7997665.800 6  -6231950.307 2
  22459424.464   -11757002.016 8  -9161262.144 9
 91  5  6 22 24 30.0050000  0  5  2 19 15 13  6
  22551094.402    -6690571.510 9  -5213397.903 9
  25430362.329    24562707.186 5  19139745.843 3
  25371317.301    -2218205.491 6  -1728458.743 3
  23833268.974    -8072455.785 6  -6290228.391 3
  22457798.392   -11765528.199 9  -9167905.880 9
 91  5  6 22 25  0.0050000  0  5  2 19 15 13  6
  22558153.914    -6653445.225 9  -5184468.326 9
  25451573.845    24674161.821 5  19226593.368 3
  25374360.497    -2202214.151 5  -1715997.937 1
  23819109.771    -8146872.422 7  -6348215.568 4
  22456239.765   -11773743.502 8  -9174307.367 9
 91  5  6 22 25 30.0050000  0  5  2 19 15 13  6
  22565257.199    -6616129.012 9  -5155390.745 9
  25472811.441    24785830.436 5  19313608.103 1
  25377509.816    -2185690.859 6  -1703122.572 2
  23805018.031    -8220916.857 6  -6405912.734 3
  22454731.516   -11781649.659 8  -9180467.971 9
 91  5  6 22 26  0.0050000  0  5  2 19 15 13  6
  22572391.058    -6578625.727 9  -5126167.406 9
  25494106.901    24897709.345 5  19400786.694 2
  25380755.365    -2168636.579 6  -1689833.496 2
  23790998.535    -8294588.908 7  -6463319.763 4
  22453287.711   -11789246.831 8  -9186387.807 9
 91  5  6 22 26 30.0050000  0  5  2 19 15 13  6
  22579566.587    -6540933.312 9  -5096796.688 9
  25515444.626    25009799.783 5  19488130.131 3
  25384095.354    -2151048.257 5  -1676128.279 2
  23777050.393    -8367883.597 7  -6520432.705 3
  22451899.372   -11796530.474 9  -9192063.341 9
 91  5  6 22 27  0.0050000  0  5  2 19 15 13  6
  22586772.402    -6503050.094 9  -5067277.301 9
  25536819.825    25122102.295 5  19575638.808 3
  25387547.766    -2132923.041 6  -1662004.688 2
  23763176.597    -8440796.886 7  -6577248.462 3
  22450578.190   -11803497.095 9  -9197491.842 9
 91  5  6 22 27 30.0050000  0  5  2 19 15 13  6
  22594022.583    -6464972.067 9  -5037606.113 9
  25558222.910    25234620.424 4  19663315.016 3
  25391097.908    -2114255.234 5  -1647458.308 1
  23749373.248    -8513321.519 7  -6633760.897 4
  22449312.465   -11810140.087 9  -9202668.174 9
 91  5  6 22 28  0.0050000  0  5  2 19 15 13  6
  22601303.346    -6426696.488 9  -5007780.992 9
  25579675.763    25347356.451 5  19751161.498 3
  25394759.871    -2095041.123 6  -1632486.237 2
  23735646.052    -8585451.646 7  -6689966.417 4
  22448113.591   -11816454.002 9  -9207588.072 9
 91  5  6 22 28 30.0050000  0  5  2 19 15 13  6
  22608625.772    -6388222.575 9  -4977801.315 9
  25601158.586    25460310.451 5  19839177.796 2
  25398514.172    -2075278.851 5  -1617086.936 2
  23721996.805    -8657184.146 7  -6745862.086 3
  22446974.982   -11822436.250 9  -9212249.533 9
 91  5  6 22 29  0.0050000  0  5  2 19 15 13  6
  22615985.375    -6349551.743 9  -4947668.199 9
  25622702.869    25573480.140 5  19927361.718 3
  25402381.498    -2054968.504 5  -1601260.681 3
  23708424.602    -8728517.178 7  -6801446.031 4
  22445895.729   -11828085.612 9  -9216651.595 9
 91  5  6 22 29 30.0060000  0  5  2 19 15 13  6
  22623379.760    -6310688.152 9  -4917384.872 9
  25644278.933    25686862.936 5  20015712.166 3
  25406349.847    -2034113.309 5  -1585009.894 2
  23694924.043    -8799456.090 7  -6856723.322 4
  22444882.433   -11833405.514 9  -9220796.936 9
 91  5  6 22 30  0.0060000  0  5  2 19 15 13  6
  22630811.912    -6271637.636 9  -4886955.887 9
  25665902.667    25800447.335 5  20104219.231 2
  25410418.636    -2012717.294 5  -1568337.609 2
  23681497.837    -8869996.574 7  -6911689.672 5
  22443937.487   -11838396.250 9  -9224685.777 9
 91  5  6 22 30 30.0060000  0  5  2 19 15 13  6
  22638280.047    -6232405.226 9  -4856385.172 9
  25687550.683    25914230.381 4  20192881.527 2
  25414600.135    -1990784.488 5  -1551247.087 2
  23668150.183    -8940143.657 7  -6966349.983 4
  22443046.505   -11843061.948 8  -9228321.346 9
 91  5  6 22 31  0.0060000  0  5  2 19 15 13  6
  22645776.957    -6192989.940 9  -4825671.957 9
  25709235.571    26028211.831 4  20281698.478 2
  25418865.885    -1968313.286 5  -1533737.055 3
  23654877.469    -9009894.478 7  -7020701.507 3
  22442221.773   -11847399.682 9  -9231701.352 9
 91  5  6 22 31 30.0060000  0  5  2 19 15 13  6
  22653313.436    -6153387.460 9  -4794812.865 9
  25730970.524    26142395.261 4  20370672.831 2
  25423246.151    -1945298.307 5  -1515803.266 2
  23641678.203    -9079241.743 7  -7074738.081 3
  22441461.501   -11851402.674 9  -9234820.531 9
 91  5  6 22 32  0.0060000  0  5  2 19 15 13  6
  22660886.499    -6113593.887 9  -4763804.883 9
  25752734.854    26256783.351 4  20459806.619 3
  25427743.037    -1921735.164 5  -1497442.291 2
  23628561.991    -9148179.197 7  -7128455.327 4
  22440761.783   -11855065.208 9  -9237674.407 9
 91  5  6 22 32 30.0060000  0  5  2 19 15 13  6
  22668495.230    -6073614.959 9  -4732652.465 9
  25774542.653    26371369.481 4  20549094.740 1
  25432325.665    -1897628.428 5  -1478657.822 4
  23615520.719    -9216710.346 7  -7181855.979 3
  22440130.722   -11858390.587 9  -9240265.579 9
 91  5  6 22 33  0.0060000  0  5  2 19 15 13  6
  22676135.738    -6033454.856 9  -4701358.867 9
  25796388.528    26486149.254 5  20638533.689 2
  25437008.126    -1872980.798 5  -1459451.870 1
  23602555.888    -9284835.532 7  -7234940.290 5
  22439561.714   -11861379.931 9  -9242594.891 9
 91  5  6 22 33 30.0060000  0  5  2 19 15 13  6
  22683812.219    -5993116.089 9  -4669926.058 9
  25818261.390    26601119.515 4  20728121.151 2
  25441808.401    -1847793.516 5  -1439825.358 2
  23589669.914    -9352554.986 7  -7287708.436 4
  22439058.066   -11864033.867 9  -9244662.860 9
 91  5  6 22 34  0.0060000  0  5  2 19 15 13  6
  22691521.691    -5952599.767 9  -4638354.883 9
  25840169.022    26716277.956 4  20817855.205 3
  25446705.814    -1822067.639 6  -1419779.254 4
  23576862.475    -9419867.462 7  -7340159.491 3
  22438614.368   -11866351.366 8  -9246468.669 9
 91  5  6 22 34 30.0060000  0  5  2 19 15 13  6
  22699264.125    -5911906.285 9  -4606645.674 9
  25862127.625    26831623.140 4  20907734.792 1
  25451700.354    -1795802.390 5  -1399312.757 2
  23564131.494    -9486770.375 7  -7392291.374 3
  22438241.727   -11868330.530 8  -9248010.841 9
 91  5  6 22 35  0.0060000  0  5  2 19 15 13  6
  22707042.543    -5871042.512 9  -4574803.752 9
  25884107.204    26947147.095 5  20997753.607 2
  25456798.322    -1769004.118 5  -1378430.946 2
  23551476.352    -9553268.616 7  -7444107.959 3
  22437923.653   -11869976.146 8  -9249293.105 9
 91  5  6 22 35 30.0060000  0  5  2 19 15 13  6
  22714850.337    -5830005.151 9  -4542826.601 9
  25906129.362    27062852.257 4  21087913.707 2
  25462004.821    -1741668.197 5  -1357130.208 2
  23538897.956    -9619355.954 7  -7495604.337 3
  22437680.214   -11871282.663 8  -9250311.148 9
 91  5  6 22 36  0.0060000  0  5  2 19 15 13  6
  22722694.105    -5788793.381 9  -4510713.530 9
  25928165.008    27178738.101 4  21178214.567 1
  25467306.651    -1713793.746 5  -1335409.862 2
  23526402.614    -9685029.199 7  -7546778.070 4
  22437495.241   -11872247.320 8  -9251062.802 9
 91  5  6 22 36 30.0060000  0  5  2 19 15 13  6
  22730567.853    -5747410.836 9  -4478467.392 9
  25950260.011    27294800.757 4  21268653.171 3
  25472702.014    -1685383.540 5  -1313271.949 2
  23513985.205    -9750289.060 7  -7597629.678 4
  22437377.723   -11872870.808 8  -9251548.619 9
 91  5  6 22 37  0.0060000  0  5  2 19 15 13  6
  22738474.285    -5705860.092 9  -4446090.188 9
  25972381.390    27411036.424 4  21359226.623 2
  25478221.195    -1656438.908 6  -1290717.635 4
  23501642.151    -9815135.498 7  -7648159.125 4
  22437323.165   -11873154.123 8  -9251769.358 9
 91  5  6 22 37 30.0060000  0  5  2 19 15 13  6
  22746413.986    -5664139.600 9  -4413580.717 9
  25994544.450    27527445.720 4  21449935.344 3
  25483833.307    -1626958.143 5  -1267745.646 3
  23489379.744    -9879564.865 7  -7698363.577 3
  22437334.857   -11873093.184 8  -9251721.853 9
 91  5  6 22 38  0.0060000  0  5  2 19 15 13  6
  22754387.566    -5622243.233 9  -4380934.211 9
  26016722.795    27644033.948 4  21540783.441 2
  25489539.860    -1596934.166 5  -1244350.266 2
  23477200.975    -9943568.201 7  -7748236.081 3
  22437412.205   -11872679.595 8  -9251399.561 9
 91  5  6 22 38 30.0060000  0  5  2 19 15 13  6
  22762392.627    -5580170.514 9  -4348150.284 9
  26038954.503    27760800.421 5  21631770.528 1
  25495364.228    -1566365.816 5  -1220530.737 2
  23465105.243   -10007142.815 7  -7797774.519 4
  22437558.498   -11871910.692 8  -9250800.391 9
 91  5  6 22 39  0.0060000  0  5  2 19 15 13  6
  22770436.357    -5537919.750 9  -4315227.613 9
  26061186.220    27877746.027 4  21722897.177 2
  25501274.337    -1535251.141 5  -1196285.560 5
  23453091.065   -10070284.276 7  -7846975.423 3
  22437771.950   -11870782.583 8  -9249921.320 9
 91  5  6 22 39 30.0060000  0  5  2 19 15 13  6
  22778506.768    -5495487.856 9  -4282163.814 9
  26083481.186    27994872.396 4  21814164.606 2
  25507304.661    -1503586.553 5  -1171611.832 2
  23441156.625   -10132987.757 7  -7895835.045 4
  22438058.857   -11869290.336 8  -9248758.504 9
 91  5  6 22 40  0.0060000  0  5  2 19 15 13  6
  22786617.350    -5452868.678 9  -4248954.073 9
  26105835.203    28112185.106 4  21905577.261 2
  25513447.112    -1471364.687 6  -1146503.852 2
  23429308.224   -10195244.040 7  -7944346.209 5
  22438410.514   -11867425.221 8  -9247305.148 9
 91  5  6 22 40 30.0060000  0  5  2 19 15 13  6
  22794762.117    -5410065.975 9  -4215601.328 9
  26128158.655    28229679.818 4  21997131.776 3
  25519677.093    -1438589.303 5  -1120964.601 2
  23417546.167   -10257054.539 7  -7992510.017 3
  22438836.814   -11865188.836 8  -9245562.477 9
 91  5  6 22 41  0.0060000  0  4  2 15 13  6
  22802943.451    -5367079.831 9  -4182105.637 9
  25526018.903    -1405260.161 6  -1094993.851 2
  23405871.055   -10318417.431 7  -8040325.047 4
  22439334.468   -11862579.391 8  -9243529.115 9
 91  5  6 22 41 30.0060000  0  4  2 15 13  6
  22811155.367    -5323911.579 9  -4148468.049 9
  25532465.938    -1371377.742 6  -1068591.941 3
  23394277.479   -10379331.722 7  -8087790.509 4
  22439899.279   -11859595.922 8  -9241204.303 9
 91  5  6 22 42  0.0060000  0  4  2 15 13  6
  22819405.655    -5280560.834 9  -4114688.249 9
  25539021.200    -1336941.743 6  -1041758.704 3
  23382770.544   -10439794.704 7  -8134904.303 4
  22440541.133   -11856236.235 8  -9238586.334 9
 91  5  6 22 42 30.0060000  0  4  2 15 13  6
  22827691.917    -5237029.838 9  -4080768.003 9
  25545675.701    -1301953.490 6  -1014495.134 2
  23371355.650   -10499805.881 7  -8181666.055 3
  22441251.043   -11852499.800 8  -9235674.803 9
 91  5  6 22 43  0.0060000  0  4  2 15 13  6
  22836009.363    -5193320.772 9  -4046708.985 9
  25552435.121    -1266415.119 6   -986802.907 3
  23360018.095   -10559365.253 7  -8228075.727 5
  22442032.603   -11848387.280 8  -9232470.212 9
 91  5  6 22 43 30.0060000  0  4  2 15 13  6
  22844358.882    -5149437.096 9  -4012513.913 9
  25559306.363    -1230330.033 6   -958684.621 2
  23348771.979   -10618473.990 7  -8274134.287 4
  22442887.908   -11843899.805 8  -9228973.452 9
 91  5  6 22 44  0.0060000  0  4  2 15 13  6
  22852742.272    -5105382.697 9  -3978185.809 9
  25566276.232    -1193701.128 6   -930142.599 2
  23337607.408   -10677133.865 7  -8319843.073 4
  22443813.372   -11839039.156 8  -9225185.901 9
 91  5  6 22 44 30.0060000  0  4  2 15 13  6
  22861155.955    -5061157.756 9  -3943724.814 9
  25573354.032    -1156528.303 6   -901176.726 3
  23326529.478   -10735342.881 7  -8365200.534 5
  22444811.978   -11833803.348 8  -9221106.031 9
 91  5  6 22 45  0.0060000  0  4  2 15 13  6
  22869605.002    -5016757.455 9  -3909127.175 9
  25580531.368    -1118807.745 6   -871784.087 3
  23315540.290   -10793094.033 7  -8410201.213 4
  22445880.438   -11828185.846 8  -9216728.736 9
 91  5  6 22 45 30.0060000  0  4  2 15 13  6
  22878090.327    -4972180.391 9  -3874391.795 9
  25587812.122    -1080537.470 6   -841963.081 3
  23304637.438   -10850383.532 7  -8454842.178 4
  22447021.446   -11822182.928 8  -9212051.127 9
 91  5  6 22 46  0.0060000  0  4  2 15 13  6
  22886606.234    -4927424.600 9  -3839517.159 9
  25595190.920    -1041714.455 5   -811711.337 3
  23293828.119   -10907207.252 7  -8499120.194 4
  22448236.810   -11815790.324 8  -9207069.853 9
 91  5  6 22 46 30.0060000  0  4  2 15 13  6
  22895156.317    -4882488.895 9  -3804502.323 9
  25602688.729    -1002338.035 6   -781028.414 2
  23283103.643   -10963562.620 8  -8543033.267 5
  22449528.912   -11809005.535 8  -9201782.991 9
 91  5  6 22 47  0.0060000  0  4  2 15 13  6
  22903745.070    -4837370.344 9  -3769345.023 9
  25610288.465     -962404.926 6   -749911.671 3
  23272468.808   -11019443.813 8  -8586576.846 5
  22450893.868   -11801823.053 8  -9196186.236 9
 91  5  6 22 47 30.0060000  0  4  2 15 13  6
  22912362.904    -4792069.072 9  -3734045.325 9
  25617998.826     -921915.335 6   -718361.318 3
  23261924.802   -11074849.430 8  -8629749.861 5
  22452336.468   -11794241.385 8  -9190278.418 9
 91  5  6 22 48  0.0060000  0  4  2 15 13  6
  22921018.805    -4746585.697 9  -3698603.745 9
  25625806.324     -880870.055 6   -686377.986 2
  23251471.040   -11129777.630 8  -8672550.855 5
  22453853.119   -11786258.978 8  -9184058.345 9
 91  5  6 22 48 30.0060000  0  4  2 15 13  6
  22929711.893    -4700914.862 9  -3663016.080 9
  25633717.249     -839263.606 6   -653957.280 1
  23241110.810   -11184221.407 8  -8714974.375 5
  22455450.119   -11777868.421 8  -9177520.224 9
 91  5  6 22 49  0.0060000  0  4  2 15 13  6
  22938436.749    -4655059.561 9  -3627284.686 9
  25641741.191     -797098.794 6   -621101.585 3
  23230844.123   -11238181.478 8  -8757021.001 5
  22457125.358   -11769070.567 8  -9170664.736 9
 91  5  6 22 49 30.0060000  0  4  2 15 13  6
  22947197.884    -4609020.079 9  -3591409.772 9
  25649876.360     -754375.780 6   -587810.908 3
  23220666.170   -11291656.290 8  -8798689.501 5
  22458878.538   -11759863.804 8  -9163490.610 9
 91  5  6 22 50  0.0060000  0  4  2 15 13  6
  22955993.500    -4562800.512 9  -3555394.546 9
  25658110.158     -711098.500 6   -554088.322 5
  23210582.649   -11344647.921 8  -8839981.505 4
  22460706.980   -11750250.261 8  -9155999.518 9
 91  5  6 22 50 30.0060000  0  4  2 15 13  6
  22964818.485    -4516411.384 9  -3519247.180 9
  25666452.785     -667278.484 6   -519942.823 3
  23200589.066   -11397165.142 8  -8880903.824 4
  22462613.059   -11740239.021 8  -9148198.526 9
 91  5  6 22 51  0.0060000  0  4  2 15 13  6
  22973680.352    -4469857.140 9  -3482971.152 9
  25674891.640     -622920.033 6   -485377.816 2
  23190685.422   -11449210.476 8  -8921458.462 5
  22464593.789   -11729832.651 8  -9140089.654 9
 91  5  6 22 51 30.0060000  0  4  2 15 13  6
  22982569.798    -4423141.729 9  -3446569.541 9
  25683447.116     -578027.014 6   -450396.240 2
  23180869.919   -11500785.846 8  -8961646.869 5
  22466649.765   -11719032.493 8  -9131673.930 9
 91  5  6 22 52  0.0060000  0  4  2 15 13  6
  22991488.622    -4376268.161 9  -3410044.697 9
  25692078.447     -532602.402 6   -415000.413 2
  23171143.752   -11551892.159 8  -9001469.796 5
  22468780.088   -11707839.729 8  -9122952.264 9
 91  5  6 22 52 30.0060000  0  4  2 15 13  6
  23000438.925    -4329229.254 9  -3373391.005 8
  25700823.091     -486639.805 6   -379185.405 2
  23161510.220   -11602520.800 8  -9040920.497 4
  22470985.062   -11696245.788 8  -9113918.007 9
 91  5  6 22 53  0.0060000  0  4  2 15 13  6
  23009421.905    -4282025.993 9  -3336609.255 9
  25709677.759     -440140.157 6   -342951.950 3
  23151966.626   -11652670.376 8  -9079997.913 5
  22473267.376   -11684249.397 8  -9104570.156 9
 91  5  6 22 53 30.0060000  0  4  2 15 13  6
  23018437.569    -4234659.951 9  -3299700.662 9
  25718624.765     -393105.404 6   -306301.462 3
  23142514.175   -11702340.897 8  -9118702.047 5
  22475627.344   -11671850.376 8  -9094908.562 9
 91  5  6 22 54  0.0060000  0  4  2 15 13  6
  23027479.006    -4187133.323 9  -3262666.941 9
  25727675.504     -345538.149 6   -269236.067 2
  23133153.450   -11751533.438 8  -9157033.729 5
  22478062.862   -11659049.123 8  -9084933.542 9
 91  5  6 22 54 30.0060000  0  4  2 15 13  6
  23036555.222    -4139443.391 9  -3225505.970 9
  25736829.967     -297435.673 6   -231753.676 2
  23123885.963   -11800242.888 8  -9194988.979 4
  22480576.025   -11645841.127 8  -9074641.579 9
 91  5  6 22 55  0.0060000  0  4  2 15 13  6
  23045662.622    -4091587.029 9  -3188215.304 9
  25746081.557     -248795.558 6   -193852.301 3
  23114708.719   -11848464.982 8  -9232564.470 5
  22483164.730   -11632221.563 8  -9064028.914 9
 91  5  6 22 55 30.0060000  0  4  2 15 13  6
  23054800.594    -4043560.862 9  -3150792.325 9
  25755440.475     -199614.787 6   -155529.675 1
  23105625.304   -11896194.252 8  -9269755.923 5
  22485838.574   -11618185.311 8  -9053091.565 9
 91  5  6 22 56  0.0060000  0  4  2 15 13  6
  23063973.641    -3995359.516 9  -3113232.852 9
  25764902.228     -149888.433 6   -116781.809 2
  23096637.535   -11943423.820 8  -9306558.020 5
  22488591.276   -11603725.169 8  -9041823.896 9
 91  5  6 22 56 30.0060000  0  4  2 15 13  6
  23073179.670    -3946977.255 9  -3075532.390 9
  25774474.606      -99611.180 6    -77604.731 3
  23087746.282   -11990146.323 8  -9342964.990 4
  22491422.810   -11588833.492 8  -9030219.981 9
 91  5  6 22 57  0.0060000  0  4  2 15 13  6
  23082420.171    -3898416.026 9  -3037692.475 9
  25784146.206      -48785.490 6    -38000.315 2
  23078950.971   -12036362.372 8  -9378977.330 5
  22494342.188   -11573510.521 8  -9018279.990 9
 91  5  6 22 57 30.0060000  0  4  2 15 13  6
  23091694.857    -3849680.189 9  -2999716.501 9
  25793922.437        2583.867 6      2027.713 2
  23070251.601   -12082074.432 8  -9414596.941 5
  22497335.615   -11557758.931 8  -9006006.013 9
 91  5  6 22 58  0.0060000  0  4  2 15 13  6
  23101002.209    -3800768.621 9  -2961603.601 9
  25803796.704       54497.189 6     42479.706 3
  23061651.148   -12127279.602 8  -9449821.579 6
  22500415.090   -11541575.911 8  -8993395.853 9
 91  5  6 22 58 30.0060000  0  4  2 15 13  6
  23110344.943    -3751672.182 9  -2923346.634 8
  25813781.893      106963.249 6     83362.312 2
  23053147.238   -12171967.427 8  -9484643.095 5
  22503581.799   -11524950.371 8  -8980440.883 9
 91  5  6 22 59  0.0060000  0  4  2 15 13  6
  23119728.143    -3702366.855 9  -2884926.913 9
  25823876.198      160006.282 6    124694.533 1
  23044746.154   -12216111.922 8  -9519041.238 5
  22506832.443   -11507856.595 8  -8967121.047 9
 91  5  6 22 59 30.0060000  0  4  2 15 13  6
  23129156.914    -3652831.953 9  -2846328.282 9
  25834091.634      213645.844 6    166491.589 1
  23036448.802   -12259691.204 8  -9552998.973 5
  22510180.223   -11490272.108 8  -8953418.851 9
 91  5  6 23  0  0.0060000  0  4  2 15 13  6
  23138621.965    -3603066.487 9  -2807550.014 9
  25844399.993      267881.900 5    208753.503 2
  23028267.765   -12302702.775 8  -9586514.314 6
  22513620.647   -11472194.355 8  -8939332.278 9
 91  5  6 23  0 30.0060000  0  4  2 15 13  6
  23148137.080    -3553079.003 9  -2768598.730 9
  25854840.868      322705.066 5    251472.863 2
  23020187.756   -12345153.867 8  -9619592.934 5
  22517152.501   -11453630.461 8  -8924866.899 9
 91  5  6 23  1  0.0060000  0  4  2 15 13  6
  23157690.865    -3502872.779 9  -2729477.011 9
  25865381.271      378111.442 6    294646.639 2
  23012215.074   -12387046.785 8  -9652236.596 5
  22520776.694   -11434582.261 8  -8910024.133 9
 91  5  6 23  1 30.0060000  0  4  2 15 13  6
  23167285.719    -3452451.868 9  -2690188.000 9
  25876039.489      434096.314 5    338271.275 2
  23004352.119   -12428383.320 8  -9684446.739 4
  22524493.817   -11415051.960 8  -8894805.710 9
 91  5  6 23  2  0.0070000  0  4  2 15 13  6
  23176919.551    -3401823.024 9  -2650736.968 9
  25886797.542      490652.650 5    382341.125 2
  22996589.891   -12469172.520 8  -9716230.357 5
  22528295.786   -11395045.635 8  -8879216.359 9
 91  5  6 23  2 30.0070000  0  4  2 15 13  6
  23186591.456    -3350996.533 9  -2611131.926 9
  25897666.821      547768.719 5    426847.142 3
  22988932.892   -12509417.430 8  -9747589.862 5
  22532196.983   -11374570.266 8  -8863261.525 9
 91  5  6 23  3  0.0070000  0  4  2 15 13  6
  23196300.539    -3299972.549 9  -2571372.994 9
  25908644.020      605443.842 5    471788.745 2
  22981376.922   -12549119.482 8  -9778526.362 5
  22536182.124   -11353625.099 8  -8846940.596 9
 91  5  6 23  3 30.0070000  0  4  2 15 13  6
  23206048.885    -3248749.812 9  -2531459.193 9
  25919720.755      663678.377 5    517166.319 1
  22973924.082   -12588275.988 8  -9809037.772 5
  22540260.798   -11332207.373 8  -8830251.450 9
 91  5  6 23  4  0.0070000  0  4  2 15 13  6
  23215834.112    -3197329.667 9  -2491391.573 9
  25930906.004      722470.009 5    562977.955 2
  22966577.671   -12626887.969 8  -9839124.876 6
  22544425.223   -11310317.240 8  -8813194.204 9
 91  5  6 23  4 30.0070000  0  4  2 15 13  6
  23225655.016    -3145713.411 9  -2451171.132 9
  25942209.086      781816.921 5    609222.269 1
  22959331.983   -12664955.166 8  -9868787.475 5
  22548680.171   -11287954.328 8  -8795768.551 9
 91  5  6 23  5  0.0070000  0  4  2 15 13  6
  23235514.590    -3093899.497 9  -2410796.668 9
  25953608.092      841719.572 5    655899.705 1
  22952193.029   -12702474.195 8  -9898022.925 6
  22553027.168   -11265115.381 8  -8777971.961 9
 91  5  6 23  5 30.0070000  0  4  2 15 13  6
  23245412.537    -3041886.993 9  -2370267.459 9
  25965105.429      902177.857 5    703010.097 2
  22945156.595   -12739442.906 8  -9926829.570 6
  22557463.494   -11241797.988 8  -8759802.551 9
 91  5  6 23  6  0.0070000  0  4  2 15 13  6
  23255348.254    -2989679.151 9  -2329586.048 9
  25976720.591      963187.372 5    750549.955 2
  22938227.498   -12775863.729 8  -9955209.293 5
  22561991.258   -11218004.165 8  -8741261.910 9
 91  5  6 23  6 30.0070000  0  4  2 15 13  6
  23265321.150    -2937279.878 9  -2288755.468 9
  25988430.184     1024743.646 5    798515.872 2
  22931399.123   -12811739.607 8  -9983164.372 5
  22566606.867   -11193736.284 8  -8722351.860 9
 91  5  6 23  7  0.0070000  0  4  2 15 13  6
  23275328.527    -2884692.223 9  -2247778.090 8
  26000250.404     1086842.140 5    846904.335 2
  22924674.175   -12847072.496 8 -10010696.356 5
  22571313.601   -11168995.958 8  -8703073.677 9
 91  5  6 23  7 30.0070000  0  4  2 15 13  6
  23285370.673    -2831919.182 9  -2206656.257 9
  26012173.151     1149478.673 6    895712.017 4
  22918058.955   -12881864.189 8 -10037806.615 6
  22576113.283   -11143785.012 8  -8683428.759 9
 91  5  6 23  8  0.0070000  0  4  2 15 13  6
  23295445.801    -2778962.288 9  -2165391.160 9
  26024183.735     1212650.731 5    944936.967 3
  22911535.776   -12916114.992 8 -10064495.417 6
  22581001.394   -11118103.252 8  -8663416.989 9
 91  5  6 23  8 30.0070000  0  4  2 15 13  6
  23305558.699    -2725824.291 9  -2123984.956 9
  26036315.737     1276354.566 6    994576.310 2
  22905122.314   -12949827.017 8 -10090764.384 6
  22585977.655   -11091952.208 8  -8643039.541 9
 91  5  6 23  9  0.0070000  0  4  2 15 13  6
  23315703.375    -2672501.401 9  -2082434.671 8
  26048543.366     1340593.235 6   1044632.460 2
  22898814.078   -12982995.226 8 -10116609.611 5
  22591046.848   -11065326.581 8  -8622292.287 9
 91  5  6 23  9 30.0070000  0  4  2 15 13  6
  23325890.620    -2618975.597 9  -2040726.265 8
  26060869.040     1405382.513 6   1095117.560 2
  22892607.175   -13015600.944 8 -10142016.526 6
  22596206.275   -11038207.160 8  -8601160.252 9
 91  5  6 23 10  0.0070000  0  4  2 15 13  6
  23336112.949    -2565257.068 9  -1998867.680 9
  26073296.029     1470711.199 5   1146022.995 3
  22886505.506   -13047653.898 8 -10166992.717 6
  22601459.236   -11010603.317 8  -8579650.753 9
 91  5  6 23 10 30.0070000  0  4  2 15 13  6
  23346368.546    -2511356.971 9  -1956867.626 8
  26085828.854     1536567.613 6   1197339.693 2
  22880510.248   -13079163.753 8 -10191545.718 6
  22606802.737   -10982524.206 8  -8557770.922 9
 91  5  6 23 11  0.0070000  0  4  2 15 13  6
  23356659.524    -2457286.410 9  -1914734.727 8
  26098458.815     1602939.486 6   1249058.038 3
  22874616.036   -13110140.346 8 -10215683.184 6
  22612229.876   -10953979.667 8  -8535528.416 9
 91  5  6 23 11 30.0070000  0  4  2 15 13  6
  23366978.981    -2403047.539 9  -1872470.685 8
  26111184.108     1669823.075 6   1301175.108 3
  22868819.248   -13140585.341 8 -10239406.420 6
  22617756.552   -10924970.593 8  -8512923.933 9
 91  5  6 23 12  0.0070000  0  4  2 15 13  6
  23377333.513    -2348636.660 9  -1830072.600 8
  26124007.723     1737220.332 6   1353692.421 3
  22863131.585   -13170494.521 8 -10262712.139 6
  22623362.976   -10895492.451 8  -8489953.940 9
 91  5  6 23 12 30.0070000  0  4  2 15 13  6
  23387720.415    -2294047.336 9  -1787535.476 8
  26136941.371     1805136.644 6   1406614.236 4
  22857541.949   -13199860.016 8 -10285594.210 5
  22629063.822   -10865537.731 8  -8466612.598 9
 91  5  6 23 13  0.0070000  0  4  2 15 13  6
  23398142.705    -2239275.152 9  -1744855.848 8
  26149956.258     1873575.331 5   1459943.068 3
  22852058.453   -13228677.102 8 -10308048.951 6
  22634855.515   -10835100.464 8  -8442895.248 9
 91  5  6 23 13 30.0070000  0  4  2 15 13  6
  23408603.657    -2184320.099 9  -1702033.740 7
  26163079.677     1942535.059 6   1513677.948 3
  22846678.071   -13256944.802 8 -10330075.599 6
  22640738.044   -10804179.200 8  -8418800.766 9
 91  5  6 23 14  0.0070000  0  4  2 15 13  6
  23419090.697    -2129191.409 9  -1659076.321 8
  26176299.621     2012005.590 5   1567810.844 2
  22841402.024   -13284671.737 8 -10351680.878 6
  22646715.302   -10772782.218 8  -8394335.581 9
 91  5  6 23 14 30.0070000  0  4  2 15 13  6
  23429614.915    -2073887.507 9  -1615982.380 7
  26189623.604     2081986.082 5   1622341.091 2
  22836230.007   -13311856.158 8 -10372863.407 6
  22652778.904   -10740907.040 8  -8369497.791 9
 91  5  6 23 15  0.0070000  0  4  2 15 13  6
  23440173.003    -2018409.067 9  -1572752.423 7
  26203025.223     2152475.043 5   1677267.559 2
  22831158.720   -13338497.478 8 -10393622.751 6
  22658937.845   -10708552.913 8  -8344286.780 9
 91  5  6 23 15 30.0070000  0  4  2 15 13  6
  23450763.174    -1962760.662 9  -1529390.043 8
  26216543.767     2223466.324 6   1732585.418 2
  22826190.853   -13364599.610 8 -10413961.949 6
  22665181.925   -10675723.471 8  -8318705.410 9
 91  5  6 23 16  0.0070000  0  4  2 15 13  6
  23461387.216    -1906938.560 9  -1485892.307 8
  26230152.546     2294961.866 6   1788296.262 2
  22821328.227   -13390158.353 8 -10433877.730 6
  22671519.530   -10642413.921 8  -8292749.905 9
 91  5  6 23 16 30.0070000  0  4  2 15 13  6
  23472041.847    -1850942.521 9  -1442259.031 8
  26243849.161     2366961.002 6   1844399.498 2
  22816568.715   -13415172.605 8 -10453369.232 7
  22677953.679   -10608622.630 8  -8266419.039 9
 91  5  6 23 17  0.0070000  0  4  2 15 13  6
  23482730.943    -1794770.457 9  -1398488.602 8
  26257644.413     2439463.959 6   1900895.287 1
  22811912.046   -13439640.359 8 -10472434.890 6
  22684476.265   -10574346.803 8  -8239710.602 8
 91  5  6 23 17 30.0070000  0  4  2 15 13  6
  23493456.920    -1738417.282 9  -1354577.040 8
  26271538.591     2512473.617 5   1957785.956 1
  22807361.492   -13463556.260 8 -10491070.527 6
  22691091.485   -10539580.558 8  -8212620.030 9
 91  5  6 23 18  0.0070000  0  4  2 15 13  6
  23504209.273    -1681883.877 9  -1310525.048 7
  26285522.715     2585987.864 5   2015069.817 2
  22802916.171   -13486920.057 8 -10509275.967 6
  22697799.637   -10504323.174 8  -8185146.750 8
 91  5  6 23 18 30.0070000  0  4  2 15 13  6
  23515005.697    -1625165.145 9  -1266328.645 7
  26299612.955     2660010.261 5   2072749.568 3
  22798575.473   -13509726.268 8 -10527046.931 6
  22704605.230   -10468569.113 8  -8157286.449 9
 91  5  6 23 19  0.0070000  0  4  2 15 13  6
  23525834.805    -1568258.393 9  -1221985.731 8
  26313788.639     2734541.877 5   2130826.149 2
  22794341.509   -13531972.118 8 -10544381.249 7
  22711504.348   -10432314.445 8  -8129036.060 9
 91  5  6 23 19 30.0070000  0  4  2 15 13  6
  23536701.378    -1511158.949 9  -1177492.673 8
  26328071.354     2809585.400 5   2189301.584 2
  22790215.763   -13553652.299 8 -10561274.781 7
  22718497.314   -10395554.015 8  -8100391.579 9
 91  5  6 23 20  0.0070000  0  4  2 15 13  6
  23547606.028    -1453859.773 9  -1132843.987 8
  26342455.394     2885146.730 5   2248180.533 2
  22786199.142   -13574759.067 8 -10577721.509 6
  22725592.502   -10358279.235 8  -8071346.300 9
 91  5  6 23 20 30.0070000  0  4  2 15 13  6
  23558545.761    -1396351.252 9  -1088032.162 7
  26356930.874     2961233.305 5   2307468.753 2
  22782294.045   -13595282.965 8 -10593714.050 6
  22732785.718   -10320479.761 8  -8041892.176 9
 91  5  6 23 21  0.0070000  0  4  2 15 13  6
  23569535.551    -1338625.410 9  -1043050.997 8
  26371512.485     3037851.754 5   2367171.482 1
  22778500.769   -13615215.416 8 -10609245.718 6
  22740079.368   -10282146.962 8  -8012022.469 8
 91  5  6 23 21 30.0070000  0  4  2 15 13  6
  23580558.321    -1280684.607 9   -997902.344 8
  26386190.317     3114998.020 5   2427285.430 2
  22774821.722   -13634558.182 8 -10624317.897 7
  22747477.649   -10243282.127 8  -7981738.188 9
 91  5  6 23 22  0.0070000  0  4  2 15 13  6
  23591624.560    -1222540.438 9   -952595.217 7
  26400977.588     3192658.666 5   2487800.199 3
  22771250.290   -13653322.888 8 -10638939.644 6
  22754969.464   -10203895.965 8  -7951047.683 9
 91  5  6 23 22 30.0070000  0  4  2 15 13  6
  23602725.874    -1164202.958 9   -907137.450 7
  26415848.785     3270821.580 5   2548706.337 3
  22767785.288   -13671519.456 8 -10653118.690 7
  22762562.010   -10163998.101 8  -7919958.441 8
 91  5  6 23 23  0.0070000  0  4  2 15 13  6
  23613861.067    -1105674.870 9   -861531.162 7
  26430815.628     3349482.797 5   2610000.764 2
  22764430.911   -13689149.857 8 -10666856.562 7
  22770250.786   -10123590.092 8  -7888471.693 9
 91  5  6 23 23 30.0070000  0  4  2 15 13  6
  23625036.125    -1046958.340 9   -815778.042 7
  26445879.895     3428637.633 4   2671679.849 1
  22761186.855   -13706216.537 8 -10680155.169 7
  22778035.197   -10082673.309 8  -7856588.491 9
 91  5  6 23 24  0.0070000  0  4  2 15 13  6
  23636243.266     -988056.028 9   -769880.151 7
  26461034.109     3508281.749 5   2733740.184 3
  22758042.631   -13722722.976 9 -10693017.236 6
  22785920.339   -10041250.066 8  -7824310.649 8
 91  5  6 23 24 30.0070000  0  4  2 15 13  6
  23647488.186     -928968.761 9   -723838.145 7
  26476282.755     3588412.468 5   2796179.691 2
  22755009.635   -13738668.846 8 -10705442.492 7
  22793899.312    -9999320.200 8  -7791638.030 9
 91  5  6 23 25  0.0070000  0  4  2 15 13  6
  23658764.875     -869698.949 9   -677653.893 7
  26491618.337     3669025.769 5   2858995.230 1
  22752080.659   -13754056.532 9 -10717432.795 6
  22801976.616    -9956885.190 8  -7758571.797 8
 91  5  6 23 25 30.0070000  0  4  2 15 13  6
  23670081.140     -810254.971 9   -631333.930 7
  26507051.048     3750111.119 5   2922178.618 2
  22749256.621   -13768893.814 9 -10728994.217 7
  22810143.266    -9913952.722 8  -7725117.933 8
 91  5  6 23 26  0.0070000  0  4  2 15 13  6
  23681423.494     -750634.412 9   -584876.368 7
  26522567.110     3831668.979 5   2985730.159 3
  22746537.196   -13783178.722 9 -10740125.222 7
  22818409.146    -9870520.174 8  -7691274.394 8
 91  5  6 23 26 30.0070000  0  4  2 15 13  6
  23692802.711     -690834.075 9   -538278.724 7
  26538179.401     3913700.618 5   3049650.884 2
  22743924.506   -13796907.774 9 -10750823.093 7
  22826765.558    -9826583.081 8  -7657037.706 8
 91  5  6 23 27  0.0070000  0  4  2 15 13  6
  23704219.708     -630849.085 9   -491537.196 7
  26553885.827     3996208.682 5   3113942.927 2
  22741416.744   -13810076.568 9 -10761084.395 7
  22835227.204    -9782136.034 8  -7622403.656 8
 91  5  6 23 27 30.0070000  0  4  2 15 13  6
  23715670.279     -570667.311 9   -444642.344 7
  26569676.494     4079203.654 5   3178614.338 1
  22739022.303   -13822672.270 9 -10770899.126 7
  22843782.679    -9737166.553 8  -7587362.511 9
 91  5  6 23 28  0.0070000  0  4  2 15 13  6
  23727164.929     -510270.284 9   -397579.751 7
  26585563.094     4162702.045 5   3243677.923 2
  22736739.379   -13834677.016 9 -10780253.389 7
  22852443.684    -9691655.695 8  -7551899.514 8
 91  5  6 23 28 30.0070000  0  4  2 15 13  6
  23738703.040     -449645.456 9   -350339.665 7
  26601554.927     4246714.164 5   3309141.850 1
  22734565.884   -13846078.118 9 -10789137.260 7
  22861211.415    -9645590.296 8  -7516004.412 9
 91  5  6 23 29  0.0070000  0  4  2 15 13  6
  23750282.219     -388784.201 8   -302915.336 7
  26617637.589     4331246.363 5   3375011.106 2
  22732515.606   -13856868.215 9 -10797545.035 7
  22870085.567    -9598961.516 8  -7479670.311 8
 91  5  6 23 29 30.0070000  0  4  2 15 13  6
  23761907.571     -327687.424 8   -255307.482 7
  26633825.187     4416295.790 5   3441283.382 2
  22730577.148   -13867047.125 9 -10805476.563 7
  22879065.553    -9551769.385 8  -7442897.227 9
 91  5  6 23 30  0.0070000  0  4  2 15 13  6
  23773579.097     -266367.071 8   -207525.420 7
  26650101.215     4501848.636 5   3507947.893 2
  22728755.014   -13876626.843 9 -10812941.188 7
  22888149.264    -9504025.301 8  -7405694.053 8
 91  5  6 23 30 30.0070000  0  4  2 15 13  6
  23785286.588     -204834.852 8   -159578.265 7
  26666472.887     4587890.526 5   3574993.486 1
  22727044.692   -13885620.158 9 -10819948.878 6
  22897337.301    -9455740.633 8  -7368069.650 8
 91  5  6 23 31  0.0070000  0  4  2 15 13  6
  23797038.158     -143088.932 8   -111464.594 7
  26682944.680     4674421.465 5   3642420.163 3
  22725442.902   -13894025.280 9 -10826498.231 7
  22906629.368    -9406913.238 8  -7330022.344 8
 91  5  6 23 31 30.0070000  0  4  2 15 13  6
  23808828.991      -81123.205 8    -63179.636 7
  26699502.223     4761445.462 5   3710231.069 2
  22723959.232   -13901835.515 9 -10832584.050 7
  22916028.465    -9357536.305 8  -7291546.825 8
 91  5  6 23 32  0.0070000  0  4  2 15 13  6
  23820663.301      -18938.420 8    -14723.984 7
  26716156.885     4848960.036 5   3778424.197 3
  22722584.382   -13909052.487 9 -10838207.568 7
  22925526.488    -9307610.321 8  -7252643.476 8
 91  5  6 23 32 30.0070000  0  4  2 15 13  6
  23832535.679       43463.709 8     33901.026 6
  26732899.697     4936961.254 5   3846996.489 3
  22721325.854   -13915678.070 9 -10843370.275 8
  22935129.142    -9257136.540 8  -7213313.277 8
 91  5  6 23 33  0.0070000  0  5  2 15 13  6 12
  23844450.931      106080.796 8     82693.531 7
  26749734.847     5025443.833 5   3915943.923 2
  22720176.452   -13921714.813 9 -10848074.151 7
  22944839.115    -9206116.997 8  -7173557.811 9
  27084563.151    -2215070.231 6  -1726028.548 1
 91  5  6 23 33 30.0070000  0  5  2 15 13  6 12
  23856409.051      168910.980 8    131652.088 7
  26766669.525     5114404.093 5   3985263.559 2
  22719137.972   -13927165.409 9 -10852321.291 7
  22954648.624    -9154553.382 8  -7133378.392 8
  27070599.714    -2288410.089 5  -1783176.304 2
 91  5  6 23 34  0.0080000  0  5  2 15 13  6 12
  23868404.648      231954.146 8    180776.608 7
  26783692.032     5203840.583 5   4054954.326 2
  22718213.707   -13932032.588 9 -10856113.821 7
  22964565.158    -9102445.800 8  -7092775.101 9
  27056652.770    -2361759.796 5  -1840332.137 2
 91  5  6 23 34 30.0080000  0  5  2 15 13  6 12
  23880443.414      295217.930 8    230073.058 7
  26800801.491     5293756.702 5   4125018.763 2
  22717397.072   -13936303.777 9 -10859441.940 8
  22974588.127    -9049785.234 8  -7051740.914 8
  27042688.434    -2435100.729 5  -1897480.741 1
 91  5  6 23 35  0.0080000  0  5  2 15 13  6 12
  23892525.648      358712.068 8    279548.982 6
  26817998.488     5384160.572 5   4195463.332 2
  22716698.557   -13939973.053 9 -10862301.035 7
  22984719.610    -8996562.532 8  -7010268.708 8
  27028743.293    -2508426.316 5  -1954617.374 1
 91  5  6 23 35 30.0080000  0  5  2 15 13  6 12
  23904654.648      422442.091 8    329208.731 6
  26835305.806     5475055.492 5   4266290.552 2
  22716114.865   -13943035.059 9 -10864686.935 7
  22994953.325    -8942771.714 8  -6968353.811 8
  27014790.047    -2581729.635 5  -2011736.579 2
 91  5  6 23 36  0.0080000  0  5  2 15 13  6 12
  23916823.531      486404.484 8    379049.532 6
  26852692.566     5566436.051 5   4337496.156 2
  22715651.082   -13945493.885 8 -10866602.833 7
  23005296.462    -8888416.493 8  -6925999.115 8
  27000849.399    -2655012.620 5  -2068839.968 2
 91  5  6 23 36 30.0080000  0  5  2 15 13  6 12
  23929039.775      550597.868 8    429070.333 6
  26870172.868     5658298.162 5   4409077.000 4
  22715294.329   -13947350.881 9 -10868049.756 7
  23015749.325    -8833497.548 8  -6883205.173 8
  26986903.953    -2728274.962 5  -2125927.713 2
 91  5  6 23 37  0.0080000  0  5  2 15 13  6 12
  23941303.377      615027.080 8    479274.887 6
  26887744.600     5750644.063 5   4481034.875 2
  22715058.690   -13948602.141 9 -10869024.686 7
  23026307.117    -8778010.404 8  -6839968.451 8
  26972967.503    -2801510.809 5  -2182994.443 2
 91  5  6 23 37 30.0080000  0  5  2 15 13  6 12
  23953604.167      679687.997 8    529660.004 7
  26905401.778     5843468.022 5   4553365.222 1
  22714933.982   -13949252.540 9 -10869531.414 7
  23036972.237    -8721958.571 8  -6796291.731 8
  26959037.046    -2874722.099 5  -2240042.448 2
 91  5  6 23 38  0.0080000  0  5  2 15 13  6 12
  23965955.614      744567.971 8    580215.815 7
  26923158.788     5936754.610 5   4626056.085 3
  22714921.383   -13949314.948 9 -10869579.973 7
  23047742.877    -8665354.539 8  -6752184.717 8
  26945103.894    -2947919.838 5  -2297079.440 1
 91  5  6 23 38 30.0080000  0  5  2 15 13  6 12
  23978342.136      809665.407 8    630941.068 6
  26940995.240     6030500.003 5   4699104.410 4
  22715022.115   -13948791.519 9 -10869172.021 8
  23058618.752    -8608200.035 8  -6707648.772 9
  26931175.531    -3021104.321 5  -2354106.550 2
 91  5  6 23 39  0.0080000  0  5  2 15 13  6 12
  23990769.737      874979.757 8    681835.338 6
  26958930.024     6124701.315 5   4772508.047 2
  22715233.768   -13947682.781 9 -10868307.994 8
  23069600.444    -8550495.308 8  -6662684.079 7
  26917253.774    -3094274.471 5  -2411122.052 1
 91  5  6 23 39 30.0080000  0  4  2 13  6 12
  24003236.608      940493.589 8    732885.057 6
  22715549.452   -13946007.252 9 -10867002.315 7
  23080682.580    -8492257.529 8  -6617304.014 8
  26903329.617    -3167445.722 5  -2468138.368 2
 91  5  6 23 40  0.0080000  0  4  2 13  6 12
  24015737.953     1006193.389 8    784079.678 6
  22715975.760   -13943779.962 9 -10865266.688 7
  23091862.437    -8433500.416 8  -6571519.278 7
  26889402.153    -3240630.035 5  -2525164.885 2
 91  5  6 23 40 30.0080000  0  4  2 13  6 12
  24028277.365     1072083.298 8    835422.444 6
  22716504.293   -13940997.025 9 -10863098.096 8
  23103147.825    -8374219.948 8  -6525326.732 8
  26875486.686    -3313822.115 5  -2582197.485 2
 91  5  6 23 41  0.0080000  0  4  2 13  6 12
  24040853.066     1138168.389 8    886917.298 6
  22717141.653   -13937654.021 9 -10860493.083 8
  23114524.651    -8314410.970 8  -6478722.359 7
  26861547.234    -3387015.101 5  -2639230.782 2
 91  5  6 23 41 30.0080000  0  4  2 13  6 12
  24053464.434     1204450.793 8    938565.892 6
  22717884.832   -13933749.415 9 -10857450.462 8
  23126006.999    -8254071.341 8  -6431704.496 7
  26847623.374    -3460205.003 6  -2696261.646 2
 91  5  6 23 42  0.0080000  0  4  2 13  6 12
  24066113.277     1270927.750 8    990366.095 6
  22718732.651   -13929287.405 9 -10853973.503 8
  23137591.283    -8193204.065 8  -6384275.484 8
  26833693.223    -3533393.135 6  -2753291.166 3
 91  5  6 23 42 30.0080000  0  4  2 13  6 12
  24078798.992     1337591.933 8   1042312.196 6
  22719685.991   -13924275.813 8 -10850068.300 8
  23149274.195    -8131816.542 8  -6336441.075 8
  26819761.266    -3606585.104 6  -2810323.678 3
 91  5  6 23 43  0.0080000  0  4  2 13  6 12
  24091524.580     1404441.416 8   1094402.676 6
  22720743.657   -13918717.414 8 -10845737.015 8
  23161053.039    -8069910.637 8  -6288202.753 8
  26805834.709    -3679781.224 6  -2867359.421 3
 91  5  6 23 43 30.0080000  0  4  2 13  6 12
  24104278.657     1471479.150 8   1146639.829 6
  22721907.151   -13912609.309 9 -10840977.376 8
  23172932.615    -8007483.387 8  -6239558.170 7
  26791907.847    -3752976.630 6  -2924394.617 3
 91  5  6 23 44  0.0080000  0  4  2 13  6 12
  24117074.098     1538711.391 8   1199028.559 6
  22723170.773   -13905946.756 8 -10835785.712 8
  23184912.015    -7944528.817 8  -6190502.699 8
  26777973.796    -3826163.716 6  -2981423.319 3
 91  5  6 23 44 30.0080000  0  4  2 13  6 12
  24129903.411     1606122.261 8   1251556.479 6
  22724546.226   -13898747.041 9 -10830175.478 8
  23196988.561    -7881062.969 8  -6141048.831 7
  26764052.632    -3899356.531 6  -3038456.450 2
 91  5  6 23 45  0.0080000  0  4  2 13  6 12
  24142764.213     1673715.225 8   1304226.294 6
  22726020.001   -13891007.350 8 -10824144.486 8
  23209168.830    -7817082.563 8  -6091194.014 8
  26750126.076    -3972549.866 6  -3095490.006 3
 91  5  6 23 45 30.0080000  0  4  2 13  6 12
  24155658.886     1741487.757 8   1357036.024 6
  22727593.016   -13882730.863 8 -10817695.212 8
  23221439.029    -7752590.456 8  -6040940.470 8
  26736194.721    -4045744.609 6  -3152524.627 1
 91  5  6 23 46  0.0080000  0  4  2 13  6 12
  24168589.532     1809431.352 8   1409979.046 6
  22729267.059   -13873927.658 9 -10810835.505 8
  23233806.967    -7687595.663 8  -5990295.207 8
  26722263.662    -4118947.586 5  -3209565.681 3
 91  5  6 23 46 30.0080000  0  4  2 13  6 12
  24181549.259     1877548.019 8   1463056.942 6
  22731042.130   -13864596.269 9 -10803564.239 8
  23246268.743    -7622096.109 8  -5939256.632 8
  26708329.009    -4192154.498 5  -3266610.276 2
 91  5  6 23 47  0.0080000  0  4  2 13  6 12
  24194547.062     1945840.928 8   1516272.154 6
  22732920.323   -13854734.225 8 -10795879.462 9
  23258828.546    -7556088.628 8  -5887822.272 7
  26694404.852    -4265360.303 6  -3323653.981 5
 91  5  6 23 47 30.0080000  0  4  2 13  6 12
  24207579.941     2014320.428 8   1569632.770 6
  22734895.356   -13844332.836 8 -10787774.427 8
  23271487.283    -7489563.613 8  -5835984.644 7
  26680474.989    -4338553.331 5  -3380687.267 2
 91  5  6 23 48  0.0080000  0  4  2 13  6 12
  24220645.198     2082983.914 8   1623136.746 6
  22736978.319   -13833395.473 8 -10779251.756 8
  23284245.556    -7422524.066 8  -5783746.090 8
  26666543.939    -4411734.518 5  -3437711.786 2
 91  5  6 23 48 30.0080000  0  4  2 13  6 12
  24233747.022     2151831.192 8   1676783.937 6
  22739159.910   -13821923.476 8 -10770312.478 9
  23297102.755    -7354969.971 8  -5731106.576 7
  26652624.869    -4484902.008 6  -3494725.650 2
 91  5  6 23 49  0.0080000  0  4  2 13  6 12
  24246885.134     2220872.615 8   1730582.408 6
  22741447.320   -13809907.651 9 -10760949.432 9
  23310060.379    -7286891.962 8  -5678058.818 8
  26638705.205    -4558043.930 6  -3551719.109 3
 91  5  6 23 49 30.0080000  0  4  2 13  6 12
  24260051.716     2290078.705 8   1784509.189 6
  22743830.976   -13797378.681 9 -10751186.546 8
  23323105.848    -7218319.328 8  -5624625.651 7
  26624781.048    -4631187.519 6  -3608714.351 4
 91  5  6 23 50  0.0080000  0  4  2 13  6 12
  24273252.779     2359436.828 8   1838554.442 7
  22746314.753   -13784349.816 9 -10741034.123 8
  23336246.952    -7149265.314 8  -5570817.366 8
  26610861.088    -4704343.636 6  -3665718.913 3
 91  5  6 23 50 30.0080000  0  4  2 13  6 12
  24286480.219     2428943.141 8   1892715.161 6
  22748885.475   -13770826.562 9 -10730496.464 8
  23349478.292    -7079734.178 8  -5516637.306 8
  26596937.821    -4777514.215 6  -3722735.176 3
 91  5  6 23 51  0.0080000  0  4  2 13  6 12
  24299733.441     2498601.038 8   1946994.000 6
  22751553.928   -13756806.731 9 -10719571.863 8
  23362799.867    -7009722.986 8  -5462083.180 7
  26583016.360    -4850693.921 6  -3779758.108 1
 91  5  6 23 51 30.0080000  0  4  2 13  6 12
  24313016.948     2568407.331 8   2001388.484 6
  22754315.014   -13742294.417 9 -10708263.519 8
  23376216.484    -6939235.342 8  -5407157.794 7
  26569081.707    -4923884.086 6  -3836789.208 2
 91  5  6 23 52  0.0080000  0  4  2 13  6 12
  24326329.231     2638373.435 8   2055907.486 6
  22757172.941   -13727280.015 9 -10696563.926 8
  23389720.335    -6868260.884 8  -5351853.067 7
  26555155.447    -4997072.085 6  -3893818.628 2
 91  5  6 23 52 30.0080000  0  4  2 13  6 12
  24339675.096     2708500.218 8   2110551.689 6
  22760125.893   -13711763.701 9 -10684473.239 8
  23403318.923    -6796798.822 8  -5296168.392 7
  26541234.885    -5070254.827 6  -3950844.389 3
 91  5  6 23 53  0.0080000  0  4  2 13  6 12
  24353052.433     2778788.442 8   2165321.691 6
  22763171.488   -13695745.773 9 -10671991.683 9
  23417012.240    -6724848.921 8  -5240103.582 7
  26527306.828    -5143429.574 6  -4007863.512 2
 91  5  6 23 53 30.0080000  0  4  2 13  6 12
  24366457.656     2849236.918 8   2220216.564 5
  22766314.805   -13679228.579 9 -10659121.093 8
  23430797.292    -6652412.779 8  -5183659.900 7
  26513385.664    -5216595.243 6  -4064875.486 3
 91  5  6 23 54  0.0080000  0  4  2 13  6 12
  24379893.451     2919850.779 8   2275240.306 6
  22769554.665   -13662209.160 9 -10645859.149 9
  23444673.191    -6579486.552 8  -5126834.326 8
  26499457.005    -5289745.592 6  -4121875.572 2
 91  5  6 23 54 30.0080000  0  4  2 13  6 12
  24393362.829     2990628.079 8   2330391.413 6
  22772888.058   -13644690.018 9 -10632207.819 8
  23458644.716    -6506072.012 8  -5069628.246 7
  26485542.742    -5362880.030 6  -4178863.248 2
 91  5  6 23 55  0.0080000  0  4  2 13  6 12
  24406862.780     3061570.941 8   2385671.516 5
  22776318.884   -13626670.814 9 -10618166.826 8
  23472709.182    -6432167.959 8  -5012040.730 7
  26471636.567    -5435994.559 6  -4235835.399 3
 91  5  6 23 55 30.0080000  0  4  2 13  6 12
  24420394.813     3132681.073 8   2441081.954 6
  22779838.444   -13608151.475 9 -10603736.120 8
  23486862.382    -6357773.432 8  -4954071.014 8
  26457722.898    -5509085.569 6  -4292789.228 3
 91  5  6 23 56  0.0080000  0  4  2 13  6 12
  24433959.818     3203959.222 8   2496623.308 5
  22783459.635   -13589132.028 9 -10588915.727 9
  23501112.116    -6282888.224 8  -4895718.978 7
  26443820.624    -5582150.606 6  -4349722.781 4
 91  5  6 23 56 30.0080000  0  4  2 13  6 12
  24447552.412     3275409.078 8   2552298.470 5
  22787175.266   -13569610.142 9 -10573703.818 9
  23515460.784    -6207509.326 8  -4836982.224 7
  26429927.938    -5655183.806 6  -4406631.530 2
 91  5  6 23 57  0.0080000  0  4  2 13  6 12
  24461183.676     3347029.557 8   2608106.585 6
  22790983.829   -13549588.742 9 -10558102.674 9
  23529896.390    -6131638.718 8  -4777862.318 7
  26416034.363    -5728184.399 6  -4463514.906 2
 91  5  6 23 57 30.0080000  0  4  2 13  6 12
  24474846.114     3418815.172 8   2664043.389 6
  22794891.028   -13529075.071 9 -10542117.946 8
  23544424.935    -6055282.837 8  -4718364.284 7
  26402141.075    -5801155.793 6  -4520375.477 3
 91  5  6 23 58  0.0080000  0  4  2 13  6 12
  24488534.641     3490769.392 8   2720111.556 6
  22798888.158   -13508067.026 9 -10525748.000 9
  23559048.514    -5978438.473 8  -4658485.614 6
  26388260.387    -5874092.077 6  -4577209.167
 91  5  6 23 58 30.0080000  0  4  2 13  6 12
  24502260.040     3562890.696 8   2776309.924 6
  22802978.227   -13486567.487 9 -10508995.067 9
  23573764.126    -5901108.295 8  -4598228.401 7
  26374386.888    -5946993.202 6  -4634015.467 1
 91  5  6 23 59  0.0080000  0  4  2 13  6 12
  24516020.514     3635179.956 8   2832639.168 5
  22807163.034   -13464577.037 9 -10491859.611 9
  23588573.270    -5823292.211 8  -4537592.559 7
  26360531.982    -6019856.369 6  -4690791.734 2
 91  5  6 23 59 30.0080000  0  4  2 13  6 12
  24529804.066     3707638.984 8   2889100.706 6
  22811441.068   -13442095.814 9 -10474341.731 9
  23603472.057    -5744989.399 8  -4476577.432 7
  26346667.784    -6092677.650 6  -4747535.361 3
 91  5  7  0  0  0.0080000  0  4  2 13  6 12
  24543627.500     3780271.723 8   2945697.601 6
  22815812.941   -13419120.909 9 -10456439.154 9
  23618465.877    -5666196.428 8  -4415180.377 7
  26332814.370    -6165450.810 6  -4804241.470 2
 91  5  7  0  0 30.0080000  0  4  2 13  6 12
  24557486.908     3853083.491 8   3002433.995 6
  22820278.652   -13395648.806 9 -10438149.165 9
  23633556.529    -5586908.748 8  -4353397.838 6
  26318980.745    -6238168.540 6  -4860904.402 2
 91  5  7  0  1  0.0080000  0  4  2 13  6 12
  24571374.193     3926072.230 8   3059308.285 6
  22824838.796   -13371683.310 9 -10419474.709 9
  23648736.220    -5507129.729 8  -4291232.423 7
  26305155.819    -6310831.179 6  -4917524.394 2
 91  5  7  0  1 30.0080000  0  4  2 13  6 12
  24585297.154     3999239.554 7   3116321.746 5
  22829493.074   -13347223.897 9 -10400415.383 9
  23664011.548    -5426858.466 8  -4228683.474 6
  26291341.380    -6383434.822 6  -4974098.419 2
 91  5  7  0  2  0.0080000  0  4  2 13  6 12
  24599251.596     4072587.489 7   3173475.924 5
  22834242.386   -13322270.849 9 -10380971.394 9
  23679379.509    -5346093.862 8  -4165750.091 7
  26277537.141    -6455975.330 6  -5030623.738 3
 91  5  7  0  2 30.0080000  0  4  2 13  6 12
  24613245.903     4146112.655 7   3230768.224 5
  22839080.136   -13296829.117 9 -10361146.644 9
  23694842.802    -5264840.280 8  -4102435.684 6
  26263746.382    -6528453.932 6  -5087100.357 2
 91  5  7  0  3  0.0080000  0  4  2 13  6 12
  24627270.495     4219812.207 7   3288196.391 6
  22844015.913   -13270903.146 9 -10340944.546 8
  23710398.432    -5183101.418 8  -4038743.139 6
  26249965.230    -6600871.203 6  -5143529.158 2
 91  5  7  0  3 30.0080000  0  4  2 13  6 12
  24641328.966     4293686.771 7   3345760.940 6
  22849044.036   -13244493.300 9 -10320365.401 9
  23726043.704    -5100877.604 8  -3974672.701 6
  26236193.361    -6673224.291 6  -5199907.997 2
 91  5  7  0  4  0.0080000  0  4  2 13  6 12
  24655418.909     4367738.790 7   3403463.761 6
  22854159.393   -13217599.438 9 -10299409.121 9
  23741783.408    -5018167.626 8  -3910223.448 6
  26222437.983    -6745509.120 6  -5256234.085 3
 91  5  7  0  4 30.0080000  0  4  2 13  6 12
  24669546.326     4441972.189 7   3461307.910 6
  22859370.386   -13190219.021 9 -10278073.693 9
  23757616.941    -4934968.488 8  -3845393.023 6
  26208696.399    -6817719.594 6  -5312501.778 3
 91  5  7  0  5  0.0080000  0  4  2 13  6 12
  24683709.123     4516390.303 7   3519295.989 5
  22864673.716   -13162350.947 9 -10256358.283 8
  23773538.022    -4851277.853 8  -3780179.625 7
  26194969.202    -6889850.026 6  -5368707.097 3
 91  5  7  0  5 30.0080000  0  4  2 13  6 12
  24697906.097     4590986.391 7   3577422.756 5
  22870065.781   -13134003.410 9 -10234269.248 9
  23789558.334    -4767103.625 8  -3714589.401 7
  26181252.494    -6961904.903 6  -5424853.569 4
 91  5  7  0  6  0.0090000  0  4  2 13  6 12
  24712132.146     4665756.629 7   3635685.217 5
  22875549.891   -13105184.088 9 -10211812.596 9
  23805670.979    -4682450.470 8  -3648625.988 6
  26167552.584    -7033891.033 6  -5480946.433 4
 91  5  7  0  6 30.0090000  0  4  2 13  6 12
  24726390.876     4740695.683 7   3694079.219 5
  22881124.825   -13075897.164 9 -10188991.593 9
  23821870.566    -4597325.573 8  -3582294.977 6
  26153876.046    -7105801.954 7  -5536980.754 2
 91  5  7  0  7  0.0090000  0  4  2 13  6 12
  24740685.579     4815805.299 7   3752606.139 6
  22886787.604   -13046143.347 9 -10165806.770 9
  23838159.489    -4511727.756 8  -3515595.471 6
  26140209.114    -7177637.782 7  -5592956.542 4
 91  5  7  0  7 30.0090000  0  4  2 13  6 12
  24755012.958     4891091.733 7   3811270.844 4
  22892537.922   -13015918.774 9 -10142255.113 9
  23854535.951    -4425651.791 8  -3448523.370 6
  26126556.857    -7249390.363 7  -5648867.495 4
 91  5  7  0  8  0.0090000  0  4  2 13  6 12
  24769371.818     4966555.908 7   3870074.041 6
  22898379.382   -12985223.666 9 -10118336.817 9
  23871005.344    -4339097.948 8  -3381078.890 7
  26112917.200    -7321056.664 7  -5704711.196 3
 91  5  7  0  8 30.0090000  0  4  2 13  6 12
  24783766.659     5042202.965 7   3929019.733 5
  22904310.476   -12954055.381 9 -10094049.804 9
  23887570.077    -4252062.722 8  -3313259.309 7
  26099295.830    -7392629.751 7  -5760482.263 3
 91  5  7  0  9  0.0090000  0  4  2 13  6 12
  24798198.661     5118035.493 7   3988109.962 6
  22910331.804   -12922413.003 9 -10069393.370 9
  23904223.247    -4164544.525 8  -3245063.383 7
  26085700.244    -7464104.423 7  -5816176.646 5
 91  5  7  0  9 30.0090000  0  4  2 13  6 12
  24812663.653     5194052.922 7   4047344.271 5
  22916444.572   -12890299.423 9 -10044369.766 9
  23920968.162    -4076545.142 7  -3176492.513 6
  26072113.652    -7535478.887 7  -5871792.951 3
 91  5  7  0 10  0.0090000  0  4  2 13  6 12
  24827161.311     5270260.160 7   4106726.487 5
  22922643.980   -12857710.836 9 -10018976.023 9
  23937807.797    -3988060.593 7  -3107543.582 6
  26058545.646    -7606745.781 7  -5927325.450 5
 91  5  7  0 10 30.0090000  0  4  2 13  6 12
  24841701.251     5346660.215 7   4166258.943 5
  22928936.624   -12824646.767 9  -9993211.774 8
  23954737.378    -3899089.481 7  -3038215.533 7
  26045006.118    -7677900.002 7  -5982770.166 4
 91  5  7  0 11  0.0090000  0  4  2 13  6 12
  24856284.049     5423258.718 7   4225946.033 5
  22935320.708   -12791103.364 9  -9967074.025 9
  23971763.189    -3809627.547 8  -2968505.007 6
  26031493.271    -7748933.666 7  -6038120.906 4
 91  5  7  0 11 30.0090000  0  4  2 13  6 12
  24870892.342     5500056.848 7   4285788.688 5
  22941795.027   -12757080.527 9  -9940562.680 9
  23988878.642    -3719674.778 7  -2898412.029 7
  26017998.416    -7819842.989 7  -6093374.763 3
 91  5  7  0 12  0.0090000  0  4  2 13  6 12
  24885545.892     5577049.752 7   4345783.113 5
  22948356.884   -12722585.982 9  -9913683.783 9
  24006087.628    -3629237.406 7  -2827941.433 6
  26004526.944    -7890631.087 7  -6148534.181 4
 91  5  7  0 12 30.0090000  0  4  2 13  6 12
  24900231.829     5654235.338 7   4405927.690 5
  22955011.377   -12687623.802 9  -9886440.496 9
  24023386.553    -3538318.770 7  -2757095.830 6
  25991079.151    -7961297.439 7  -6203598.717 5
 91  5  7  0 13  0.0090000  0  4  2 13  6 12
  24914960.930     5731618.748 7   4466226.384 5
  22961751.907   -12652190.428 9  -9858830.045 9
  24040785.013    -3446914.832 7  -2685872.050 6
  25977653.547    -8031834.492 7  -6258562.496 4
 91  5  7  0 13 30.0090000  0  4  2 13  6 12
  24929725.707     5809204.079 7   4526682.437 4
  22968584.775   -12616284.188 9  -9830851.130 9
  24058269.206    -3355023.328 7  -2614268.366 6
  25964260.915    -8102235.986 7  -6313420.638 4
 91  5  7  0 14  0.0090000  0  4  2 13  6 12
  24944528.858     5886997.697 7   4587300.791 5
  22975509.083   -12579900.493 9  -9802500.165 9
  24075849.332    -3262638.965 7  -2542280.626 6
  25950887.478    -8172493.248 7  -6368166.382 4
 91  5  7  0 14 30.0090000  0  4  2 13  6 12
  24959376.385     5965000.023 7   4648081.762 5
  22982525.126   -12543040.831 9  -9773778.323 9
  24093526.001    -3169762.977 7  -2469909.818 6
  25937552.109    -8242603.362 7  -6422797.472 5
 91  5  7  0 15  0.0090000  0  4  2 13  6 12
  24974249.990     6043209.701 7   4709024.311 5
  22989630.209   -12505708.131 9  -9744687.889 9
  24111291.100    -3076398.049 7  -2397158.015 7
  25924229.330    -8312565.287 7  -6477313.086 5
 91  5  7  0 15 30.0090000  0  4  2 13  6 12
  24989172.753     6121625.367 7   4770127.354 5
  22996823.128   -12467906.425 9  -9715231.990 9
  24129150.935    -2982546.967 7  -2324027.393 6
  25910944.925    -8382377.771 7  -6531712.252 4
 91  5  7  0 16  0.0090000  0  4  2 13  6 12
  25004138.994     6200254.387 7   4831396.661 5
  23004103.891   -12429630.281 9  -9685406.409 9
  24147102.210    -2888203.996 7  -2250513.479 6
  25897697.400    -8452031.553 7  -6585987.748 5
 91  5  7  0 16 30.0090000  0  4  2 13  6 12
  25019142.708     6279103.231 7   4892837.258 5
  23011479.985   -12390874.773 9  -9655207.292 9
  24165150.019    -2793363.880 7  -2176612.194 6
  25884474.148    -8521517.158 7  -6640132.192 4
 91  5  7  0 17  0.0090000  0  4  2 13  6 12
  25034185.991     6358172.946 7   4954449.930 4
  23018946.619   -12351641.792 9  -9624636.125 9
  24183294.354    -2698027.252 7  -2102324.010 6
  25871283.581    -8590831.396 7  -6694143.095 5
 91  5  7  0 17 30.0090000  0  4  2 13  6 12
  25049277.245     6437461.899 7   5016233.449 6
  23026503.182   -12311934.756 9  -9593695.563 9
  24201529.831    -2602197.345 7  -2027651.463 6
  25858120.297    -8659973.637 7  -6748019.987 5
 91  5  7  0 18  0.0090000  0  4  2 13  6 12
  25064411.069     6516967.063 7   5078185.452 4
  23034148.193   -12271759.128 9  -9562389.868 9
  24219858.537    -2505878.728 7  -1952598.088 6
  25845002.873    -8728944.637 7  -6801763.433 5
 91  5  7  0 18 30.0090000  0  4  2 13  6 12
  25079576.669     6596693.361 7   5140309.769 4
  23041881.937   -12231111.873 9  -9530716.668 9
  24238280.487    -2409068.083 7  -1877161.331 6
  25831908.238    -8797737.151 7  -6855367.819 5
 91  5  7  0 19  0.0090000  0  4  2 13  6 12
  25094787.239     6676640.317 7   5202606.022 5
  23049706.824   -12189995.394 9  -9498677.843 9
  24256797.768    -2311767.313 7  -1801342.674 6
  25818848.984    -8866348.949 7  -6908831.373 6
 91  5  7  0 19 30.0090000  0  4  2 13  6 12
  25110046.677     6756807.530 7   5265073.905 4
  23057618.945   -12148412.300 9  -9466275.422 9
  24275403.487    -2213978.332 7  -1725143.559 6
  25805828.992    -8934778.075 7  -6962152.587 5
 91  5  7  0 20  0.0090000  0  4  2 13  6 12
  25125340.886     6837198.650 7   5327716.247 5
  23065621.004   -12106360.702 9  -9433507.927 9
  24294106.639    -2115699.439 7  -1648562.723 6
  25792845.882    -9003018.211 7  -7015326.525 5
 91  5  7  0 20 30.0090000  0  4  2 13  6 12
  25140688.762     6917811.461 7   5390531.340 5
  23073712.399   -12063844.483 9  -9400378.391 8
  24312901.527    -2016933.443 7  -1571602.306 5
  25779896.948    -9071068.814 7  -7068352.790 4
 91  5  7  0 21  0.0090000  0  4  2 13  6 12
  25156066.618     6998643.845 7   5453517.520 4
  23081888.943   -12020868.620 9  -9366890.700 9
  24331786.353    -1917685.290 7  -1494266.192 6
  25766986.387    -9138930.087 7  -7121231.523 5
 91  5  7  0 21 30.0090000  0  4  2 13  6 12
  25171488.545     7079693.350 7   5516672.907 3
  23090153.619   -11977438.012 9  -9333048.641 9
  24350765.612    -1817958.191 7  -1416556.888 6
  25754103.109    -9206601.487 7  -7173962.307 5
 91  5  7  0 22  0.0090000  0  4  2 13  6 12
  25186957.832     7160954.732 7   5579993.384 4
  23098504.639   -11933559.873 9  -9298857.866 9
  24369830.620    -1717759.915 7  -1338480.416 5
  25741259.094    -9274086.262 7  -7226547.669 5
 91  5  7  0 22 30.0090000  0  4  2 13  6 12
  25202455.902     7242426.125 7   5643477.524 3
  23106940.197   -11889237.951 9  -9264321.281 9
  24388987.059    -1617093.180 7  -1260038.913 6
  25728451.664    -9341383.238 7  -7278986.703 4
 91  5  7  0 23  0.0090000  0  4  2 13  6 12
  25218000.739     7324106.333 7   5707124.373 4
  23115457.002   -11844475.736 9  -9229441.610 9
  24408231.630    -1515961.392 7  -1181235.040 6
  25715683.802    -9408491.330 7  -7331278.562 5
 91  5  7  0 23 30.0090000  0  4  2 13  6 12
  25233582.754     7405996.931 7   5770935.172 5
  23124056.548   -11799274.328 9  -9194219.723 9
  24427565.250    -1414364.783 7  -1102068.961 5
  25702951.617    -9475406.750 7  -7383420.269 5
 91  5  7  0 24  0.0090000  0  4  2 13  6 12
  25249210.035     7488102.844 7   5834913.713 3
  23132745.134   -11753630.010 9  -9158652.696 9
  24446990.597    -1312299.819 7  -1022537.933 5
  25690253.609    -9542121.433 7  -7435405.585 5
 91  5  7  0 24 30.0090000  0  4  2 13  6 12
  25264877.791     7570438.113 7   5899070.995 5
  23141516.163   -11707531.580 9  -9122731.830 8
  24466503.491    -1209754.149 7   -942632.330 5
  25677606.267    -9608618.737 7  -7487221.505 5
 91  5  7  0 25  0.0090000  0  4  2 13  6 12
  25280585.718     7653002.039 7   5963406.436 3
  23150374.731   -11660981.621 9  -9086459.118 9
  24486106.918    -1106730.164 7   -862354.016 6
  25664988.896    -9674897.042 7  -7538866.794 5
 91  5  7  0 25 30.0090000  0  4  2 13  6 12
  25296339.208     7735791.562 7   6027917.694 4
  23159318.439   -11613985.806 9  -9049838.992 9
  24505802.987    -1003233.230 7   -781707.190 5
  25652420.996    -9740957.024 7  -7590341.940 5
 91  5  7  0 26  0.0090000  0  4  2 13  6 12
  25312137.370     7818805.658 7   6092603.921 5
  23168343.089   -11566547.012 9  -9012873.685 9
  24525588.384     -899265.298 7   -700693.339 6
  25639886.976    -9806796.472 7  -7641645.266 6
 91  5  7  0 26 30.0090000  0  4  2 13  6 12
  25327978.407     7902044.387 7   6157465.205 4
  23177455.881   -11518667.418 9  -8975564.901 9
  24545462.228     -794828.548 7   -619314.174 6
  25627403.020    -9872413.288 7  -7692775.120 5
 91  5  7  0 27  0.0090000  0  4  2 13  6 12
  25343866.507     7985507.463 7   6222501.285 4
  23186649.615   -11470349.704 9  -8937914.737 9
  24565424.213     -689925.151 7   -537571.406 6
  25614956.539    -9937804.990 7  -7743729.545 5
 91  5  7  0 27 30.0090000  0  4  2 13  6 12
  25359783.985     8069189.507 7   6287707.972 4
  23195928.795   -11421601.570 9  -8899929.180 9
  24585472.532     -584562.590 7   -455470.861 5
  25602555.917   -10002974.580 7  -7794510.938 5
 91  5  7  0 28  0.0090000  0  4  2 13  6 12
  25375749.434     8153091.758 7   6353086.245 4
  23205285.619   -11372424.184 9  -8861609.149 9
  24605611.689     -478741.164 7   -373012.765 5
  25590191.277   -10067918.155 7  -7845116.214 5
 91  5  7  0 28 30.0090000  0  4  2 13  6 12
  25391756.850     8237209.122 7   6418632.159 3
  23214723.081   -11322823.951 9  -8822959.611 8
  24625833.289     -372467.746 7   -290202.447 6
  25577882.103   -10132638.106 7  -7895547.213 4
 91  5  7  0 29  0.0090000  0  4  2 13  6 12
  25407812.534     8321536.886 7   6484342.019 4
  23224241.494   -11272808.043 9  -8783986.171 8
  24646144.226     -265748.948 7   -207045.069 5
  25565610.098   -10197136.493 7  -7945805.566 4
 91  5  7  0 29 30.0090000  0  4  2 13  6 12
  25423896.399     8406077.255 7   6550217.575 4
  23233838.145   -11222377.523 9  -8744689.651 9
  24666532.214     -158584.498 7   -123540.438 5
  25553378.263   -10261408.438 7  -7995887.465 5
 91  5  7  0 30  0.0090000  0  4  2 13  6 12
  25440025.836     8490837.100 7   6616264.097 4
  23243516.350   -11171527.066 9  -8705065.910 9
  24687011.641      -50969.751 7    -39684.930 5
  25541188.701   -10325444.540 7  -8045785.604 5
 91  5  7  0 30 30.0090000  0  4  2 13  6 12
  25456190.941     8575816.316 7   6682481.591 4
  23253270.393   -11120258.930 9  -8665116.706 8
  24707576.504       57094.090 7     44520.534 5
  25529050.103   -10389241.690 7  -8095497.540 4
 91  5  7  0 31  0.0090000  0  4  2 13  6 12
  25472408.519     8661014.903 7   6748869.992 4
  23263105.083   -11068575.865 9  -8624844.181 9
  24728225.609      165604.890 7    129074.260 5
  25516959.475   -10452797.433 7  -8145021.362 4
 91  5  7  0 31 30.0090000  0  4  2 13  6 12
  25488660.570     8746434.901 7   6815430.914 4
  23273020.419   -11016478.287 9  -8584248.658 8
  24748959.548      274562.303 7    213975.999 5
  25504912.019   -10516107.274 7  -8194353.590 5
 91  5  7  0 32  0.0090000  0  4  2 13  6 12
  25504953.385     8832076.312 6   6882164.390 4
  23283011.306   -10963967.767 9  -8543331.363 8
  24769779.237      383964.818 7    299224.575 5
  25492904.725   -10579168.614 7  -8243492.158 5
 91  5  7  0 32 30.0090000  0  4  2 13  6 12
  25521298.376     8917938.661 6   6949070.032 4
  23293083.135   -10911047.368 9  -8502094.686 8
  24790684.667      493809.433 7    384817.647 5
  25480962.197   -10641979.036 7  -8292435.208 4
 91  5  7  0 33  0.0090000  0  4  2 13  6 12
  25537681.434     9004024.109 6   7016149.509 4
  23303230.506   -10857716.991 9  -8460538.537 8
  24811669.235      604097.215 7    470756.033 4
  25469054.439   -10704533.290 7  -8341178.634 5
 91  5  7  0 33 30.0090000  0  4  2 13  6 12
  25554099.864     9090331.768 6   7083402.133 3
  23313455.531   -10803980.206 9  -8418665.709 8
  24832741.350      714824.842 7    557037.161 5
  25457198.849   -10766829.910 7  -8389721.312 5
 91  5  7  0 34  0.0090000  0  4  2 13  6 12
  25570565.968     9176867.640 6   7150832.597 3
  23323761.194   -10749833.012 9  -8376473.090 8
  24853894.111      825996.275 7    643664.115 6
  25445393.323   -10828860.072 7  -8438056.366 4
 91  5  7  0 34 30.0090000  0  4  2 13  6 12
  25587080.331     9263628.797 6   7218438.602 5
  23334141.211   -10695281.003 9  -8333965.024 7
  24875135.005      937606.516 7    730632.979 5
  25433642.058   -10890624.146 8  -8486184.070 4
 91  5  7  0 35  0.0090000  0  4  2 13  6 12
  25603635.771     9350610.988 6   7286216.850 4
  23344598.272   -10640330.349 9  -8291146.332 8
  24896455.340     1049649.591 7    817939.138 4
  25421941.155   -10952123.386 8  -8534105.423 6
 91  5  7  0 35 30.0090000  0  4  2 13  6 12
  25620227.185     9437812.582 6   7354166.039 4
  23355130.578   -10584984.919 9  -8248020.015 8
  24917859.324     1162121.903 7    905579.739 5
  25410280.125   -11013356.612 7  -8581819.483 4
 91  5  7  0 36  0.0090000  0  4  2 13  6 12
  25636859.371     9525236.214 6   7422288.243 4
  23365737.239   -10529244.155 9  -8204585.657 8
  24939340.952     1275023.695 7    993555.023 5
  25398685.956   -11074318.681 8  -8629322.257 4
 91  5  7  0 36 30.0090000  0  4  2 13  6 12
  25653540.122     9612879.370 6   7490581.515 3
  23376419.145   -10473112.843 9  -8160846.968 8
  24960908.025     1388350.605 7   1081861.562 5
  25387138.554   -11135009.218 8  -8676613.448 4
 91  5  7  0 37  0.0090000  0  4  2 13  6 12
  25670260.153     9700740.275 6   7559044.458 3
  23387173.296   -10416595.325 9  -8116807.344 8
  24982555.736     1502099.067 7   1170496.556 5
  25375637.909   -11195427.036 8  -8723692.129 5
 91  5  7  0 37 30.0090000  0  4  2 13  6 12
  25687022.448     9788815.336 6   7627674.294 3
  23398000.597   -10359697.367 9  -8072471.273 8
  25004279.294     1616263.401 7   1259455.619 5
  25364194.537   -11255573.038 8  -8770559.007 3
 91  5  7  0 38  0.0090000  0  4  2 13  6 12
  25703821.013     9877103.561 6   7696470.207 5
  23408898.956   -10302422.618 9  -8027841.604 8
  25026083.201     1730840.161 7   1348736.059 4
  25352801.822   -11315445.681 8  -8817212.887 5
 91  5  7  0 38 30.0090000  0  4  2 13  6 12
  25720662.454     9965605.345 6   7765432.540 3
  23419868.966   -10244772.429 9  -7982919.377 8
  25047962.057     1845827.587 7   1438336.492 4
  25341459.773   -11375041.840 8  -8863651.319 5
 91  5  7  0 39  0.0090000  0  4  2 13  6 12
  25737539.869    10054314.882 6   7834556.750 2
  23430910.015   -10186755.150 9  -7937711.094 8
  25069921.254     1961218.113 7   1528251.019 5
  25330168.985   -11434364.293 8  -8909876.480 6
 91  5  7  0 39 30.0090000  0  4  2 13  6 12
  25754466.458    10143233.338 6   7903843.745 3
  23442020.028   -10128372.160 9  -7892217.870 8
  25091957.502     2077010.739 7   1618478.869 5
  25318935.765   -11493409.214 8  -8955885.391 5
 91  5  7  0 40  0.0100000  0  4  2 13  6 12
  25771423.012    10232355.014 6   7973289.111 4
  23453197.489   -10069632.073 9  -7846446.368 8
  25114066.897     2193198.621 7   1709014.707 5
  25307749.908   -11552184.391 8  -9001684.113 5
 91  5  7  0 40 30.0100000  0  4  2 13  6 12
  25788425.448    10321681.481 6   8042894.029 4
  23464444.503   -10010533.438 9  -7800395.491 8
  25136250.940     2309779.490 7   1799856.771 4
  25296619.217   -11610675.292 8  -9047261.310 6
 91  5  7  0 41  0.0100000  0  4  2 13  6 12
  25805458.152    10411219.247 6   8112663.614 4
  23475759.870    -9951073.632 9  -7754063.153 7
  25158512.025     2426758.306 7   1891008.921 3
  25285545.780   -11668877.941 8  -9092613.900 5
 91  5  7  0 41 30.0100000  0  4  2 13  6 12
  25822541.226    10500965.428 6   8182595.564 4
  23487142.691    -9891257.438 9  -7707453.136 7
  25180847.763     2544130.196 7   1982467.362 5
  25274520.314   -11726792.098 8  -9137741.703 5
 91  5  7  0 42  0.0100000  0  4  2 13  6 12
  25839652.482    10590917.552 6   8252688.024 3
  23498592.067    -9831089.944 9  -7660569.371 8
  25203256.050     2661890.389 7   2074228.366 4
  25263558.707   -11784417.727 8  -9182644.677 5
 91  5  7  0 42 30.0100000  0  4  2 13  6 12
  25856809.004    10681074.706 6   8322940.233 3
  23510106.793    -9770573.905 9  -7613414.023 8
  25225740.185     2780036.477 7   2166290.066 5
  25252646.256   -11841752.286 8  -9227320.844 6
 91  5  7  0 43  0.0100000  0  4  2 13  6 12
  25874006.595    10771435.161 6   8393350.866 3
  23521687.473    -9709713.769 9  -7565990.544 8
  25248295.071     2898563.959 7   2258648.972 5
  25241790.476   -11898795.143 8  -9271769.713 6
 91  5  7  0 43 30.0100000  0  4  2 13  6 12
  25891239.871    10861998.970 6   8463919.953 4
  23533335.311    -9648511.451 9  -7518300.425 7
  25270923.100     3017470.964 7   2351303.580 5
  25230994.044   -11955543.378 8  -9315989.008 6
 91  5  7  0 44  0.0100000  0  4  2 13  6 12
  25908514.810    10952766.730 6   8534647.968 4
  23545046.701    -9586969.043 9  -7470345.305 8
  25293621.287     3136755.858 7   2444252.655 5
  25220250.983   -12011993.373 8  -9359975.905 6
 91  5  7  0 44 30.0100000  0  4  2 13  6 12
  25925823.926    11043741.957 6   8605537.655 5
  23556821.053    -9525084.802 9  -7422123.819 7
  25316395.322     3256419.826 7   2537497.097 5
  25209563.379   -12068138.663 8  -9403725.388 6
 91  5  7  0 45  0.0100000  0  4  2 13  6 12
  25943174.712    11134935.951 6   8676597.801 4
  23568665.850    -9462849.652 9  -7373628.897 8
  25339236.514     3376472.218 6   2631044.230 4
  25198942.932   -12123965.164 8  -9447226.455 5
 91  5  7  0 45 30.0100000  0  4  2 13  6 12
  25960575.563    11226347.730 6   8747827.640 3
  23580574.507    -9400266.986 9  -7324863.183 8
  25362158.946     3496909.789 6   2724891.489 4
  25188380.045   -12179471.002 8  -9490477.641 6
 91  5  7  0 46  0.0100000  0  4  2 13  6 12
  25978006.996    11317977.307 6   8819227.197 4
  23592550.321    -9337339.496 9  -7275828.776 8
  25385146.728     3617730.223 6   2819037.073 3
  25177884.315   -12234653.386 8  -9533476.795 6
 91  5  7  0 46 30.0100000  0  4  2 13  6 12
  25995495.395    11409825.507 6   8890797.104 2
  23604589.383    -9274067.971 9  -7226526.296 8
  25408213.656     3738932.491 7   2913480.178 4
  25167441.642   -12289508.162 8  -9576220.674 6
 91  5  7  0 47  0.0100000  0  4  2 13  6 12
  26013008.669    11501882.858 6   8962529.983 3
  23616693.203    -9210464.489 9  -7176965.148 8
  25431352.540     3860504.641 6   3008211.507 3
  25157061.328   -12344041.919 8  -9618714.414 5
 91  5  7  0 47 30.0100000  0  4  2 13  6 12
  26030569.311    11594145.902 6   9034423.126 3
  23628858.483    -9146534.642 9  -7127149.685 8
  25454549.281     3982441.003 6   3103226.633 3
  25146747.272   -12398255.452 8  -9660958.623 5
 91  5  7  0 48  0.0100000  0  4  2 13  6 12
  26048164.130    11686613.905 6   9106475.989 2
  23641084.620    -9082281.466 9  -7077082.277 8
  25477823.666     4104738.961 6   3198523.537 3
  25136492.564   -12452146.297 8  -9702951.388 6
 91  5  7  0 48 30.0100000  0  4  2 13  6 12
  26065800.620    11779293.541 6   9178693.739 4
  23653374.608    -9017700.910 9  -7026759.775 8
  25501164.614     4227402.524 6   3294105.300 2
  25126299.621   -12505705.161 8  -9744685.460 6
 91  5  7  0 49  0.0100000  0  4  2 13  6 12
  26083476.688    11872191.036 6   9251081.257 4
  23665725.462    -8952788.451 9  -6976178.641 8
  25524580.198     4350435.755 6   3389975.137 4
  25116172.632   -12558922.927 8  -9786153.750 6
 91  5  7  0 49 30.0100000  0  4  2 13  6 12
  26101198.021    11965311.512 6   9323642.548 4
  23678142.566    -8887541.688 9  -6925337.019 8
  25548057.250     4473841.456 6   3486135.216 4
  25106114.597   -12611791.431 8  -9827349.892 5
 91  5  7  0 50  0.0100000  0  4  2 13  6 12
  26118956.819    12058654.470 6   9396377.150 3
  23690623.223    -8821962.962 9  -6874236.721 7
  25571613.743     4597616.928 6   3582583.881 5
  25096117.123   -12664307.998 8  -9868271.799 6
 91  5  7  0 50 30.0100000  0  4  2 13  6 12
  26136767.794    12152216.931 6   9469282.825 2
  23703163.238    -8756057.784 9  -6822882.053 8
  25595234.384     4721756.947 6   3679316.139 4
  25086191.587   -12716472.911 8  -9908919.683 6
 91  5  7  0 51  0.0100000  0  4  2 13  6 12
  26154602.746    12245997.837 6   9542358.718 2
  23715764.118    -8689829.203 9  -6771275.368 8
  25618931.187     4846258.128 6   3776329.815 4
  25076335.312   -12768284.512 8  -9949292.276 6
 91  5  7  0 51 30.0100000  0  4  2 13  6 12
  26172501.556    12340003.235 6   9615609.530 4
  23728430.647    -8623273.448 9  -6719413.754 8
  25642694.536     4971124.310 6   3873628.379 4
  25066539.894   -12819733.606 8  -9989382.387 6
 91  5  7  0 52  0.0100000  0  4  2 13  6 12
  26190420.748    12434229.931 6   9689032.784 3
  23741155.642    -8556395.753 9  -6667301.278 8
  25666522.633     5096350.115 6   3971207.179 4
  25056819.721   -12870820.817 8 -10029190.516 7
 91  5  7  0 52 30.0100000  0  4  2 13  6 12
  26208401.104    12528675.406 6   9762626.519 3
  23753945.989    -8489201.713 9  -6614942.303 8
  25690420.593     5221930.568 6   4069062.345 4
  25047170.004   -12921545.709 8 -10068716.322 7
 91  5  7  0 53  0.0100000  0  4  2 13  6 12
  26226417.729    12623341.052 6   9836391.806 2
  23766789.698    -8421690.830 9  -6562336.421 8
  25714384.803     5347865.343 6   4167193.090 4
  25037585.943   -12971903.160 8 -10107955.812 6
 91  5  7  0 53 30.0100000  0  4  2 13  6 12
  26244464.335    12718219.182 6   9910322.650 2
  23779696.062    -8353873.412 9  -6509491.696 8
  25738413.770     5474144.229 6   4265592.473 3
  25028072.023   -13021898.142 8 -10146912.865 6
 91  5  7  0 54  0.0100000  0  4  2 13  6 12
  26262565.803    12813310.167 6   9984419.385 3
  23792660.283    -8285751.539 9  -6456409.730 8
  25762513.480     5600764.845 6   4364258.135 3
  25018628.864   -13071527.837 8 -10185585.273 7
 91  5  7  0 54 30.0100000  0  4  2 13  6 12
  26280699.947    12908612.530 6  10058680.842 2
  23805678.468    -8217329.655 9  -6403093.986 7
  25786669.860     5727723.486 6   4463187.202 3
  25009251.954   -13120791.070 8 -10223972.133 6
 91  5  7  0 55  0.0100000  0  4  2 13  6 12
  26298880.561    13004126.435 6  10133107.098 2
  23818756.316    -8148608.415 9  -6349544.982 7
  25810891.888     5855018.403 6   4562378.269 4
  24999947.900   -13169683.918 8 -10262070.381 7
 91  5  7  0 55 30.0100000  0  4  2 13  6 12
  26317089.654    13099847.638 6  10207694.887 3
  23831889.925    -8079595.017 9  -6295768.323 8
  25835179.276     5982642.545 6   4661825.410 3
  24990714.291   -13218208.257 8 -10299881.480 6
 91  5  7  0 56  0.0100000  0  4  2 13  6 12
  26335346.421    13195781.031 6  10282448.066 3
  23845079.297    -8010285.781 9  -6241761.142 8
  25859527.521     6110599.172 6   4761532.102 4
  24981549.934   -13266355.748 8 -10337398.931 6
 91  5  7  0 56 30.0100000  0  4  2 13  6 12
  26353648.148    13291922.656 6  10357363.479 1
  23858322.023    -7940686.826 9  -6187528.205 8
  25883940.218     6238881.836 6   4861492.850 2
  24972459.627   -13314127.136 8 -10374623.313 6
 91  5  7  0 57  0.0100000  0  4  2 13  6 12
  26371980.754    13388274.049 6  10432442.298 1
  23871620.520    -7870800.030 9  -6133070.970 7
  25908413.180     6367489.556 6   4961706.898 3
  24963441.573   -13361518.457 8 -10411551.543 6
 91  5  7  0 57 30.0100000  0  4  2 13  6 12
  26390361.635    13484830.926 6  10507681.292 2
  23884975.076    -7800631.299 9  -6078394.053 7
  25932950.595     6496415.636 6   5062168.991 3
  24954499.061   -13408530.743 8 -10448184.421 6
 91  5  7  0 58  0.0100000  0  4  2 13  6 12
  26408765.289    13581593.854 6  10583080.826 3
  23898378.501    -7730182.161 9  -6023498.630 7
  25957541.372     6625658.627 6   5162878.045 3
  24945621.009   -13455160.608 8 -10484519.294 6
 91  5  7  0 58 30.0100000  0  4  2 13  6 12
  26427220.212    13678560.869 6  10658639.391 1
  23911838.281    -7659456.707 9  -5968387.900 7
  25982196.296     6755213.826 6   5263830.349 4
  24936825.393   -13501407.192 8 -10520555.515 7
 91  5  7  0 59  0.0100000  0  4  2 13  6 12
  26445710.515    13775730.756 6  10734356.033 2
  23925349.322    -7588457.909 9  -5913064.178 8
  26006912.086     6885078.181 6   5365023.581 4
  24928093.644   -13547268.413 8 -10556291.455 7
 91  5  7  0 59 30.0100000  0  4  2 13  6 12
  26464237.394    13873104.563 6  10810231.571 3
  23938913.132    -7517186.752 9  -5857528.227 8
  26031681.841     7015250.528 6   5466456.801 3
  24919442.830   -13592739.883 8 -10591723.695 7
 91  5  7  1  0  0.0100000  0  4  2 13  6 12
  26482810.428    13970677.635 6  10886262.394 3
  23952525.514    -7445650.688 9  -5801785.858 7
  26056507.359     7145723.329 6   5568124.108 4
  24910860.673   -13637823.954 8 -10626854.052 7
 91  5  7  1  0 30.0100000  0  4  2 13  6 12
  26501416.452    14068451.750 6  10962449.863 3
  23966187.656    -7373850.053 9  -5745837.323 7
  26081392.224     7276495.901 6   5670025.046 3
  24902358.255   -13682516.328 8 -10661679.210 6
 91  5  7  1  1  0.0100000  0  4  2 13  6 12
  26520052.753    14166424.578 5  11038792.173 4
  23979901.660    -7301788.920 9  -5689685.815 7
  26106332.564     7407564.250 6   5772156.428 2
  24893929.590   -13726815.506 9 -10696197.969 6
 91  5  7  1  1 30.0100000  0  4  2 13  6 12
  26538735.218    14264591.044 6  11115285.357 3
  23993663.635    -7229474.229 9  -5633336.711 7
  26131332.252     7538920.427 6   5874512.143 4
  24885572.280   -13770724.188 9 -10730412.441 6
 91  5  7  1  2  0.0100000  0  4  2 13  6 12
  26557456.658    14362952.308 6  11191930.339 1
  24007472.673    -7156906.576 9  -5576790.513 7
  26156381.411     7670563.726 6   5977091.513 4
  24877291.113   -13814237.604 9 -10764318.932 7
 91  5  7  1  2 30.0100000  0  4  2 13  6 12
  26576212.570    14461517.451 6  11268734.181 2
  24021328.782    -7084079.623 9  -5520042.238 8
  26181487.834     7802500.910 6   6079899.911 3
  24869091.483   -13857343.504 9 -10797907.860 6
 91  5  7  1  3  0.0100000  0  4  2 13  6 12
  26594996.971    14560284.466 5  11345695.340 4
  24035237.051    -7010997.470 9  -5463095.137 7
  26206652.714     7934727.097 6   6182933.482 4
  24860964.410   -13900041.583 9 -10831179.021 7
 91  5  7  1  3 30.0100000  0  4  2 13  6 12
  26613843.721    14659250.979 6  11422811.979 3
  24049192.095    -6937664.178 9  -5405952.313 7
  26231869.151     8067237.993 6   6286188.949 3
  24852916.780   -13942330.899 9 -10864131.659 7
 91  5  7  1  4  0.0100000  0  4  2 13  6 12
  26632706.359    14758416.447 6  11500083.561 4
  24063192.701    -6864082.260 9  -5348615.781 6
  26257135.060     8200030.078 6   6389663.491 3
  24844947.702   -13984209.657 9 -10896764.382 7
 91  5  7  1  4 30.0100000  0  4  2 13  6 12
  26651613.975    14857773.352 5  11577504.378 3
  24077241.871    -6790261.151 9  -5291092.852 6
  26282465.429     8333094.133 6   6493349.973 3
  24837055.666   -14025681.717 9 -10929080.202 8
 91  5  7  1  5  0.0100000  0  4  2 13  6 12
  26670559.057    14957320.405 6  11655073.337 2
  24091334.816    -6716204.016 9  -5233386.024 6
  26307826.668     8466426.841 6   6597245.759 2
  24829243.073   -14066745.024 9 -10961077.516 7
 91  5  7  1  5 30.0100000  0  4  2 13  6 12
  26689532.923    15057056.388 5  11732789.521 3
  24105471.830    -6641914.116 9  -5175497.799 7
  26333256.862     8600024.115 6   6701347.717 3
  24821506.327   -14107398.298 9 -10992755.322 7
 91  5  7  1  6  0.0100000  0  4  2 13  6 12
  26708561.051    15156979.097 5  11810651.221 1
  24119651.415    -6567395.794 9  -5117431.609 6
  26358722.436     8733881.854 6   6805652.613 3
  24813848.133   -14147640.419 9 -11024112.756 8
 91  5  7  1  6 30.0100000  0  4  2 13  6 12
  26727599.369    15257086.452 5  11888656.782 2
  24133875.969    -6492653.368 9  -5059190.773 6
  26384247.969     8867995.213 6   6910156.703 3
  24806269.381   -14187471.081 9 -11055149.573 7
 91  5  7  1  7  0.0100000  0  4  2 13  6 12
  26746686.557    15357377.352 5  11966805.387 2
  24148139.794    -6417689.953 9  -5000777.756 6
  26409815.469     9002361.002 6   7014857.503 3
  24798765.875   -14226888.308 9 -11085864.229 8
 91  5  7  1  7 30.0100000  0  4  2 13  6 12
  26765811.210    15457850.091 5  12045095.664 2
  24162445.587    -6342509.115 9  -4942195.304 7
  26435438.130     9136974.669 6   7119751.438 3
  24791344.507   -14265891.270 9 -11116256.096 7
 91  5  7  1  8  0.0100000  0  4  2 13  6 12
  26784952.660    15558503.315 5  12123526.552 3
  24176794.256    -6267113.621 9  -4883445.611 7
  26461088.371     9271832.751 6   7224835.807 3
  24783999.597   -14304478.209 9 -11146323.784 7
 91  5  7  1  8 30.0100000  0  4  2 13  6 12
  26804152.270    15659335.150 5  12202096.659 3
  24191181.297    -6191507.548 9  -4824531.802 6
  26486809.364     9406931.263 6   7330107.557 3
  24776735.926   -14342647.308 9 -11176065.888 7
 91  5  7  1  9  0.0100000  0  4  2 13  6 12
  26823365.370    15760347.154 5  12280807.114 2
  24205608.509    -6115691.101 9  -4765454.086 7
  26512560.938     9542269.568 6   7435566.114 3
  24769557.090   -14380394.140 9 -11205478.951 8
 91  5  7  1  9 30.0100000  0  4  2 13  6 12
  26842633.028    15861538.895 5  12359657.667 2
  24220077.688    -6039667.020 9  -4706214.565 7
  26538358.380     9677844.640 6   7541209.169 4
  24762453.813   -14417716.582 9 -11234561.329 8
 91  5  7  1 10  0.0100000  0  4  2 13  6 12
  26861919.279    15962906.061 5  12438644.863 3
  24234580.451    -5963441.507 9  -4646818.100 7
  26564207.684     9813649.742 6   7647031.478 2
  24755431.470   -14454615.897 9 -11263313.980 8
 91  5  7  1 10 30.0100000  0  4  2 13  6 12
  26881246.303    16064453.162 5  12517772.309 4
  24249124.876    -5887011.947 9  -4587262.620 6
  26590092.360     9949687.182 6   7753034.800 3
  24748491.580   -14491084.498 9 -11291731.027 8
 91  5  7  1 11  0.0100000  0  4  2 13  6 12
  26900597.600    16166182.517 5  12597041.747 2
  24263708.581    -5810377.750 9  -4527547.697 7
  26616021.115    10085956.481 6   7859218.810 3
  24741632.920   -14527117.660 9 -11319808.764 8
 91  5  7  1 11 30.0100000  0  4  2 13  6 12
  26919996.570    16268089.615 5  12676449.708 2
  24278329.464    -5733544.804 9  -4467677.895 7
  26641989.735    10222451.600 6   7965578.756 3
  24734861.511   -14562716.015 9 -11347547.693 8
 91  5  7  1 12  0.0100000  0  4  2 13  6 12
  26939420.129    16370179.311 5  12755999.934 4
  24292987.516    -5656510.530 9  -4407651.223 7
  26668007.827    10359174.887 6   8072116.496 3
  24728168.943   -14597872.113 9 -11374942.006 8
 91  5  7  1 12 30.0100000  0  4  2 13  6 12
  26958885.951    16472451.867 5  12835692.608 3
  24307683.339    -5579276.835 9  -4347469.155 7
  26694071.175    10496124.075 6   8178830.244 3
  24721567.516   -14632582.749 9 -11401989.211 8
 91  5  7  1 13  0.0100000  0  4  2 13  6 12
  26978379.057    16574909.472 5  12915529.972 2
  24322419.341    -5501843.178 9  -4287131.275 7
  26720176.509    10633298.869 6   8285719.842 3
  24715047.932   -14666843.348 9 -11428685.726 8
 91  5  7  1 13 30.0100000  0  4  2 13  6 12
  26997918.633    16677550.888 5  12995510.076 1
  24337193.115    -5424212.483 9  -4226639.861 7
  26746324.404    10770695.672 6   8392782.388 3
  24708611.087   -14700652.382 9 -11455030.389 8
 91  5  7  1 14  0.0100000  0  4  2 13  6 12
  27017480.685    16780372.215 5  13075630.415 3
  24352001.963    -5346390.092 9  -4165999.062 7
  26772501.379    10908308.477 6   8500013.255 4
  24702266.878   -14734010.448 9 -11481023.633 8
 91  5  7  1 14 30.0100000  0  4  2 13  6 12
  27037080.516    16883372.635 5  13155890.749 2
  24366844.987    -5268378.667 9  -4105210.990 7
  26798741.621    11046134.091 5   8607409.955 2
  24696003.017   -14766915.407 9 -11506663.818 7
 91  5  7  1 15  0.0110000  0  4  2 13  6 12
  27056713.027    16986555.005 5  13236292.421 2
  24381729.084    -5190177.942 9  -4044275.384 6
  26825011.828    11184174.600 6   8714974.091 2
  24689828.488   -14799365.674 9 -11531949.685 8
 91  5  7  1 15 30.0110000  0  4  2 13  6 12
  27076384.509    17089913.784 5  13316831.553 2
  24396645.251    -5111793.884 9  -3983196.930 7
  26851320.718    11322419.516 6   8822697.511 2
  24683742.105   -14831355.062 9 -11556876.432 9
 91  5  7  1 16  0.0110000  0  4  2 13  6 12
  27096072.778    17193446.356 5  13397506.067 2
  24411592.304    -5033231.140 9  -3921979.236 7
  26877661.682    11460864.998 6   8930577.235 1
  24677740.853   -14862887.507 9 -11581447.121 9
 91  5  7  1 16 30.0110000  0  4  2 13  6 12
  27115817.708    17297150.204 5  13478314.072 3
  24426576.536    -4954494.340 9  -3860625.922 7
  26904042.223    11599506.155 5   9038609.380 3
  24671826.250   -14893962.903 9 -11605661.674 8
 91  5  7  1 17  0.0110000  0  4  2 13  6 12
  27135588.124    17401029.420 5  13559258.694 2
  24441595.537    -4875580.974 9  -3799135.023 6
  26930462.926    11738344.822 5   9146795.475 3
  24666000.381   -14924574.281 9 -11629514.646 8
 91  5  7  1 17 30.0110000  0  4  2 13  6 12
  27155385.518    17505077.934 5  13640335.260 2
  24456642.118    -4796499.025 9  -3737512.757 7
  26956926.208    11877372.640 6   9255128.915 1
  24660262.357   -14954725.085 9 -11653008.726 9
 91  5  7  1 18  0.0110000  0  4  2 13  6 12
  27175216.487    17609296.107 5  13721544.002 2
  24471723.181    -4717249.750 9  -3675760.114 6
  26983412.576    12016587.668 5   9363608.264 2
  24654613.966   -14984411.966 9 -11676141.317 9
 91  5  7  1 18 30.0110000  0  4  2 13  6 12
  27195069.347    17713686.920 5  13802887.324 2
  24486836.020    -4637832.076 9  -3613876.245 6
  27009934.612    12155990.463 5   9472233.871 2
  24649052.215   -15013629.280 9 -11698908.012 9
 91  5  7  1 19  0.0110000  0  4  2 13  6 12
  27214985.455    17818240.949 5  13884357.767
  24501979.729    -4558256.534 9  -3551869.365 6
  27036496.819    12295569.573 6   9580996.913 3
  24643583.701   -15042383.257 9 -11721313.660 7
 91  5  7  1 19 30.0110000  0  4  2 13  6 12
  27234905.471    17922959.342 5  13965956.361 2
  24517152.231    -4478523.490 9  -3489739.743 6
  27063105.504    12435323.844 5   9689896.385 2
  24638199.131   -15070669.738 9 -11743355.032 8
 91  5  7  1 20  0.0110000  0  4  2 13  6 12
  27254859.350    18027845.443 5  14047685.594 1
  24532355.899    -4398631.288 9  -3427486.118 6
  27089723.176    12575254.305 5   9798933.183 4
  24632907.492   -15098482.828 9 -11765027.527 8
 91  5  7  1 20 30.0110000  0  4  2 13  6 12
  27274862.107    18132898.795 5  14129545.131 3
  24547588.360    -4318582.224 9  -3365110.256 6
  27116384.317    12715358.310 5   9908105.185 2
  24627704.596   -15125819.838 9 -11786329.060 8
 91  5  7  1 21  0.0110000  0  4  2 13  6 12
  27294875.352    18238133.522 5  14211546.044 3
  24562853.191    -4238363.900 9  -3302602.489 6
  27143079.939    12855647.468 5  10017421.483 1
  24622595.233   -15152664.206 9 -11807246.696 8
 91  5  7  1 21 30.0110000  0  4  2 13  6 12
  27314943.757    18343532.757 5  14293675.112 3
  24578145.908    -4157995.023 9  -3239977.424 6
  27169800.742    12996102.681 5  10126867.144 3
  24617579.404   -15179029.853 9 -11827791.322 8
 91  5  7  1 22  0.0110000  0  4  2 13  6 12
  27335022.056    18449108.321 5  14375941.626 3
  24593469.197    -4077465.094 9  -3177226.857 6
  27196568.905    13136733.504 5  10236449.682 1
  24612655.310   -15204901.938 9 -11847951.353 9
 91  5  7  1 22 30.0110000  0  4  2 13  6 12
  27355161.518    18554859.363 5  14458344.838 1
  24608823.670    -3996776.206 9  -3114352.420 6
  27223366.157    13277536.822 5  10346166.596 3
  24607827.454   -15230278.616 9 -11867725.347 8
